[[{"header":{"parameterUnit":"m.s-1","parameterCategory":1,"la1":31.0,"la2":29.5877,"lo1":-88.7671,"lo2":-86.6584,"dy":0.0162,"dx":0.0185,"nx":115,"ny":88,"refTime":"2024-09-11T12:00:00:Z","depth":0,"parameterNumber":2,"parameterNumberName":"U-component_of_WINDS"},"data":[0.0,0.0,0.0,0.0,0.0,0.0,0.0,0.0,0.0,0.0,0.0,0.0,0.0,0.0,0.0,0.0,0.0,0.0,0.0,0.0,0.0,0.0,0.0,0.0,0.0,0.0,0.0,0.0,0.0,0.0,0.0,0.0,0.0,0.0,0.0,0.0,0.0,0.0,0.0,0.0,0.0,0.0,0.0,0.0,0.0,0.0,0.0,0.0,0.0,0.0,0.0,0.0,0.0,0.0,0.0,0.0,0.0,0.0,0.0,0.0,0.0,0.0,0.0,0.0,0.0,0.0,0.0,0.0,0.0,0.0,0.0,0.0,0.0,0.0,0.0,0.0,0.0,0.0,0.0,0.0,0.0,0.0,0.0,0.0,0.0,0.0,0.0,0.0,0.0,0.0,0.0,0.0,0.0,0.0,0.0,0.0,0.0,0.0,0.0,0.0,0.0,0.0,0.0,0.0,0.0,0.0,0.0,0.0,0.0,0.0,0.0,0.0,0.0,0.0,0.0,0.0,0.0,0.0,0.0,0.0,0.0,0.0,0.0,0.0,0.0,0.0,0.0,0.0,0.0,0.0,0.0,0.0,0.0,0.0,0.0,0.0,0.0,0.0,0.0,0.0,0.0,0.0,0.0,0.0,0.0,0.0,0.0,0.0,0.0,0.0,0.0,0.0,0.0,0.0,0.0,0.0,0.0,0.0,0.0,0.0,0.0,0.0,0.0,0.0,0.0,0.0,0.0,0.0,0.0,0.0,0.0,0.0,0.0,0.0,0.0,0.0,0.0,0.0,0.0,0.0,0.0,0.0,0.0,0.0,0.0,0.0,0.0,0.0,0.0,0.0,0.0,0.0,0.0,0.0,0.0,0.0,0.0,0.0,0.0,0.0,0.0,0.0,0.0,0.0,0.0,0.0,0.0,0.0,0.0,0.0,0.0,0.0,0.0,0.0,0.0,0.0,0.0,0.0,0.0,0.0,0.0,0.0,0.0,0.0,0.0,0.0,0.0,0.0,0.0,0.0,0.0,0.0,0.0,0.0,0.0,0.0,0.0,0.0,0.0,0.0,0.0,0.0,0.0,0.0,0.0,0.0,0.0,0.0,0.0,0.0,0.0,0.0,0.0,0.0,0.0,0.0,0.0,0.0,0.0,0.0,0.0,0.0,0.0,0.0,0.0,0.0,0.0,0.0,0.0,0.0,0.0,0.0,0.0,0.0,0.0,0.0,0.0,0.0,0.0,0.0,0.0,0.0,0.0,0.0,0.0,0.0,0.0,0.0,0.0,0.0,0.0,0.0,0.0,0.0,0.0,0.0,0.0,0.0,0.0,0.0,0.0,0.0,0.0,0.0,0.0,0.0,0.0,0.0,0.0,0.0,0.0,0.0,0.0,0.0,0.0,0.0,0.0,0.0,0.0,0.0,0.0,0.0,0.0,0.0,0.0,0.0,0.0,0.0,0.0,0.0,0.0,0.0,0.0,0.0,0.0,0.0,0.0,0.0,0.0,0.0,0.0,0.0,0.0,0.0,0.0,0.0,0.0,0.0,0.0,0.0,0.0,0.0,0.0,0.0,0.0,0.0,0.0,0.0,0.0,0.0,0.0,0.0,0.0,0.0,0.0,0.0,0.0,0.0,0.0,0.0,0.0,0.0,0.0,0.0,0.0,0.0,0.0,0.0,0.0,0.0,0.0,0.0,0.0,0.0,0.0,0.0,0.0,0.0,0.0,0.0,0.0,0.0,0.0,0.0,0.0,0.0,0.0,0.0,0.0,0.0,0.0,0.0,0.0,0.0,0.0,0.0,0.0,0.0,0.0,0.0,0.0,0.0,0.0,0.0,0.0,0.0,0.0,0.0,0.0,0.0,0.0,0.0,0.0,0.0,0.0,0.0,0.0,0.0,0.0,0.0,0.0,0.0,0.0,0.0,0.0,0.0,0.0,0.0,0.0,0.0,0.0,0.0,0.0,0.0,0.0,0.0,0.0,0.0,0.0,0.0,0.0,0.0,0.0,0.0,0.0,0.0,0.0,0.0,0.0,0.0,0.0,0.0,0.0,0.0,0.0,0.0,0.0,0.0,0.0,0.0,0.0,0.0,0.0,0.0,0.0,0.0,0.0,0.0,0.0,0.0,0.0,0.0,0.0,0.0,0.0,0.0,0.0,0.0,0.0,0.0,0.0,0.0,0.0,0.0,0.0,0.0,0.0,0.0,0.0,0.0,0.0,0.0,0.0,0.0,0.0,0.0,0.0,0.0,0.0,0.0,0.0,0.0,0.0,0.0,0.0,0.0,0.0,0.0,0.0,0.0,0.0,0.0,0.0,0.0,0.0,0.0,0.0,0.0,0.0,0.0,0.0,0.0,0.0,0.0,0.0,0.0,0.0,0.0,0.0,0.0,0.0,0.0,0.0,0.0,0.0,0.0,0.0,0.0,0.0,0.0,0.0,0.0,0.0,0.0,0.0,0.0,0.0,0.0,0.0,0.0,0.0,0.0,0.0,0.0,0.0,0.0,0.0,0.0,0.0,0.0,0.0,0.0,0.0,0.0,0.0,0.0,0.0,0.0,0.0,0.0,0.0,0.0,0.0,0.0,0.0,0.0,0.0,0.0,0.0,0.0,0.0,0.0,0.0,0.0,0.0,0.0,0.0,0.0,0.0,0.0,0.0,0.0,0.0,0.0,0.0,0.0,0.0,0.0,0.0,0.0,0.0,0.0,0.0,0.0,0.0,0.0,0.0,0.0,0.0,0.0,0.0,0.0,0.0,0.0,0.0,0.0,0.0,0.0,0.0,0.0,0.0,0.0,0.0,0.0,0.0,0.0,0.0,0.0,0.0,0.0,0.0,0.0,0.0,0.0,0.0,0.0,0.0,0.0,0.0,0.0,0.0,0.0,0.0,0.0,0.0,0.0,0.0,0.0,0.0,0.0,0.0,0.0,0.0,0.0,0.0,0.0,0.0,0.0,0.0,0.0,0.0,0.0,0.0,0.0,0.0,0.0,0.0,0.0,0.0,0.0,0.0,0.0,0.0,0.0,0.0,0.0,0.0,0.0,0.0,0.0,0.0,0.0,0.0,0.0,0.0,0.0,0.0,0.0,0.0,0.0,0.0,0.0,0.0,0.0,0.0,0.0,0.0,0.0,0.0,0.0,0.0,0.0,0.0,0.0,0.0,0.0,0.0,0.0,0.0,0.0,0.0,0.0,0.0,0.0,0.0,0.0,0.0,0.0,0.0,0.0,0.0,0.0,0.0,0.0,0.0,0.0,0.0,0.0,0.0,0.0,0.0,0.0,0.0,0.0,0.0,0.0,0.0,0.0,0.0,0.0,0.0,0.0,0.0,0.0,0.0,0.0,0.0,0.0,0.0,0.0,0.0,0.0,0.0,0.0,0.0,0.0,0.0,0.0,0.0,0.0,0.0,0.0,0.0,0.0,0.0,0.0,0.0,0.0,0.0,0.0,0.0,0.0,0.0,0.0,0.0,0.0,0.0,0.0,0.0,0.0,0.0,0.0,0.0,0.0,0.0,0.0,0.0,0.0,0.0,0.0,0.0,0.0,0.0,0.0,0.0,0.0,0.0,0.0,0.0,0.0,0.0,0.0,0.0,0.0,0.0,0.0,0.0,0.0,0.0,0.0,0.0,0.0,0.0,0.0,0.0,0.0,0.0,0.0,0.0,0.0,0.0,0.0,0.0,0.0,0.0,0.0,0.0,0.0,0.0,0.0,0.0,0.0,0.0,0.0,0.0,0.0,0.0,0.0,0.0,0.0,0.0,0.0,0.0,0.0,0.0,0.0,0.0,0.0,0.0,0.0,0.0,0.0,0.0,0.0,0.0,0.0,0.0,0.0,0.0,0.0,0.0,0.0,0.0,0.0,0.0,0.0,0.0,0.0,0.0,0.0,0.0,0.0,0.0,0.0,0.0,0.0,0.0,0.0,0.0,0.0,0.0,0.0,0.0,0.0,0.0,0.0,0.0,0.0,0.0,0.0,0.0,0.0,0.0,0.0,0.0,0.0,0.0,0.0,0.0,0.0,0.0,0.0,0.0,0.0,0.0,0.0,0.0,0.0,0.0,0.0,0.0,0.0,0.0,0.0,0.0,0.0,0.0,0.0,0.0,0.0,0.0,0.0,0.0,0.0,0.0,0.0,0.0,0.0,0.0,0.0,0.0,0.0,0.0,0.0,0.0,0.0,0.0,0.0,0.0,0.0,0.0,0.0,0.0,0.0,0.0,0.0,0.0,0.0,0.0,0.0,0.0,0.0,-10.7375,0.0,0.0,0.0,-10.5686,0.0,0.0,0.0,0.0,0.0,0.0,0.0,0.0,0.0,0.0,0.0,0.0,0.0,0.0,0.0,0.0,0.0,0.0,0.0,0.0,0.0,0.0,0.0,0.0,0.0,0.0,0.0,0.0,0.0,0.0,0.0,0.0,0.0,0.0,0.0,0.0,0.0,0.0,0.0,0.0,0.0,0.0,0.0,0.0,0.0,0.0,0.0,0.0,0.0,0.0,0.0,0.0,0.0,0.0,0.0,0.0,0.0,0.0,0.0,0.0,0.0,0.0,0.0,0.0,0.0,0.0,0.0,0.0,0.0,0.0,0.0,0.0,0.0,0.0,0.0,0.0,0.0,0.0,0.0,0.0,0.0,0.0,0.0,0.0,0.0,0.0,0.0,0.0,0.0,0.0,0.0,0.0,0.0,0.0,0.0,0.0,0.0,0.0,0.0,0.0,0.0,0.0,0.0,0.0,0.0,0.0,0.0,0.0,0.0,0.0,-10.7959,-10.8268,-10.6734,-10.5854,-10.5783,0.0,0.0,0.0,0.0,0.0,0.0,0.0,0.0,0.0,0.0,0.0,0.0,0.0,0.0,0.0,0.0,0.0,0.0,0.0,0.0,0.0,0.0,0.0,0.0,0.0,0.0,0.0,0.0,0.0,0.0,0.0,0.0,0.0,0.0,0.0,0.0,0.0,0.0,0.0,0.0,0.0,0.0,0.0,0.0,0.0,0.0,0.0,0.0,0.0,0.0,0.0,0.0,0.0,0.0,0.0,0.0,0.0,0.0,0.0,0.0,0.0,0.0,0.0,0.0,0.0,0.0,0.0,0.0,0.0,0.0,0.0,0.0,0.0,0.0,0.0,0.0,0.0,0.0,0.0,0.0,0.0,0.0,0.0,0.0,0.0,0.0,0.0,0.0,0.0,0.0,0.0,0.0,0.0,0.0,0.0,0.0,0.0,0.0,0.0,0.0,0.0,0.0,0.0,0.0,0.0,0.0,0.0,0.0,0.0,0.0,0.0,0.0,-10.6681,-10.5854,-10.5783,0.0,0.0,0.0,0.0,0.0,0.0,0.0,0.0,0.0,0.0,0.0,0.0,0.0,0.0,0.0,0.0,0.0,0.0,0.0,0.0,0.0,0.0,0.0,0.0,0.0,0.0,0.0,0.0,0.0,0.0,0.0,0.0,0.0,0.0,0.0,0.0,0.0,0.0,0.0,0.0,0.0,0.0,0.0,0.0,0.0,0.0,0.0,0.0,0.0,0.0,0.0,0.0,0.0,0.0,0.0,0.0,0.0,0.0,0.0,0.0,0.0,0.0,0.0,0.0,0.0,0.0,0.0,0.0,0.0,0.0,0.0,0.0,0.0,0.0,0.0,0.0,0.0,0.0,0.0,0.0,0.0,0.0,0.0,0.0,0.0,0.0,0.0,0.0,0.0,0.0,0.0,0.0,0.0,0.0,0.0,0.0,0.0,0.0,0.0,0.0,0.0,0.0,0.0,0.0,0.0,0.0,0.0,0.0,0.0,0.0,-10.8021,-10.7256,-10.6375,0.0,-10.5498,0.0,0.0,0.0,0.0,0.0,0.0,0.0,0.0,0.0,0.0,0.0,0.0,0.0,0.0,0.0,0.0,0.0,0.0,0.0,0.0,0.0,0.0,0.0,0.0,0.0,0.0,0.0,0.0,0.0,0.0,0.0,0.0,0.0,0.0,0.0,0.0,0.0,0.0,0.0,0.0,0.0,0.0,0.0,0.0,0.0,0.0,0.0,0.0,0.0,0.0,0.0,0.0,0.0,0.0,0.0,0.0,0.0,0.0,0.0,0.0,0.0,0.0,0.0,0.0,0.0,0.0,0.0,0.0,0.0,0.0,0.0,0.0,0.0,0.0,0.0,0.0,0.0,0.0,0.0,0.0,0.0,0.0,0.0,0.0,0.0,0.0,0.0,0.0,0.0,0.0,0.0,0.0,0.0,0.0,0.0,0.0,0.0,0.0,0.0,0.0,0.0,0.0,0.0,0.0,0.0,0.0,0.0,0.0,0.0,0.0,-10.7399,-10.7235,-10.6415,-10.5792,0.0,0.0,0.0,0.0,0.0,0.0,0.0,0.0,0.0,0.0,0.0,0.0,0.0,0.0,0.0,0.0,0.0,0.0,0.0,0.0,0.0,0.0,0.0,0.0,0.0,0.0,0.0,0.0,0.0,0.0,0.0,0.0,0.0,0.0,0.0,0.0,0.0,0.0,0.0,0.0,0.0,0.0,0.0,0.0,0.0,0.0,0.0,0.0,0.0,0.0,0.0,0.0,0.0,0.0,0.0,0.0,0.0,0.0,0.0,0.0,0.0,0.0,0.0,0.0,0.0,0.0,0.0,0.0,0.0,0.0,0.0,0.0,0.0,0.0,0.0,0.0,0.0,0.0,0.0,0.0,0.0,0.0,0.0,0.0,0.0,0.0,0.0,0.0,0.0,0.0,0.0,0.0,0.0,0.0,0.0,0.0,0.0,0.0,0.0,0.0,0.0,0.0,0.0,0.0,0.0,0.0,0.0,0.0,0.0,0.0,-10.7506,-10.7208,-10.6913,-10.6307,-10.5863,-10.56,0.0,0.0,0.0,0.0,0.0,0.0,0.0,0.0,0.0,0.0,0.0,0.0,0.0,0.0,0.0,0.0,0.0,0.0,0.0,0.0,0.0,0.0,0.0,0.0,0.0,0.0,0.0,0.0,0.0,0.0,0.0,0.0,0.0,0.0,0.0,0.0,0.0,0.0,0.0,0.0,0.0,0.0,0.0,0.0,0.0,0.0,0.0,0.0,0.0,0.0,0.0,0.0,0.0,0.0,0.0,0.0,0.0,0.0,0.0,0.0,0.0,0.0,0.0,0.0,0.0,0.0,0.0,0.0,0.0,0.0,0.0,0.0,0.0,0.0,0.0,0.0,0.0,0.0,0.0,0.0,0.0,0.0,0.0,0.0,0.0,0.0,0.0,0.0,0.0,0.0,0.0,0.0,0.0,0.0,0.0,0.0,0.0,0.0,0.0,0.0,0.0,0.0,0.0,0.0,0.0,0.0,0.0,0.0,-10.7099,-10.7872,-10.76,-10.6092,-10.5993,-10.5909,0.0,0.0,0.0,0.0,0.0,0.0,0.0,0.0,0.0,0.0,0.0,0.0,0.0,0.0,0.0,0.0,0.0,0.0,0.0,0.0,0.0,0.0,0.0,0.0,0.0,0.0,0.0,0.0,0.0,0.0,0.0,0.0,0.0,0.0,0.0,0.0,0.0,0.0,0.0,0.0,0.0,0.0,0.0,0.0,0.0,0.0,0.0,0.0,0.0,0.0,0.0,0.0,0.0,0.0,0.0,0.0,0.0,0.0,0.0,0.0,0.0,0.0,0.0,0.0,0.0,0.0,0.0,0.0,0.0,0.0,0.0,0.0,0.0,0.0,0.0,0.0,0.0,0.0,0.0,0.0,0.0,0.0,0.0,0.0,0.0,0.0,0.0,0.0,0.0,0.0,0.0,0.0,0.0,0.0,0.0,0.0,0.0,0.0,0.0,0.0,0.0,0.0,0.0,0.0,0.0,0.0,0.0,0.0,0.0,-10.7935,-10.8354,-10.7994,-10.6743,-10.676,-10.6484,0.0,0.0,0.0,0.0,0.0,0.0,0.0,0.0,0.0,0.0,0.0,0.0,0.0,0.0,0.0,0.0,0.0,0.0,0.0,0.0,0.0,0.0,0.0,0.0,0.0,0.0,0.0,0.0,0.0,0.0,0.0,0.0,0.0,0.0,0.0,0.0,0.0,0.0,0.0,0.0,0.0,0.0,0.0,0.0,0.0,0.0,0.0,0.0,0.0,0.0,0.0,0.0,0.0,0.0,0.0,0.0,0.0,0.0,0.0,0.0,0.0,0.0,0.0,0.0,0.0,0.0,0.0,0.0,0.0,0.0,0.0,0.0,0.0,0.0,0.0,0.0,0.0,0.0,0.0,0.0,0.0,0.0,0.0,0.0,0.0,0.0,0.0,0.0,0.0,0.0,0.0,0.0,0.0,0.0,0.0,0.0,0.0,0.0,0.0,0.0,0.0,0.0,0.0,0.0,0.0,0.0,0.0,0.0,0.0,-10.8437,-10.8024,-10.7487,-10.679,-10.6798,-10.6475,0.0,0.0,0.0,0.0,0.0,0.0,0.0,0.0,0.0,0.0,0.0,0.0,0.0,0.0,0.0,0.0,0.0,0.0,0.0,0.0,0.0,0.0,0.0,0.0,0.0,0.0,0.0,0.0,0.0,0.0,0.0,0.0,0.0,0.0,0.0,0.0,0.0,0.0,0.0,0.0,0.0,0.0,0.0,0.0,0.0,0.0,0.0,0.0,0.0,0.0,0.0,0.0,0.0,0.0,0.0,0.0,0.0,0.0,0.0,0.0,0.0,0.0,0.0,0.0,0.0,0.0,0.0,0.0,0.0,0.0,0.0,0.0,0.0,0.0,0.0,0.0,0.0,0.0,0.0,0.0,0.0,0.0,0.0,0.0,0.0,0.0,0.0,0.0,0.0,0.0,0.0,0.0,0.0,0.0,0.0,0.0,0.0,0.0,0.0,0.0,0.0,0.0,0.0,0.0,0.0,0.0,0.0,0.0,-10.9924,-10.8554,-10.6943,-10.6199,-10.6023,-10.6024,-10.5869,0.0,0.0,0.0,0.0,0.0,0.0,0.0,0.0,0.0,0.0,0.0,0.0,0.0,0.0,0.0,0.0,0.0,0.0,0.0,0.0,0.0,0.0,0.0,0.0,0.0,0.0,0.0,0.0,0.0,0.0,0.0,0.0,0.0,0.0,0.0,0.0,0.0,0.0,0.0,0.0,0.0,0.0,0.0,0.0,0.0,0.0,0.0,0.0,0.0,0.0,0.0,0.0,0.0,0.0,0.0,0.0,0.0,0.0,0.0,0.0,0.0,0.0,0.0,0.0,0.0,0.0,0.0,0.0,0.0,0.0,0.0,0.0,0.0,0.0,0.0,0.0,0.0,0.0,0.0,0.0,0.0,0.0,0.0,0.0,0.0,0.0,0.0,0.0,0.0,0.0,0.0,0.0,0.0,0.0,0.0,0.0,0.0,0.0,0.0,0.0,0.0,0.0,0.0,0.0,0.0,0.0,0.0,0.0,0.0,-10.9512,-10.8525,-10.7658,-10.6966,-10.6882,-10.6475,0.0,0.0,0.0,0.0,0.0,0.0,0.0,0.0,0.0,0.0,0.0,0.0,0.0,0.0,0.0,0.0,0.0,0.0,0.0,0.0,0.0,0.0,0.0,0.0,0.0,0.0,0.0,0.0,0.0,0.0,0.0,0.0,0.0,0.0,0.0,0.0,0.0,0.0,0.0,0.0,0.0,0.0,0.0,0.0,0.0,0.0,0.0,0.0,0.0,0.0,0.0,0.0,0.0,0.0,0.0,0.0,0.0,0.0,0.0,0.0,0.0,0.0,0.0,0.0,0.0,0.0,0.0,0.0,0.0,0.0,0.0,0.0,0.0,0.0,0.0,0.0,0.0,0.0,0.0,0.0,0.0,0.0,0.0,0.0,0.0,0.0,0.0,0.0,0.0,0.0,0.0,0.0,0.0,0.0,0.0,0.0,0.0,0.0,0.0,0.0,0.0,0.0,0.0,0.0,0.0,0.0,0.0,0.0,0.0,-11.1034,-11.0051,-10.9108,-10.8414,-10.8336,-10.745,-10.5786,0.0,0.0,0.0,0.0,0.0,0.0,0.0,0.0,0.0,0.0,0.0,0.0,0.0,0.0,0.0,0.0,0.0,0.0,0.0,0.0,0.0,0.0,0.0,0.0,0.0,0.0,0.0,0.0,0.0,0.0,0.0,0.0,0.0,0.0,0.0,0.0,0.0,0.0,0.0,0.0,0.0,0.0,0.0,0.0,0.0,0.0,0.0,0.0,0.0,0.0,0.0,0.0,0.0,0.0,0.0,0.0,0.0,0.0,0.0,0.0,0.0,0.0,0.0,0.0,0.0,0.0,0.0,0.0,0.0,0.0,0.0,0.0,0.0,0.0,0.0,0.0,0.0,0.0,0.0,0.0,0.0,0.0,0.0,0.0,0.0,0.0,0.0,0.0,0.0,0.0,0.0,0.0,0.0,0.0,0.0,0.0,0.0,0.0,0.0,0.0,0.0,0.0,0.0,0.0,0.0,0.0,0.0,0.0,-11.3401,-11.1856,-11.0925,-11.0542,-11.0229,-10.876,0.0,0.0,0.0,0.0,0.0,0.0,0.0,0.0,0.0,0.0,0.0,0.0,0.0,0.0,0.0,0.0,0.0,0.0,0.0,0.0,0.0,0.0,0.0,0.0,0.0,0.0,0.0,0.0,0.0,0.0,0.0,0.0,0.0,0.0,0.0,0.0,0.0,0.0,0.0,0.0,0.0,0.0,0.0,0.0,0.0,0.0,0.0,0.0,0.0,0.0,0.0,0.0,0.0,0.0,0.0,0.0,0.0,0.0,0.0,0.0,0.0,0.0,0.0,0.0,0.0,0.0,0.0,0.0,0.0,0.0,0.0,0.0,0.0,0.0,0.0,0.0,0.0,0.0,0.0,0.0,0.0,0.0,0.0,0.0,0.0,0.0,0.0,0.0,0.0,0.0,0.0,0.0,0.0,0.0,0.0,0.0,0.0,0.0,0.0,0.0,0.0,0.0,0.0,0.0,0.0,0.0,0.0,0.0,0.0,-11.8162,-11.8392,-11.7128,-11.4361,-11.2206,-11.0375,0.0,0.0,0.0,0.0,0.0,0.0,0.0,0.0,0.0,0.0,0.0,0.0,0.0,0.0,0.0,0.0,0.0,0.0,0.0,0.0,0.0,0.0,0.0,0.0,0.0,0.0,0.0,0.0,0.0,0.0,0.0,0.0,0.0,0.0,0.0,0.0,0.0,0.0,0.0,0.0,0.0,0.0,0.0,0.0,0.0,0.0,0.0,0.0,0.0,0.0,0.0,0.0,0.0,0.0,0.0,0.0,0.0,0.0,0.0,0.0,0.0,0.0,0.0,0.0,0.0,0.0,0.0,0.0,0.0,0.0,0.0,0.0,0.0,0.0,0.0,0.0,0.0,0.0,0.0,0.0,0.0,0.0,0.0,0.0,0.0,0.0,0.0,0.0,0.0,0.0,0.0,0.0,0.0,0.0,0.0,0.0,0.0,0.0,0.0,0.0,0.0,0.0,0.0,0.0,0.0,0.0,0.0,0.0,-11.7936,-12.1171,-12.2785,-12.2885,-12.1431,-11.6434,-11.2711,0.0,0.0,0.0,0.0,0.0,0.0,0.0,0.0,0.0,0.0,0.0,0.0,0.0,0.0,0.0,0.0,0.0,0.0,0.0,0.0,0.0,0.0,0.0,0.0,0.0,0.0,0.0,0.0,0.0,0.0,0.0,0.0,0.0,0.0,0.0,0.0,0.0,0.0,0.0,0.0,0.0,0.0,0.0,0.0,0.0,0.0,0.0,0.0,0.0,0.0,0.0,0.0,0.0,0.0,0.0,0.0,0.0,0.0,0.0,0.0,0.0,0.0,0.0,0.0,0.0,0.0,0.0,0.0,0.0,0.0,0.0,0.0,0.0,0.0,0.0,0.0,0.0,0.0,0.0,0.0,0.0,0.0,0.0,0.0,0.0,0.0,0.0,0.0,0.0,0.0,0.0,0.0,0.0,0.0,0.0,0.0,0.0,0.0,0.0,0.0,0.0,0.0,0.0,0.0,0.0,0.0,0.0,0.0,-12.0468,-12.3108,-12.5708,-12.7844,-12.9176,-12.1516,-11.558,0.0,0.0,0.0,0.0,0.0,0.0,0.0,0.0,0.0,0.0,0.0,0.0,0.0,0.0,0.0,0.0,0.0,0.0,0.0,0.0,0.0,0.0,0.0,0.0,0.0,0.0,0.0,0.0,0.0,0.0,0.0,0.0,0.0,0.0,0.0,0.0,0.0,0.0,0.0,0.0,0.0,0.0,0.0,0.0,0.0,0.0,0.0,0.0,0.0,0.0,0.0,0.0,0.0,0.0,0.0,0.0,0.0,0.0,0.0,0.0,0.0,0.0,0.0,0.0,0.0,0.0,0.0,0.0,0.0,0.0,0.0,0.0,0.0,0.0,0.0,0.0,0.0,0.0,0.0,0.0,0.0,0.0,0.0,0.0,0.0,0.0,0.0,0.0,0.0,0.0,0.0,0.0,0.0,0.0,0.0,0.0,0.0,0.0,0.0,0.0,0.0,0.0,0.0,0.0,0.0,0.0,0.0,0.0,-12.3213,-12.5875,-12.8403,-13.0157,-13.1075,-12.3476,-11.8542,0.0,0.0,0.0,0.0,0.0,0.0,0.0,0.0,0.0,0.0,0.0,0.0,0.0,0.0,0.0,0.0,0.0,0.0,0.0,0.0,0.0,0.0,0.0,0.0,0.0,0.0,0.0,0.0,0.0,0.0,0.0,0.0,0.0,0.0,0.0,0.0,0.0,0.0,0.0,0.0,0.0,0.0,0.0,0.0,0.0,0.0,0.0,0.0,-9.0321,0.0,0.0,0.0,0.0,0.0,0.0,0.0,0.0,0.0,0.0,0.0,0.0,0.0,0.0,0.0,0.0,0.0,0.0,0.0,0.0,0.0,0.0,0.0,0.0,0.0,0.0,0.0,0.0,0.0,0.0,0.0,0.0,0.0,0.0,0.0,0.0,0.0,0.0,0.0,0.0,0.0,0.0,0.0,0.0,0.0,0.0,0.0,0.0,0.0,0.0,0.0,0.0,0.0,0.0,0.0,0.0,0.0,0.0,0.0,-12.5158,-12.8504,-13.0444,-13.162,-13.1848,-12.6222,-12.1619,0.0,0.0,0.0,0.0,0.0,0.0,0.0,0.0,0.0,0.0,0.0,0.0,0.0,0.0,0.0,0.0,0.0,0.0,0.0,0.0,0.0,0.0,0.0,0.0,0.0,0.0,0.0,0.0,0.0,0.0,0.0,0.0,0.0,0.0,0.0,0.0,0.0,0.0,0.0,0.0,0.0,0.0,0.0,0.0,0.0,0.0,0.0,0.0,0.0,0.0,0.0,0.0,0.0,0.0,0.0,0.0,0.0,0.0,0.0,0.0,0.0,0.0,0.0,0.0,0.0,0.0,0.0,0.0,0.0,0.0,0.0,0.0,0.0,0.0,0.0,0.0,0.0,0.0,0.0,0.0,0.0,0.0,0.0,0.0,0.0,0.0,0.0,0.0,0.0,0.0,0.0,0.0,0.0,0.0,0.0,0.0,0.0,0.0,0.0,0.0,0.0,0.0,0.0,0.0,0.0,0.0,0.0,-12.3197,-12.6651,-13.055,-13.1981,-13.2644,-13.2548,-12.8888,-12.4305,-11.8828,0.0,0.0,0.0,0.0,0.0,0.0,0.0,0.0,0.0,0.0,0.0,0.0,0.0,0.0,0.0,0.0,0.0,0.0,0.0,0.0,0.0,0.0,0.0,0.0,0.0,0.0,0.0,0.0,0.0,0.0,0.0,0.0,0.0,0.0,0.0,0.0,0.0,0.0,-9.1414,-9.0638,0.0,0.0,0.0,0.0,0.0,0.0,0.0,0.0,-8.9556,0.0,0.0,0.0,0.0,0.0,0.0,0.0,0.0,0.0,0.0,0.0,0.0,0.0,0.0,0.0,0.0,0.0,0.0,0.0,0.0,0.0,0.0,0.0,0.0,0.0,0.0,0.0,0.0,0.0,0.0,0.0,0.0,0.0,0.0,0.0,0.0,0.0,0.0,0.0,0.0,0.0,0.0,0.0,0.0,0.0,0.0,0.0,0.0,0.0,0.0,0.0,0.0,0.0,0.0,0.0,0.0,-12.0025,-12.4282,-12.7964,-13.1043,-13.2682,-13.3358,-13.3004,-12.9915,-12.5447,-11.9736,0.0,0.0,0.0,0.0,0.0,0.0,0.0,0.0,0.0,0.0,0.0,0.0,0.0,0.0,0.0,0.0,0.0,0.0,0.0,0.0,0.0,0.0,0.0,0.0,0.0,0.0,0.0,0.0,0.0,0.0,0.0,0.0,0.0,0.0,0.0,0.0,0.0,0.0,0.0,-9.2193,-9.1277,0.0,0.0,0.0,0.0,0.0,0.0,0.0,0.0,-9.1979,0.0,0.0,0.0,0.0,0.0,0.0,0.0,0.0,0.0,0.0,0.0,0.0,0.0,0.0,0.0,0.0,0.0,0.0,0.0,0.0,0.0,0.0,0.0,0.0,0.0,0.0,0.0,0.0,0.0,0.0,0.0,0.0,0.0,0.0,0.0,0.0,0.0,0.0,0.0,0.0,0.0,0.0,0.0,0.0,0.0,0.0,0.0,0.0,0.0,0.0,0.0,0.0,0.0,0.0,0.0,-11.98,-12.5473,-12.9869,-13.258,-13.3869,-13.3991,-13.2896,-13.0521,-12.6622,0.0,0.0,0.0,0.0,0.0,0.0,0.0,0.0,0.0,0.0,0.0,0.0,0.0,0.0,0.0,0.0,0.0,0.0,0.0,0.0,0.0,0.0,0.0,0.0,0.0,0.0,0.0,0.0,0.0,0.0,0.0,0.0,0.0,0.0,0.0,0.0,0.0,0.0,0.0,0.0,-9.4227,-9.4448,-9.7073,0.0,0.0,0.0,0.0,0.0,0.0,-9.353,-9.3157,0.0,0.0,0.0,0.0,0.0,0.0,0.0,0.0,0.0,0.0,0.0,0.0,0.0,0.0,0.0,0.0,0.0,0.0,0.0,0.0,0.0,0.0,0.0,0.0,0.0,0.0,0.0,0.0,0.0,0.0,0.0,0.0,0.0,0.0,0.0,0.0,0.0,0.0,0.0,0.0,0.0,0.0,0.0,0.0,0.0,0.0,0.0,0.0,0.0,0.0,0.0,0.0,0.0,0.0,0.0,-11.9401,-12.64,-13.1383,-13.3982,-13.4806,-13.4434,-13.2903,-13.0614,-12.6934,0.0,0.0,0.0,0.0,0.0,0.0,0.0,0.0,0.0,0.0,0.0,0.0,0.0,0.0,0.0,0.0,0.0,0.0,0.0,0.0,0.0,0.0,0.0,0.0,0.0,0.0,0.0,0.0,0.0,0.0,0.0,0.0,0.0,0.0,0.0,0.0,0.0,0.0,0.0,0.0,0.0,-9.7681,-9.9457,-9.7931,0.0,0.0,0.0,0.0,-9.3608,-9.5433,0.0,0.0,0.0,0.0,0.0,0.0,0.0,0.0,0.0,0.0,0.0,0.0,0.0,0.0,0.0,0.0,0.0,0.0,0.0,0.0,0.0,0.0,0.0,0.0,0.0,0.0,0.0,0.0,0.0,0.0,0.0,0.0,0.0,0.0,0.0,0.0,0.0,0.0,0.0,0.0,0.0,0.0,0.0,0.0,0.0,0.0,0.0,0.0,0.0,0.0,0.0,0.0,0.0,0.0,0.0,0.0,-11.9385,-12.6586,-13.1768,-13.4379,-13.4791,-13.4595,-13.3908,-12.9542,-12.5419,0.0,0.0,0.0,0.0,0.0,0.0,0.0,0.0,0.0,0.0,0.0,0.0,0.0,0.0,0.0,0.0,0.0,0.0,0.0,0.0,0.0,0.0,0.0,0.0,0.0,0.0,0.0,0.0,0.0,0.0,0.0,0.0,0.0,0.0,0.0,0.0,0.0,0.0,0.0,0.0,0.0,-9.8768,-10.0491,-9.8909,-9.6805,0.0,0.0,-10.0648,-9.8538,-10.3781,0.0,0.0,0.0,0.0,0.0,0.0,0.0,0.0,0.0,0.0,0.0,0.0,0.0,0.0,0.0,0.0,0.0,0.0,0.0,0.0,0.0,0.0,0.0,0.0,0.0,0.0,0.0,0.0,0.0,0.0,0.0,0.0,0.0,0.0,0.0,0.0,0.0,0.0,0.0,0.0,0.0,0.0,0.0,0.0,0.0,0.0,0.0,0.0,0.0,0.0,0.0,0.0,0.0,0.0,0.0,-12.0466,-12.0408,-12.8058,-13.308,-13.4903,-13.5088,-13.4578,-13.3367,-12.9565,-12.5879,0.0,0.0,0.0,0.0,0.0,0.0,0.0,0.0,0.0,0.0,0.0,0.0,0.0,0.0,0.0,0.0,0.0,0.0,0.0,0.0,0.0,0.0,0.0,0.0,0.0,0.0,0.0,0.0,0.0,0.0,0.0,0.0,0.0,0.0,0.0,0.0,0.0,0.0,0.0,0.0,0.0,0.0,-10.1527,-10.1633,0.0,0.0,0.0,-10.2044,-9.8237,0.0,0.0,0.0,0.0,0.0,0.0,0.0,0.0,0.0,0.0,0.0,0.0,0.0,0.0,0.0,0.0,0.0,0.0,0.0,0.0,0.0,0.0,0.0,0.0,0.0,0.0,0.0,0.0,0.0,0.0,0.0,0.0,0.0,0.0,0.0,0.0,0.0,0.0,0.0,0.0,0.0,0.0,0.0,0.0,0.0,0.0,0.0,0.0,0.0,0.0,0.0,0.0,0.0,0.0,0.0,0.0,0.0,-12.1067,-12.892,-13.368,-13.4948,-13.5097,-13.4413,-13.2893,-12.9603,0.0,0.0,0.0,0.0,0.0,0.0,0.0,0.0,0.0,0.0,0.0,0.0,0.0,0.0,0.0,0.0,0.0,0.0,0.0,0.0,0.0,0.0,0.0,0.0,0.0,0.0,0.0,-9.4593,0.0,0.0,0.0,0.0,0.0,0.0,0.0,0.0,0.0,0.0,0.0,0.0,0.0,0.0,-10.5064,-10.2975,-10.4248,-10.5225,0.0,0.0,-10.3724,-10.0683,-10.6711,-10.8879,0.0,0.0,0.0,0.0,0.0,0.0,0.0,0.0,0.0,0.0,0.0,0.0,0.0,0.0,0.0,0.0,0.0,0.0,0.0,0.0,0.0,0.0,0.0,0.0,0.0,0.0,0.0,-11.7461,-11.7158,-11.5262,0.0,0.0,0.0,0.0,0.0,0.0,0.0,0.0,0.0,0.0,0.0,0.0,0.0,0.0,0.0,0.0,0.0,0.0,0.0,0.0,0.0,0.0,0.0,0.0,-12.0766,-12.1145,-12.8203,-13.2741,-13.4101,-13.4556,-13.425,-13.3157,-12.9139,-12.6013,0.0,0.0,0.0,0.0,0.0,0.0,0.0,0.0,0.0,0.0,0.0,0.0,0.0,0.0,0.0,0.0,0.0,0.0,0.0,0.0,0.0,0.0,0.0,0.0,0.0,0.0,0.0,0.0,0.0,0.0,0.0,0.0,0.0,0.0,0.0,0.0,0.0,0.0,0.0,0.0,0.0,-10.7099,-10.5158,-10.6174,-10.8599,0.0,-10.9448,-10.7268,-10.9561,-11.6558,-11.7665,-10.517,0.0,0.0,0.0,0.0,0.0,0.0,0.0,0.0,0.0,0.0,0.0,0.0,0.0,0.0,0.0,0.0,0.0,0.0,0.0,0.0,0.0,0.0,0.0,0.0,0.0,-11.6507,-11.5929,-11.5833,-11.5374,0.0,0.0,0.0,0.0,0.0,0.0,0.0,0.0,0.0,0.0,0.0,0.0,0.0,0.0,0.0,0.0,0.0,0.0,0.0,0.0,0.0,0.0,0.0,0.0,-12.192,-12.4495,-12.9299,-13.2514,-13.3909,-13.4368,-13.3914,-13.2515,-12.9848,-12.7049,0.0,0.0,0.0,0.0,0.0,0.0,0.0,0.0,0.0,0.0,0.0,0.0,0.0,0.0,0.0,0.0,0.0,0.0,0.0,0.0,0.0,0.0,0.0,0.0,0.0,0.0,0.0,0.0,-9.3957,-9.3504,-9.278,0.0,0.0,0.0,0.0,0.0,0.0,0.0,0.0,0.0,0.0,-10.8663,-11.0544,-11.2201,0.0,0.0,-11.3457,-11.1824,-10.8846,-11.2949,-11.3261,-10.3947,-10.1788,0.0,0.0,0.0,0.0,0.0,0.0,0.0,0.0,0.0,0.0,0.0,0.0,0.0,0.0,0.0,0.0,0.0,0.0,0.0,0.0,0.0,0.0,0.0,0.0,0.0,0.0,-11.5321,-11.5364,0.0,0.0,0.0,0.0,0.0,0.0,0.0,0.0,0.0,0.0,0.0,0.0,0.0,0.0,0.0,0.0,0.0,0.0,0.0,0.0,0.0,0.0,0.0,0.0,-12.3128,-12.668,-13.0115,-13.2505,-13.3749,-13.4097,-13.3497,-13.1835,-13.0489,-12.7967,-12.415,0.0,0.0,0.0,0.0,0.0,0.0,0.0,0.0,0.0,0.0,0.0,0.0,0.0,0.0,0.0,0.0,0.0,0.0,0.0,0.0,0.0,0.0,0.0,0.0,0.0,0.0,0.0,-9.4227,-9.3859,-9.2963,0.0,0.0,0.0,0.0,0.0,0.0,0.0,0.0,0.0,0.0,-11.1581,-11.2751,-11.3849,-11.4156,-11.2943,-11.1976,-11.0312,-10.7477,-10.9537,-10.9666,-10.4244,0.0,0.0,0.0,0.0,0.0,0.0,0.0,0.0,0.0,0.0,0.0,0.0,0.0,0.0,0.0,0.0,0.0,0.0,0.0,0.0,0.0,0.0,0.0,0.0,0.0,0.0,-11.5458,-11.624,0.0,-11.5748,-11.7234,0.0,0.0,0.0,0.0,0.0,0.0,0.0,0.0,0.0,0.0,0.0,0.0,0.0,0.0,0.0,0.0,0.0,0.0,0.0,0.0,0.0,0.0,-12.4184,-12.6674,-13.037,-13.2661,-13.3487,-13.3735,-13.3066,-13.1447,-13.0891,-12.8606,-12.4272,0.0,0.0,0.0,0.0,0.0,0.0,0.0,0.0,0.0,0.0,0.0,0.0,0.0,0.0,0.0,0.0,0.0,0.0,0.0,0.0,0.0,0.0,0.0,0.0,0.0,0.0,-9.274,-9.3178,-9.3546,0.0,0.0,0.0,0.0,0.0,0.0,0.0,0.0,0.0,-9.9934,-11.0496,-11.6054,-11.0279,-10.9246,-10.9333,-10.9295,-10.3814,-10.1347,-10.6598,-10.8474,-10.8836,0.0,0.0,0.0,0.0,0.0,0.0,0.0,0.0,0.0,0.0,0.0,0.0,0.0,0.0,0.0,0.0,0.0,0.0,0.0,0.0,0.0,0.0,0.0,0.0,0.0,0.0,0.0,-11.5703,-11.5976,0.0,0.0,0.0,0.0,0.0,0.0,0.0,0.0,0.0,0.0,0.0,-11.8051,-11.8387,0.0,0.0,0.0,0.0,0.0,0.0,0.0,0.0,0.0,0.0,0.0,0.0,-12.4615,-12.68,-13.0779,-13.3314,-13.4064,-13.3875,-13.3515,-13.2988,-13.2552,-13.0341,-12.6018,0.0,0.0,0.0,-11.2311,0.0,0.0,0.0,0.0,0.0,0.0,0.0,0.0,0.0,0.0,0.0,0.0,0.0,0.0,0.0,0.0,0.0,0.0,0.0,0.0,0.0,-9.5996,0.0,0.0,0.0,0.0,0.0,0.0,0.0,0.0,0.0,0.0,-9.8144,-10.0638,-10.4727,-10.582,-10.6723,-10.8219,-10.8855,-11.0394,0.0,0.0,0.0,0.0,0.0,0.0,0.0,0.0,0.0,0.0,0.0,0.0,0.0,-10.9039,-10.5511,-9.8774,-9.9254,-10.092,-10.1717,0.0,0.0,0.0,0.0,0.0,0.0,0.0,0.0,0.0,0.0,0.0,0.0,0.0,0.0,-11.6321,-11.6894,-11.702,0.0,0.0,0.0,0.0,0.0,0.0,0.0,0.0,-11.8294,-11.9784,-12.1052,-12.1607,-12.2092,-12.2448,-12.2093,-12.0709,0.0,0.0,0.0,0.0,0.0,0.0,0.0,0.0,-12.5962,-12.7704,-13.1941,-13.4502,-13.5076,-13.4942,-13.4547,-13.4021,-13.2694,-13.0274,-12.665,-12.3403,-11.9817,0.0,0.0,0.0,0.0,0.0,0.0,0.0,0.0,0.0,0.0,0.0,0.0,0.0,0.0,0.0,0.0,0.0,0.0,0.0,0.0,0.0,0.0,0.0,-9.7345,0.0,0.0,0.0,0.0,0.0,0.0,0.0,0.0,0.0,-10.0398,-10.1619,-10.4051,-10.8384,-10.7472,-10.6152,-10.5269,0.0,0.0,0.0,0.0,0.0,0.0,0.0,-10.6325,-10.7138,-11.0424,-11.4301,-11.8526,-11.8865,-11.8506,-11.8533,0.0,0.0,-10.6953,-10.705,-10.8712,-10.9482,-10.9452,-10.9643,-11.0671,-11.0671,-11.0634,0.0,0.0,0.0,0.0,-11.7015,0.0,0.0,0.0,-11.6541,-11.7507,0.0,-11.8125,0.0,0.0,0.0,0.0,-12.0494,-12.3163,0.0,0.0,-12.3824,-12.5043,-12.315,-12.4701,-12.5449,-12.518,-12.4178,-12.4049,-12.4723,-12.3185,-12.1887,0.0,0.0,0.0,0.0,0.0,-12.8072,-12.9281,-13.3645,-13.6128,-13.6369,-13.6603,-13.5988,-13.4422,-13.1523,-12.8831,-12.6315,-12.5018,-12.1682,-11.6132,-11.536,0.0,0.0,0.0,0.0,0.0,0.0,0.0,0.0,0.0,0.0,0.0,0.0,0.0,0.0,0.0,0.0,0.0,0.0,0.0,0.0,-9.9162,0.0,0.0,0.0,0.0,0.0,0.0,0.0,0.0,0.0,-10.1483,-10.2287,-10.593,-10.9387,-11.0108,0.0,0.0,0.0,0.0,-10.5044,-9.4424,-9.3824,-9.5858,-9.8079,-10.4315,-11.0648,-11.5488,0.0,0.0,-12.9398,-12.5316,-12.2153,-12.2723,-12.3647,-12.1991,-11.6144,-11.5743,-11.6018,-11.5429,-11.5054,-11.4353,-11.4279,-11.4477,-11.3733,-12.4734,0.0,0.0,0.0,0.0,-11.9751,-11.9906,-12.017,-12.0695,-12.0962,-12.0976,-12.0694,0.0,0.0,0.0,0.0,0.0,0.0,-12.3263,-12.3606,-12.4921,-12.606,-12.7062,-12.7324,-12.772,-12.8116,-12.7851,-12.784,-12.8091,-12.8058,-12.6379,-12.3232,0.0,0.0,0.0,0.0,-12.7314,-12.885,-13.2373,-13.4542,-13.5247,-13.5503,-13.5495,-13.5239,-13.3791,-13.189,-12.9579,-12.6927,-12.3855,-12.0241,-11.714,0.0,0.0,0.0,0.0,0.0,0.0,0.0,0.0,0.0,0.0,0.0,0.0,0.0,0.0,0.0,0.0,0.0,0.0,0.0,-10.2785,-10.172,-10.1484,0.0,0.0,0.0,0.0,0.0,0.0,0.0,0.0,0.0,-11.3175,-10.6541,-10.2079,0.0,0.0,-9.7643,-9.4703,-9.9587,-10.4317,-10.6711,-10.739,0.0,-11.7575,-11.7884,-11.8607,-12.2477,-12.8502,-13.2805,-13.2903,-13.3615,-13.416,-13.3892,-13.3266,-13.2079,-13.0134,-12.7454,-12.5833,-12.5861,-12.6196,-12.6154,-12.5378,-12.4959,-12.4361,-12.7705,-12.5581,-12.3954,-12.2784,-12.1951,-12.191,-12.2218,-12.2724,-12.352,-12.3675,-12.3373,-12.2996,-12.232,-12.1483,-12.1776,0.0,0.0,0.0,-12.5735,-12.6692,-12.7765,-12.8724,-12.9506,-12.998,-13.0319,-13.0735,-13.0423,-13.0457,-13.0774,-13.0625,-12.9331,-12.682,0.0,-12.4536,-12.4418,-12.6769,-12.8769,-13.0417,-13.3202,-13.5093,-13.6029,-13.6025,-13.5939,-13.5795,-13.4637,-13.3074,-13.0949,-12.8369,-12.5594,-12.2629,-11.9211,-11.6453,0.0,0.0,0.0,0.0,0.0,0.0,0.0,0.0,0.0,0.0,0.0,-11.076,-10.8776,0.0,0.0,0.0,-10.7548,-10.6727,-10.4826,-10.5299,0.0,0.0,0.0,0.0,0.0,0.0,0.0,-10.8269,-11.2266,-11.584,-11.7073,-11.049,-10.6625,-10.9601,-10.642,-10.303,-10.0823,0.0,-11.0503,-11.2905,-11.3734,-11.6537,-12.3241,-12.452,-12.6171,-13.1086,-13.4908,-13.7464,-13.7441,-13.8774,-13.9637,-13.9388,-13.8386,-13.7246,-13.6526,-13.4254,-13.2412,-13.1949,-13.1683,-13.1302,-13.0414,-12.977,-12.8981,-13.0397,-12.9481,-12.552,-12.3833,-12.381,-12.3724,-12.4043,-12.4708,-12.5352,-12.5787,-12.591,-12.4952,-12.4737,-12.5079,-12.5956,0.0,-12.7413,-12.8913,-12.914,-12.8573,-13.14,-13.1951,-13.0752,-13.2097,-13.2787,-13.2752,-13.2028,-13.2062,-13.2672,-13.1571,-13.0899,-13.0753,-12.9567,-12.8162,-12.6816,-12.9061,-13.114,-13.2878,-13.4698,-13.6333,-13.7629,-13.7471,-13.69,-13.5932,-13.4414,-13.2637,-13.0733,-12.9024,-12.6683,-12.3606,-12.1209,-11.847,-11.5457,0.0,0.0,0.0,0.0,0.0,0.0,0.0,0.0,0.0,0.0,0.0,0.0,0.0,0.0,-11.3086,-11.0612,0.0,-10.7758,-11.0254,0.0,0.0,0.0,-11.8516,-12.1364,-12.1098,-12.0195,-11.8824,0.0,0.0,-11.7375,-11.7306,-11.961,-12.5928,-12.4728,-12.0897,-11.441,-11.83,-12.0554,-11.5467,-11.6281,-11.8545,-12.287,-12.7631,-13.3258,-13.891,-14.0864,-14.1065,-14.1631,-14.1202,-14.0716,-14.1019,-14.0109,-13.8895,-13.7625,-13.7118,-13.6529,-13.4481,-13.2968,-13.1757,-13.1137,-12.9961,-12.8944,-13.0157,-13.0498,-12.8909,-12.7911,-12.7431,-12.7412,-12.747,-12.7638,-12.7836,-12.7615,-12.7143,-12.6911,-12.6229,-12.5331,-12.6204,-12.6701,-12.6964,-12.8461,-12.9514,-12.9968,-13.0653,-13.1136,-13.1476,-13.1787,-13.1959,-13.1959,-13.1787,-13.1787,-13.1966,-13.1663,-13.0997,-13.0118,-12.9588,-12.9069,-12.8363,-12.7783,-12.8188,-12.972,-13.0205,-13.1999,-13.5114,-13.6443,-13.6402,-13.4915,-13.3316,-13.142,-12.9061,-12.6832,-12.4974,-12.3488,-12.056,-11.8579,-11.7829,-11.3999,0.0,0.0,0.0,0.0,0.0,0.0,0.0,0.0,0.0,-11.4761,-11.1519,0.0,-11.7023,0.0,-11.1779,-11.4368,-11.912,-12.0778,0.0,0.0,-12.5301,-12.5857,-12.6006,-12.8143,-12.8439,-12.5393,-12.6555,-12.8163,-12.9674,-12.9232,-13.1155,-13.7221,-12.6537,-11.7253,-11.5724,-12.0649,-12.4534,-12.4624,-12.8227,-13.2527,-13.4096,-13.7152,-13.9604,-14.1392,-14.2224,-14.2768,-14.2962,-14.3301,-14.3392,-14.3175,-14.2428,-14.1281,-13.9729,-13.8473,-13.6998,-13.5388,-13.4436,-13.3422,-13.1833,-13.0876,-13.007,-12.9096,-12.9521,-12.9128,-12.9006,-12.9003,-12.915,-12.9195,-12.9195,-12.9526,-12.9261,-12.8565,-12.8234,-12.7638,-12.6876,-12.7359,-12.7784,-12.8173,-12.8775,-12.9436,-13.0327,-13.0761,-13.0985,-13.1145,-13.1909,-13.22,-13.22,-13.1856,-13.1856,-13.22,-13.1856,-13.1357,-13.0631,-13.0529,-13.0136,-12.9327,-12.8033,-12.8097,-12.9456,-13.0345,-13.1809,-13.3938,-13.4967,-13.4838,-13.336,-13.1715,-12.9985,-12.8242,-12.6934,-12.5559,-12.4142,-12.241,-12.0401,-11.83,-11.5181,-11.2309,0.0,0.0,0.0,0.0,0.0,0.0,0.0,0.0,0.0,0.0,0.0,-12.179,-11.7814,-11.9353,-12.2365,-12.6679,-12.7471,-12.8775,-13.132,-13.2021,-13.247,-13.3037,-13.5497,-13.6211,-13.3956,-13.5329,-13.7066,-13.8629,-13.8184,-13.8945,-14.2607,-13.3959,-12.7116,-12.6893,-12.9102,-13.0765,-13.1431,-13.4524,-13.7678,-13.9637,-14.1097,-14.2146,-14.2535,-14.3001,-14.3428,-14.3778,-14.3895,-14.3965,-14.384,-14.3217,-14.2218,-14.0738,-13.9638,-13.832,-13.6784,-13.5595,-13.4206,-13.2062,-13.1149,-13.0349,-12.7759,-12.7885,-12.7885,-12.8447,-12.943,-12.9653,-12.9835,-12.999,-13.0619,-13.052,-12.989,-12.9261,-12.8963,-12.8963,-12.8963,-12.9334,-12.9892,-12.9342,-12.933,-13.0077,-13.0893,-13.092,-13.0441,-13.1909,-13.2641,-13.2683,-13.2028,-13.2062,-13.2683,-13.2028,-13.1676,-13.1611,-13.1507,-13.0815,-12.9634,-12.8823,-12.889,-12.9987,-13.1788,-13.2652,-13.2707,-13.2998,-13.2582,-13.1466,-13.0047,-12.8897,-12.7909,-12.7794,-12.6868,-12.5069,-12.4752,-12.2717,-11.8522,-11.6815,-11.4192,0.0,-10.9906,0.0,0.0,0.0,0.0,0.0,0.0,0.0,0.0,-12.6458,-12.7104,-12.8073,-12.9546,-13.1075,-13.2684,-13.2916,-13.4252,-13.722,-13.7685,-13.8509,-14.0537,-14.2041,-14.2669,-14.2019,-14.2766,-14.3687,-14.4111,-14.4096,-14.3769,-14.375,-14.1863,-13.9849,-14.0185,-13.8188,-13.6576,-13.6171,-13.6678,-13.7998,-13.9925,-14.1059,-14.1913,-14.2807,-14.304,-14.3467,-14.4322,-14.3856,-14.3422,-14.3628,-14.3104,-14.2208,-14.1043,-14.0391,-13.9473,-13.7847,-13.6409,-13.4737,-13.2514,-13.1268,-13.0473,-12.7128,-12.7885,-12.7885,-12.8447,-12.9371,-12.9423,-12.9935,-13.0718,-13.0851,-13.0818,-13.0685,-13.0553,-13.0486,-13.0486,-13.0486,-13.0244,-12.9856,-12.969,-12.9481,-12.9162,-12.933,-12.9754,-13.0362,-13.0735,-13.1273,-13.1924,-13.1752,-13.1752,-13.189,-13.1752,-13.1443,-13.1039,-13.0358,-12.9622,-12.8893,0.0,0.0,0.0,-12.786,-12.8437,-12.8415,-12.9529,-12.9822,-12.9135,-12.9421,0.0,-12.7938,-12.6954,-12.6025,-12.5256,-12.4125,0.0,0.0,0.0,0.0,0.0,0.0,0.0,0.0,0.0,0.0,0.0,-13.0593,-13.0595,-12.8907,-13.0051,-13.2326,-13.5646,-13.6313,-13.7698,-14.0506,-14.1628,-14.2426,-14.3059,-14.3395,-14.3753,-14.4207,-14.4517,-14.4449,-14.3822,-14.3969,-14.4037,-14.3811,-14.3706,-14.4074,-14.4588,-14.3349,-14.2888,-14.3891,-14.0756,-13.8353,-13.8011,-13.8064,-13.844,-13.9482,-13.9948,-14.0935,-14.1758,-14.2263,-14.2846,-14.4105,-14.3778,-14.3312,-14.3383,-14.2701,-14.1954,-14.1338,-14.009,-13.8903,-13.7896,-13.689,-13.5559,-13.3557,-13.2213,-13.1265,-12.5908,-12.636,-12.636,-12.7032,0.0,-12.8447,-12.9188,-13.0223,-13.0705,-13.0884,-13.0884,-13.0884,-13.0884,-13.0884,-13.0884,-13.0685,-13.0321,-12.999,-12.9458,-12.8795,-12.8856,-12.9177,-12.9737,-13.0249,-13.0877,-13.1683,-13.1683,-13.1683,-13.1683,-13.1683,-13.1559,-13.1319,-13.0828,-13.0302,-12.9636,-12.8458,-12.7415,-12.6568,-12.7494,-12.8225,-12.8788,-12.9489,-12.967,-12.9283,-12.8728,0.0,0.0,0.0,0.0,0.0,0.0,0.0,0.0,0.0,0.0,-12.2745,-12.1541,-12.2469,-12.6041,-12.649,-12.8986,-13.4542,-13.7552,-13.7708,-13.4387,-13.6707,-13.9195,-14.117,-14.1752,-14.2734,-14.4454,-14.4979,-14.5183,-14.5311,-14.5633,-14.5523,-14.4865,-14.5677,-14.576,-14.4456,-14.5001,-14.552,-14.5226,-14.4652,-14.4757,-14.536,-14.3821,-14.2849,-14.3473,-14.2014,-14.0489,-13.9922,-13.9726,-13.9933,-14.0726,-14.1646,-14.2047,-14.2651,-14.2699,-14.301,-14.3788,-14.2932,-14.2364,-14.3097,-14.2411,-14.1435,-14.1176,-14.0281,-13.9287,-13.849,-13.7818,-13.675,-13.5024,-13.3554,-13.2402,-12.4662,-12.4892,-12.4892,-12.5451,-12.6489,-12.7475,-12.854,-12.9769,-13.0526,0.0,0.0,-13.0884,-13.0884,-13.0884,-13.0751,-13.0718,-13.0652,-12.9923,-12.9195,-12.8553,-12.8614,-12.876,-12.8929,-12.9737,-13.0711,-13.166,-13.1676,-13.1752,-13.189,-13.1752,-13.1683,-13.1683,-13.1683,-13.1304,-13.0545,-12.9062,-12.7999,-12.7415,-12.7803,-12.8574,-12.9629,-12.9646,-12.9779,-13.0006,-12.8675,-12.7715,-12.7137,-12.7569,-12.7672,-12.749,-12.8667,-12.9116,-12.8538,-12.783,-12.7156,-12.638,-12.4826,-12.5672,-12.956,-12.9154,-13.1825,-13.9156,-14.2776,-14.3485,-14.0428,-14.3109,-14.4926,-14.4888,-14.5499,-14.6015,-14.6275,-14.5999,-14.5825,-14.6121,-14.6319,-14.5826,-14.471,-14.5987,-14.6258,-14.4561,-14.5334,-14.6425,-14.6087,-14.524,-14.4975,-14.5359,-14.4025,-14.2813,-14.2821,-14.2382,-14.1592,-14.1119,-14.0713,-14.0976,-14.1958,-14.2921,-14.3794,-14.2867,-14.297,-14.3165,-14.2815,-14.1842,-14.1568,-14.2458,-14.1557,-14.0767,-14.0678,-14.0243,-13.9783,-13.9151,-13.857,-13.7751,-13.636,-13.4942,-13.3787,-12.3499,-12.4892,-12.4892,-12.5451,-12.6489,-12.7508,-12.9003,-13.0705,-13.0795,-13.0884,-13.0884,-13.0884,-13.0884,-13.0884,-13.0221,-12.9956,-12.989,-12.9195,-12.8433,-12.7737,-12.7811,-12.7862,-12.8055,-12.8847,-13.0111,-13.1567,-13.1686,-13.2028,-13.258,-13.2028,-13.1683,-13.1683,-13.1683,-13.1338,-13.051,-12.9062,-12.8279,-12.8124,-12.623,-12.5769,-12.6872,-12.6677,-12.7514,-12.9236,-13.0412,-13.1363,-13.2024,-13.1777,-13.2011,-13.2665,-13.2475,-13.2363,-13.239,-13.2362,-13.2577,-13.303,-13.2195,-13.3186,-13.6463,-13.6044,-13.7479,-14.1711,-14.384,-14.4819,-14.4988,-14.5413,-14.5728,-14.5728,-14.5843,-14.5915,-14.5982,-14.616,-14.6383,-14.6595,-14.6314,-14.6063,-14.5942,-14.5755,-14.5175,-14.4014,-14.4285,-14.4419,-14.4072,-14.3793,-14.3827,-14.404,-14.3803,-14.3739,-14.3833,-14.2258,-14.089,-14.0962,-14.0541,-14.042,-14.1191,-14.1345,-14.1813,-14.139,-14.2014,-14.2208,-14.1535,-14.1067,-14.0778,-14.0477,-13.9758,-13.9368,-13.9786,-13.9325,-13.9013,-13.8995,-13.8452,-13.764,-13.7016,-13.602,-13.5079,-12.2758,-12.3599,-12.4463,-12.5156,-12.5745,-12.7223,-12.8726,-13.0132,-13.0705,-13.0884,-13.0851,-13.0486,-13.0321,-13.0255,-12.9526,-12.9195,-12.9195,-12.883,-12.83,-12.7638,-12.8002,-12.809,-12.7939,-12.9493,-13.0765,-13.1568,-13.209,-13.2511,-13.2787,-13.2062,-13.1683,-13.1683,-13.1683,-13.1338,-13.0545,-12.9476,-12.8717,-12.8269,-12.6785,-12.6858,-12.8481,-12.844,-12.9398,-13.1519,-13.1777,-13.1936,-13.2426,-13.2459,-13.286,-13.3732,-13.4253,-13.4753,-13.5249,-13.5742,-13.6118,-13.6465,-13.6157,-13.6788,-13.872,-13.8847,-13.9446,-14.0753,-14.2465,-14.365,-14.3979,-14.5176,-14.5881,-14.5919,-14.5919,-14.5919,-14.5919,-14.6179,-14.6462,-14.6575,-14.6232,-14.5888,-14.5585,-14.5378,-14.4672,-14.3533,-14.38,-14.4073,-14.3778,-14.3484,-14.3575,-14.406,-14.4006,-14.3794,-14.3715,-14.2069,-14.1045,-14.1765,-14.1668,-14.1343,-14.1306,-14.2086,-14.214,-14.1317,-14.1424,-14.1307,-14.0557,-14.0089,-13.9844,-13.9886,-13.927,-13.8879,-13.927,-13.8917,-13.8706,-13.8723,-13.8558,-13.8019,-13.7483,-13.6294,-13.5037,-12.1671,-12.2421,-12.37,-12.4662,-12.5353,-12.6873,-12.826,-12.9463,-13.0223,-13.0705,-13.0785,-13.0122,-12.9791,-12.9691,-12.8863,-12.8532,-12.8631,-12.8333,-12.7969,-12.7671,-12.8201,-12.8237,-12.8021,-13.0219,-13.1532,-13.1921,-13.2734,-13.3201,-13.3235,-13.2407,-13.1856,-13.1718,-13.1683,-13.1407,-13.0821,-13.0097,-12.9407,-12.8786,-12.7889,-12.843,-13.0357,-13.0706,-13.1829,-13.3635,-13.3181,-13.2847,-13.2979,-13.3266,-13.3914,-13.5018,-13.6136,-13.7013,-13.7791,-13.8423,-13.8609,-13.8274,-13.82,-13.8386,-13.8881,-13.9559,-13.9754,-13.9298,-14.105,-14.2248,-14.2512,-14.4197,-14.5461,-14.5576,-14.5767,-14.5919,-14.5953,-14.6114,-14.6306,-14.6362,-14.5902,-14.5376,-14.4835,-14.4667,-14.4169,-14.2914,-14.3333,-14.3822,-14.3783,-14.3485,-14.3383,-14.3761,-14.3538,-14.2896,-14.2267,-14.1677,-14.1633,-14.1896,-14.2101,-14.1861,-14.1515,-14.2368,-14.2468,-14.1165,-14.1165,-14.0775,-13.9995,-13.9214,-13.9111,-13.9624,-13.9284,-13.8888,-13.8816,-13.8748,-13.8668,-13.8684,-13.8383,-13.7917,-13.708,-13.6028,-13.4772,-11.9441,-12.2114,-12.2452,-12.397,-12.6102,-12.6489,-12.7635,-12.9188,-12.9463,-13.0042,-13.0728,-13.0122,-12.9791,-12.9592,-12.8333,-12.8068,-12.8532,-12.7339,-12.7074,-12.7571,-12.7638,-12.7691,-12.7851,-13.012,-13.1712,-13.24,-13.3346,-13.3941,-13.4458,-13.3261,-13.2373,-13.1752,-13.1683,-13.1649,-13.1511,-13.0821,-13.0407,-13.0338,-12.8924,-12.8952,-13.0396,-13.1768,-13.3148,-13.4563,-13.5225,-13.5811,-13.6166,-13.6374,-13.7228,-13.9011,-13.9294,-13.9701,-14.0181,-14.0392,-13.9798,-13.8349,-13.82,-13.794,-13.7383,-13.7952,-13.8672,-13.9253,-14.0559,-14.1669,-14.2247,-14.313,-14.3971,-14.462,-14.5423,-14.5767,-14.5881,-14.5872,-14.5966,-14.6261,-14.5242,-14.4511,-14.4515,-14.3585,-14.2738,-14.266,-14.2781,-14.2806,-14.3066,-14.2949,-14.2744,-14.2446,-14.1971,-14.1523,-14.1397,-14.1311,-14.0898,-14.0541,-14.0344,-14.0656,-14.1047,-14.1437,-14.1197,-14.045,-14.084,-14.045,-13.9468,-13.9351,-13.9792,-13.8894,-13.8821,-13.8704,-13.8782,-13.8777,-13.8732,-13.8637,-13.8114,-13.7147,-13.5976,-13.5508,-13.5065,-11.794,-11.9441,-12.1464,-12.3568,-12.5419,-12.6102,-12.6873,-12.7697,-12.8911,-12.9678,-12.9943,-12.9855,-12.9559,-12.9095,-12.8035,-12.777,-12.8002,-12.7439,-12.7306,-12.7671,-12.8466,-12.8433,-12.7944,-13.0498,-13.1767,-13.1701,-13.2157,-13.2557,-13.2672,-13.1875,-13.1497,-13.1641,-13.1683,-13.1683,-13.1614,-13.0959,-13.0579,-13.0579,-12.9959,-13.0379,-13.1605,-13.1945,-13.3392,-13.583,-13.6433,-13.6988,-13.7626,-13.8017,-13.859,-13.9428,-14.0124,-14.0418,-14.0182,-14.0539,-14.0169,-13.9017,-13.8906,-13.8349,-13.7086,-13.7754,-13.8278,-13.8497,-13.9345,-14.019,-14.088,-14.1528,-14.2099,-14.2519,-14.3665,-14.4429,-14.4429,-14.4429,-14.484,-14.5578,-14.4445,-14.3618,-14.4357,-14.3214,-14.2426,-14.2561,-14.2583,-14.2626,-14.2654,-14.2368,-14.1897,-14.1355,-14.0954,-14.0789,-14.0611,-14.0525,-14.0195,-13.9487,-13.8938,-13.8977,-13.968,-13.9875,-13.968,-13.9524,-13.9602,-13.929,-13.8587,-13.8743,-13.9016,-13.8197,-13.808,-13.8275,-13.8743,-13.8353,-13.8119,-13.8225,-13.8032,-13.7045,-13.5967,-13.519,-13.4368,-11.6801,-11.7753,-12.084,-12.3297,-12.4959,-12.5647,-12.6102,-12.6585,-12.7979,-12.8819,-12.943,-12.9572,-12.9392,-12.8963,-12.8201,-12.7869,-12.7869,-12.7671,-12.7704,-12.7969,-12.883,-12.8598,-12.7957,-13.0521,-13.1655,-13.1325,-13.1718,-13.173,-13.1339,-13.0485,-13.0486,-13.1188,-13.1376,-13.1453,-13.1614,-13.1131,-13.089,-13.0855,-13.0717,-13.1169,-13.2218,-13.2274,-13.382,-13.6734,-13.7339,-13.7701,-13.8244,-13.8667,-13.9022,-13.9198,-14.0017,-14.0235,-13.9658,-14.0145,-14.0131,-13.95,-13.9166,-13.8572,-13.7383,-13.7866,-13.8129,-13.8085,-13.8555,-13.9094,-13.9551,-14.0156,-14.0303,-13.9959,-14.1182,-14.2099,-14.2672,-14.313,-14.3856,-14.4692,-14.3568,-14.3231,-14.3657,-14.2792,-14.2284,-14.2449,-14.2539,-14.2467,-14.2218,-14.1647,-14.0915,-14.0337,-14.0127,-14.0032,-13.9685,-13.9582,-13.9412,-13.885,-13.8275,-13.8236,-13.8665,-13.8626,-13.8548,-13.8782,-13.8899,-13.8665,-13.7728,-13.8158,-13.8158,-13.7377,-13.7221,-13.7221,-13.7572,-13.7377,-13.7143,-13.7489,-13.746,-13.6795,-13.5415,-13.4572,-13.3911,-11.5755,-11.7645,-12.084,-12.3195,-12.4892,-12.4959,-12.5549,-12.6296,-12.6585,-12.7602,-12.9128,-12.943,-12.9491,-12.9603,-12.8996,-12.8631,-12.8565,-12.8002,-12.8035,-12.8499,-12.8101,-12.7704,-12.7791,-13.002,-13.1153,-13.1067,-13.2172,-13.2307,-13.1073,-12.9951,-12.9611,-13.0407,-13.0451,-13.0877,-13.1564,-13.1614,-13.1614,-13.158,-13.0993,-13.1076,-13.1894,-13.3166,-13.4789,-13.6951,-13.7846,-13.8244,-13.8317,-13.8317,-13.8583,-13.9198,-13.9314,-13.9236,-13.9045,-13.9605,-13.9835,-13.9364,-13.872,-13.8274,-13.8089,-13.8126,-13.8129,-13.8085,-13.8597,-13.8905,-13.9093,-13.9469,-13.9162,-13.7552,-13.843,-13.9462,-14.0799,-14.2137,-14.2901,-14.2705,-14.3231,-14.3225,-14.2749,-14.2494,-14.2225,-14.2246,-14.2371,-14.2157,-14.1538,-14.0687,-13.9944,-13.9266,-13.8668,-13.839,-13.8657,-13.8749,-13.8787,-13.8791,-13.8665,-13.8704,-13.8704,-13.8431,-13.8275,-13.8431,-13.8626,-13.8392,-13.7923,-13.7455,-13.7026,-13.6596,-13.6401,-13.6284,-13.6323,-13.6206,-13.6011,-13.6279,-13.6864,-13.6228,-13.4734,-13.4358,-13.3823,-11.5643,-11.7427,-11.9653,-12.1702,-12.3297,-12.4463,-12.5058,-12.5451,-12.6102,-12.6777,-12.7602,-12.8819,-12.916,-12.8866,-12.9723,-12.9824,-12.9393,-12.9128,-12.8896,-12.8764,-12.8896,-12.8499,-12.7857,-12.9413,-13.0286,-13.0252,-13.0401,-12.9963,-12.9095,-12.854,-12.8717,-12.9475,-12.9692,-13.0325,-13.1289,-13.1212,-13.1442,-13.2269,-13.1683,-13.2102,-13.3627,-13.429,-13.5609,-13.7724,-13.8136,-13.8317,-13.8317,-13.8317,-13.8402,-13.8643,-13.8964,-13.9424,-13.9931,-14.0808,-14.0551,-13.922,-13.945,-13.9129,-13.7754,-13.7903,-13.8328,-13.8541,-13.8726,-13.9251,-13.9831,-13.9784,-13.9118,-13.8163,-13.759,-13.7972,-13.8545,-13.9959,-14.1334,-14.2055,-14.2076,-14.2235,-14.2404,-14.2214,-14.1971,-14.2134,-14.2039,-14.15,-14.0687,-13.9798,-13.9031,-13.8415,-13.8059,-13.8051,-13.8302,-13.8451,-13.854,-13.8639,-13.8353,-13.8158,-13.8782,-13.8626,-13.8431,-13.8431,-13.8353,-13.7611,-13.7026,-13.683,-13.644,-13.5698,-13.5464,-13.5581,-13.5698,-13.5971,-13.5659,-13.5308,-13.5893,-13.5425,-13.402,-13.38,-13.3483,-11.5643,-11.7318,-11.9045,-12.0767,-12.2421,-12.4132,-12.4892,-12.4991,-12.5647,-12.6134,-12.6681,-12.8167,-12.8834,-12.8964,-13.0205,-13.0652,-13.0122,-12.9691,-12.9161,-12.8698,-12.8731,-12.8201,-12.7638,-12.8731,-12.9327,-12.8996,-12.8333,-12.7951,-12.8,-12.7384,-12.7654,-12.8616,-12.8746,-12.9579,-13.0851,-13.0715,-13.117,-13.2158,-13.1959,-13.2702,-13.4436,-13.4854,-13.5838,-13.7501,-13.8097,-13.8425,-13.8679,-13.8715,-13.8679,-13.8776,-13.9321,-13.9874,-14.0424,-14.0895,-14.0603,-13.9264,-13.9553,-13.9314,-13.7791,-13.7903,-13.8422,-13.8839,-13.8892,-13.9328,-14.0019,-13.9539,-13.8736,-13.7781,-13.7131,-13.6749,-13.7284,-13.843,-13.9806,-14.1105,-14.1296,-14.147,-14.1991,-14.1919,-14.188,-14.1821,-14.1621,-14.0936,-13.9914,-13.9217,-13.8545,-13.7796,-13.7737,-13.7896,-13.7885,-13.7967,-13.8085,-13.8257,-13.7601,-13.7553,-13.7973,-13.808,-13.8007,-13.8007,-13.8275,-13.7377,-13.6323,-13.6128,-13.5698,-13.4956,-13.4722,-13.4917,-13.523,-13.5581,-13.5347,-13.4761,-13.4644,-13.4449,-13.3736,-13.3368,-13.3083,-11.5643,-11.7209,-11.9045,-12.0527,-12.2011,-12.38,-12.4761,-12.4563,-12.4761,-12.5223,-12.5973,-12.7223,-12.8102,-12.9338,-13.019,-13.0762,-13.0586,-12.9493,-12.8896,-12.8731,-12.7472,-12.6909,-12.6909,-12.8201,-12.8565,-12.8035,-12.7108,-12.7406,-12.8354,-12.6849,-12.6612,-12.757,-12.7771,-12.8596,-13.0396,-13.0225,-13.0696,-13.1437,-13.1557,-13.2358,-13.3788,-13.4612,-13.5637,-13.6893,-13.7886,-13.8751,-13.9476,-13.9476,-13.9439,-13.9584,-14.02,-14.0543,-14.0297,-13.9876,-13.9386,-13.9441,-13.9005,-13.8539,-13.8176,-13.8089,-13.8272,-13.8831,-13.8889,-13.8911,-13.9003,-13.8851,-13.8125,-13.6826,-13.6405,-13.6405,-13.7208,-13.801,-13.8889,-13.9653,-14.099,-14.1635,-14.1305,-14.1457,-14.1701,-14.1482,-14.1268,-14.061,-13.9372,-13.8715,-13.831,-13.7771,-13.766,-13.7581,-13.7216,-13.7174,-13.727,-13.7265,-13.6971,-13.6887,-13.7214,-13.7499,-13.746,-13.746,-13.789,-13.7611,-13.605,-13.5386,-13.4996,-13.4371,-13.4137,-13.4293,-13.4371,-13.4644,-13.4449,-13.402,-13.3863,-13.3551,-13.3033,-13.2632,-13.2737,-11.5031,-11.5643,-11.7318,-11.8294,-11.9122,-12.1908,-12.2554,-12.1598,-12.2554,-12.3265,-12.3738,-12.467,-12.6232,-12.8228,-12.9371,-13.0223,-13.0818,-12.989,-12.946,-12.9195,-12.7936,-12.7505,-12.8002,-12.8466,-12.8863,-12.9029,-12.8896,-12.8399,-12.7869,-12.7207,-12.6982,-12.6841,-12.65,-12.7418,-12.929,-12.8564,-12.8808,-13.051,-13.0759,-13.1732,-13.362,-13.4541,-13.5838,-13.7699,-13.8639,-13.9512,-14.0272,-13.9802,-13.9802,-14.0272,-14.0562,-14.0407,-13.9926,-13.9946,-13.9591,-13.8674,-13.8597,-13.8245,-13.7688,-13.7483,-13.789,-13.8634,-13.8889,-13.9366,-14.0023,-14.0035,-13.9271,-13.7857,-13.7628,-13.7781,-13.7972,-13.8201,-13.8774,-13.95,-14.0608,-14.1291,-14.1043,-14.0967,-14.1046,-14.1196,-14.0339,-13.9411,-13.8869,-13.8405,-13.7864,-13.7593,-13.756,-13.7385,-13.6856,-13.676,-13.6726,-13.6461,-13.6246,-13.6053,-13.6399,-13.6509,-13.6388,-13.6487,-13.6898,-13.6992,-13.5625,-13.4917,-13.4449,-13.4059,-13.3824,-13.3707,-13.3785,-13.3746,-13.3707,-13.3278,-13.2966,-13.2536,-13.2029,-13.1862,-13.189,-11.4723,-11.4919,-11.6471,-11.7209,-11.7536,-12.0212,-12.0736,-12.0001,-12.084,-12.1391,-12.1568,-12.2399,-12.3981,-12.6104,-12.7662,-12.8867,-12.9581,-12.969,-12.9791,-12.9625,-12.8598,-12.83,-12.8664,-12.8698,-12.9261,-12.9923,-12.9658,-12.893,-12.8035,-12.7704,-12.724,-12.6498,-12.6146,-12.6767,-12.834,-12.7733,-12.8144,-12.9714,-13.0249,-13.1453,-13.321,-13.4328,-13.6003,-13.8211,-13.906,-13.979,-14.0573,-14.02,-14.02,-14.0598,-14.0707,-14.0562,-14.0381,-14.0459,-13.9851,-13.8876,-13.8584,-13.838,-13.7476,-13.7554,-13.7794,-13.8487,-13.8767,-13.9174,-13.9945,-14.0214,-13.973,-13.8698,-13.8354,-13.8507,-13.8774,-13.8851,-13.9233,-13.9997,-14.057,-14.1005,-14.111,-14.1083,-14.0854,-14.0764,-13.9991,-13.9101,-13.8366,-13.7941,-13.7477,-13.7477,-13.7477,-13.7078,-13.6505,-13.6234,-13.5868,-13.5454,-13.494,-13.5074,-13.5538,-13.5505,-13.5312,-13.5463,-13.5713,-13.5492,-13.4732,-13.4722,-13.4488,-13.402,-13.3707,-13.3707,-13.3746,-13.3707,-13.3629,-13.2926,-13.2185,-13.1794,-13.1404,-13.0896,-13.0847,-11.4723,-11.4919,-11.6361,-11.6881,-11.71,-11.8938,-11.9471,-11.9365,-11.9578,-11.9684,-11.9865,-12.0509,-12.1723,-12.3248,-12.5492,-12.6864,-12.7591,-12.903,-12.968,-12.9603,-12.9161,-12.8963,-12.8896,-12.8996,-12.9725,-13.0453,-12.9592,-12.8863,-12.8565,-12.8134,-12.7306,-12.671,-12.6664,-12.7007,-12.7836,-12.7821,-12.8089,-12.8919,-12.9827,-13.1176,-13.301,-13.3973,-13.5775,-13.8548,-13.9093,-13.9557,-14.026,-14.051,-14.0635,-14.0707,-14.0707,-14.0924,-14.1359,-14.1033,-14.0035,-13.8913,-13.8994,-13.8308,-13.7677,-13.7565,-13.8077,-13.8145,-13.8508,-13.8865,-13.9132,-13.9554,-13.9517,-13.8736,-13.8698,-13.8927,-13.9424,-13.9653,-14.0035,-14.0685,-14.0838,-14.1132,-14.1658,-14.1577,-14.0956,-14.0278,-13.997,-13.9372,-13.7786,-13.7554,-13.7515,-13.7438,-13.7399,-13.6672,-13.5834,-13.5323,-13.4933,-13.4407,-13.3921,-13.4097,-13.4538,-13.4544,-13.4371,-13.4421,-13.4646,-13.4521,-13.4286,-13.4381,-13.441,-13.3941,-13.3707,-13.3707,-13.3707,-13.3668,-13.32,-13.2341,-13.1716,-13.1287,-13.0662,-13.0038,-12.9921,-11.4723,-11.4723,-11.5255,-11.5338,-11.5532,-11.7209,-11.713,-11.628,-11.7427,-11.7862,-11.794,-11.8126,-11.9562,-12.1723,-12.3248,-12.4753,-12.6254,-12.8074,-12.9293,-12.9835,-13.0221,-12.9956,-12.9758,-13.0056,-13.0453,-13.0785,-13.0387,-12.9758,-12.8797,-12.8963,-12.8499,-12.7339,-12.7306,-12.7658,-12.8283,-12.7938,-12.7705,-12.8048,-12.886,-13.0277,-13.2047,-13.3108,-13.4872,-13.7535,-13.903,-13.9631,-13.9593,-14.0296,-14.0707,-14.0707,-14.0707,-14.049,-14.0272,-14.0019,-13.9247,-13.8039,-13.7653,-13.7359,-13.7007,-13.6871,-13.7247,-13.8075,-13.8235,-13.8643,-13.9515,-13.9733,-13.9634,-13.9446,-13.9806,-13.9997,-13.9844,-14.015,-14.0608,-14.0799,-14.0914,-14.1069,-14.1206,-14.0505,-13.9813,-13.9713,-13.8993,-13.8306,-13.7902,-13.7593,-13.7554,-13.7477,-13.7051,-13.6337,-13.5452,-13.4748,-13.4492,-13.3693,-13.3202,-13.3302,-13.346,-13.352,-13.3493,-13.3465,-13.3663,-13.3935,-13.3823,-13.3926,-13.3912,-13.3746,-13.3707,-13.3707,-13.3707,-13.3668,-13.277,-13.1833,-13.1443,-13.1014,-12.9725,-12.8905,-12.9023,-11.4723,-11.4723,-11.4723,-11.4723,-11.4806,-11.5755,-11.5532,-11.5031,-11.5643,-11.6169,-11.6169,-11.6169,-11.7289,-11.9274,-12.0583,-12.2307,-12.4181,-12.6353,-12.8003,-12.9243,-13.0341,-13.0586,-13.042,-13.0751,-13.0884,-13.0884,-13.0884,-13.0221,-12.9393,-12.9592,-12.9095,-12.8267,-12.8068,-12.83,-12.8532,-12.8333,-12.8035,-12.8143,-12.86,-12.9596,-13.0642,-13.218,-13.3918,-13.6145,-13.8106,-13.9231,-13.957,-14.0286,-14.0707,-14.0707,-14.0707,-14.049,-14.0055,-13.9657,-13.8788,-13.7266,-13.7263,-13.7172,-13.6556,-13.6551,-13.7009,-13.7397,-13.7703,-13.8776,-13.97,-13.9972,-13.9954,-14.0701,-14.0876,-14.0608,-14.0379,-14.0608,-14.1029,-14.1334,-14.1105,-14.1037,-14.127,-14.0823,-14.0326,-14.0065,-13.9605,-13.8947,-13.8637,-13.825,-13.8096,-13.7902,-13.7438,-13.6394,-13.5313,-13.4696,-13.4014,-13.3288,-13.2835,-13.2924,-13.3042,-13.307,-13.3214,-13.3126,-13.3278,-13.3449,-13.3593,-13.3676,-13.3644,-13.3668,-13.3668,-13.3668,-13.359,-13.3278,-13.2458,-13.1716,-13.1326,-13.0545,-12.9374,-12.9023,-12.8984,-11.4723,-11.4723,-11.4723,-11.4723,-11.4723,-11.4694,-11.4806,-11.4694,-11.4806,-11.4806,-11.4806,-11.4694,-11.5561,-11.6309,-11.8497,-11.9977,-12.1948,-12.4536,-12.659,-12.8356,-12.9851,-13.0785,-13.0586,-13.0785,-13.0884,-13.0884,-13.0884,-13.042,-12.9923,-12.9857,-12.9526,-12.9029,-12.8896,-12.8963,-12.9161,-12.8996,-12.8896,-12.8818,-12.8995,-12.9227,-12.9817,-13.1383,-13.3129,-13.4673,-13.6948,-13.8672,-13.9652,-14.0295,-14.0635,-14.0852,-14.0852,-14.0743,-14.0562,-13.9838,-13.8715,-13.7447,-13.7399,-13.724,-13.6197,-13.69,-13.7483,-13.7092,-13.7706,-13.8822,-13.9768,-13.9968,-14.0194,-14.152,-14.1454,-14.1373,-14.1258,-14.1182,-14.1258,-14.1602,-14.122,-14.1075,-14.121,-14.1496,-14.1389,-14.0941,-14.1066,-14.0738,-14.0184,-13.9488,-13.8869,-13.8366,-13.7748,-13.6742,-13.562,-13.4773,-13.4,-13.3148,-13.278,-13.2605,-13.2714,-13.2779,-13.29,-13.302,-13.3181,-13.3368,-13.351,-13.3619,-13.3583,-13.3556,-13.3512,-13.3434,-13.3317,-13.277,-13.2068,-13.1599,-13.117,-13.0311,-12.9452,-12.9764,-12.9881,-11.4723,-11.4723,-11.4723,-11.4723,-11.4723,-11.4723,-11.4723,-11.4723,-11.4723,-11.4723,-11.4723,-11.4723,-11.4806,-11.5226,-11.7615,-11.9575,-12.0929,-12.3596,-12.5711,-12.7602,-12.9875,-13.0486,-13.0321,-13.0586,-13.0884,-13.0884,-13.0884,-13.052,-13.0089,-13.0288,-13.0288,-12.9691,-12.999,-13.0387,-13.0288,-13.0155,-13.0089,-12.9658,-12.9591,-12.9561,-12.9744,-13.0808,-13.2351,-13.4099,-13.6263,-13.7998,-13.9074,-13.9565,-14.0319,-14.1287,-14.154,-14.1069,-14.0236,-14.02,-13.9005,-13.7194,-13.6977,-13.6928,-13.6237,-13.6685,-13.7514,-13.809,-13.7824,-13.8312,-14.0055,-13.9596,-13.9895,-14.1179,-14.2211,-14.2562,-14.2633,-14.2213,-14.1755,-14.1373,-14.1105,-14.0908,-14.0922,-14.0711,-14.0651,-14.0646,-14.0402,-14.0116,-14.0163,-14.0107,-13.9527,-13.8869,-13.8057,-13.7129,-13.6123,-13.5078,-13.415,-13.3376,-13.2971,-13.2779,-13.2567,-13.2642,-13.271,-13.2838,-13.3032,-13.3005,-13.3168,-13.3397,-13.3302,-13.3274,-13.3317,-13.3161,-13.2887,-13.2458,-13.1755,-13.1404,-13.1092,-13.0662,-13.035,-13.0623,-13.0389,-11.41,-11.4694,-11.4723,-11.4723,-11.4723,-11.4723,-11.4723,-11.4723,-11.4723,-11.4723,-11.4723,-11.4723,-11.4723,-11.4919,-11.702,-11.8774,-12.0807,-12.4298,-12.6633,-12.7937,-12.9644,-13.0321,-13.0321,-13.0354,-13.052,-13.0818,-13.0884,-13.0619,-13.0553,-13.0619,-13.0652,-13.0354,-13.0718,-13.052,-13.052,-13.0685,-13.042,-12.989,-12.9758,-12.969,-12.9594,-13.0546,-13.229,-13.4339,-13.6267,-13.7786,-13.8961,-13.9745,-14.05,-14.1214,-14.1649,-14.1359,-14.0272,-14.0091,-13.886,-13.7158,-13.7194,-13.723,-13.6843,-13.7095,-13.7857,-13.8452,-13.7832,-13.859,-13.9383,-13.9287,-13.9926,-14.1298,-14.2336,-14.2939,-14.3245,-14.2175,-14.1525,-14.1525,-14.1105,-14.0914,-14.0864,-14.0742,-14.0805,-14.1038,-14.1097,-14.1174,-14.1141,-14.0721,-14.0494,-13.9991,-13.8792,-13.7864,-13.7051,-13.5968,-13.4769,-13.3957,-13.3415,-13.301,-13.2662,-13.2547,-13.2548,-13.2657,-13.2815,-13.262,-13.253,-13.2711,-13.2928,-13.2907,-13.2887,-13.2614,-13.2302,-13.1872,-13.156,-13.1326,-13.1131,-13.1131,-13.1248,-13.1404,-13.0857,-11.3503,-11.4723,-11.4723,-11.4723,-11.4723,-11.4723,-11.4723,-11.4723,-11.4723,-11.4723,-11.4723,-11.4723,-11.4723,-11.5114,-11.6911,-11.8694,-12.1455,-12.5067,-12.7708,-12.7664,-12.9191,-12.9855,-13.0054,-12.9799,-12.9898,-13.0639,-13.0795,-13.0851,-13.0851,-13.0884,-13.0718,-13.0685,-13.0685,-13.0387,-13.0089,-13.0188,-13.0321,-13.0056,-12.989,-12.9592,-12.9271,-13.0247,-13.1903,-13.3404,-13.5765,-13.6868,-13.8071,-13.9211,-14.0381,-14.0743,-14.125,-14.1105,-14.0598,-14.0019,-13.8969,-13.7484,-13.8027,-13.8172,-13.7918,-13.8233,-13.8656,-13.8374,-13.8066,-13.8581,-13.9488,-13.9425,-14.0032,-14.1294,-14.2397,-14.2508,-14.2882,-14.2142,-14.164,-14.164,-14.1258,-14.0952,-14.0941,-14.1125,-14.1253,-14.1543,-14.1519,-14.1622,-14.163,-14.1357,-14.1285,-14.0881,-13.9604,-13.8521,-13.767,-13.6742,-13.5465,-13.4421,-13.3841,-13.3106,-13.268,-13.2487,-13.2527,-13.2509,-13.2615,-13.2345,-13.201,-13.1916,-13.2106,-13.239,-13.2341,-13.199,-13.1716,-13.1365,-13.117,-13.1131,-13.1443,-13.1716,-13.1951,-13.2185,-13.1365,-11.3532,-11.4723,-11.4723,-11.4723,-11.4723,-11.4723,-11.4723,-11.4723,-11.4723,-11.4723,-11.4723,-11.4723,-11.4723,-11.545,-11.8108,-12.0669,-12.3167,-12.6233,-12.727,-12.6983,-12.8422,-12.9422,-12.8981,-12.8759,-12.8989,-12.9663,-13.028,-13.0728,-13.0884,-13.0884,-13.0619,-13.0155,-13.0056,-12.989,-12.9559,-12.946,-12.9758,-13.0056,-12.9923,-12.9658,-12.9581,-12.9811,-13.0193,-13.1097,-13.3592,-13.5166,-13.6019,-13.7646,-13.9295,-14.049,-14.0164,-13.991,-13.9838,-14.0091,-13.9548,-13.8679,-13.8751,-13.9041,-13.9113,-13.9693,-14.0035,-13.9897,-13.9241,-13.9586,-14.0124,-13.9624,-13.999,-14.1171,-14.2116,-14.2168,-14.1596,-14.1532,-14.1569,-14.1334,-14.1067,-14.0876,-14.0908,-14.0973,-14.1094,-14.1398,-14.1609,-14.174,-14.1565,-14.135,-14.1052,-14.0455,-13.945,-13.8599,-13.7902,-13.7013,-13.5929,-13.5001,-13.415,-13.3376,-13.2641,-13.2525,-13.2468,-13.2334,-13.2329,-13.2123,-13.1746,-13.1229,-13.123,-13.1471,-13.1457,-13.117,-13.0896,-13.074,-13.1092,-13.1326,-13.1833,-13.2302,-13.2536,-13.2614,-13.2068,-11.2931,-11.461,-11.4723,-11.4723,-11.4723,-11.4723,-11.4723,-11.4723,-11.4723,-11.4723,-11.4723,-11.4723,-11.4723,-11.5561,-11.8324,-12.1486,-12.4184,-12.6168,-12.6614,-12.6571,-12.7531,-12.8278,-12.7949,-12.7754,-12.8415,-12.9076,-12.9622,-13.0106,-13.0762,-13.0884,-13.042,-12.9956,-12.9791,-12.9426,-12.8996,-12.9161,-12.9095,-12.9426,-12.9526,-12.9559,-12.9261,-12.9228,-12.9281,-13.0377,-13.1509,-13.3144,-13.4718,-13.5846,-13.7436,-13.8636,-13.9327,-13.9197,-13.9258,-13.9512,-13.9765,-13.9186,-13.9331,-13.9765,-13.9946,-14.0236,-14.0131,-14.041,-13.9764,-13.973,-14.0399,-14.0281,-14.0243,-14.0998,-14.1765,-14.1662,-14.0882,-14.0988,-14.0922,-14.0996,-14.0914,-14.0914,-14.0876,-14.0876,-14.1005,-14.1156,-14.1535,-14.1584,-14.117,-14.0934,-14.0605,-13.9991,-13.9101,-13.856,-13.8018,-13.7322,-13.6355,-13.5078,-13.4111,-13.3222,-13.2603,-13.2564,-13.2255,-13.2083,-13.1947,-13.1758,-13.1178,-13.0562,-13.0353,-13.0423,-13.032,-13.0199,-13.0116,-12.9921,-13.0701,-13.1443,-13.1599,-13.1911,-13.2692,-13.2887,-13.2185,-11.201,-11.4355,-11.4355,-11.4468,-11.4694,-11.4723,-11.4723,-11.4723,-11.4723,-11.4723,-11.4723,-11.4723,-11.4723,-11.5561,-11.8216,-12.1464,-12.4432,-12.5713,-12.6328,-12.6425,-12.6765,-12.7205,-12.7247,-12.7147,-12.7173,-12.8159,-12.835,-12.8981,-13.0242,-13.0354,-13.0023,-12.9625,-12.9526,-12.9062,-12.8366,-12.8731,-12.8466,-12.8565,-12.8631,-12.8963,-12.8631,-12.852,-12.8781,-12.9788,-13.0175,-13.1428,-13.2862,-13.4189,-13.553,-13.6849,-13.7843,-13.8464,-13.8509,-13.9077,-13.9584,-13.9729,-13.9765,-14.0272,-14.0852,-14.0816,-14.0852,-14.1012,-14.0071,-14.0105,-14.0643,-14.1044,-14.1062,-14.0664,-14.1092,-14.0897,-14.0024,-14.0086,-14.0449,-14.0782,-14.1029,-14.1105,-14.0952,-14.0876,-14.0876,-14.1125,-14.1515,-14.1258,-14.0673,-14.0471,-14.0202,-13.9179,-13.8366,-13.8328,-13.7864,-13.767,-13.6742,-13.5117,-13.3957,-13.299,-13.2525,-13.2525,-13.21,-13.1578,-13.1406,-13.1205,-13.0476,-12.9693,-12.9686,-12.9765,-12.9298,-12.914,-12.9101,-12.9535,-13.0481,-13.1106,-13.1136,-13.156,-13.2458,-13.2419,-13.1755,-11.0729,-11.3046,-11.3046,-11.3646,-11.4581,-11.4723,-11.4723,-11.4723,-11.4723,-11.4723,-11.4723,-11.4694,-11.4694,-11.5673,-11.8324,-12.084,-12.293,-12.5093,-12.6199,-12.62,-12.6421,-12.6548,-12.6489,-12.5848,-12.62,-12.7092,-12.7108,-12.8115,-12.9257,-12.9272,-12.8996,-12.883,-12.8797,-12.8631,-12.8201,-12.8168,-12.8101,-12.8333,-12.8101,-12.7836,-12.7737,-12.7737,-12.7533,-12.7751,-12.8586,-12.9749,-13.0646,-13.1988,-13.3554,-13.536,-13.5767,-13.6728,-13.802,-13.9077,-13.9838,-14.0345,-14.0743,-14.1214,-14.2264,-14.212,-14.183,-14.1504,-14.0831,-14.1048,-14.1355,-14.1827,-14.1294,-13.8272,-13.9743,-14.0308,-13.9663,-14.0192,-14.0759,-14.1292,-14.1716,-14.1449,-14.1143,-14.0876,-14.0876,-14.1037,-14.1398,-14.0669,-13.9992,-13.9891,-13.9682,-13.8599,-13.7786,-13.7825,-13.7786,-13.767,-13.7129,-13.5581,-13.4111,-13.3106,-13.268,-13.268,-13.2061,-13.1326,-13.0902,-13.065,-12.987,-12.927,-12.9283,-12.9194,-12.8704,-12.8681,-12.9062,-12.9696,-13.0494,-13.0802,-13.0862,-13.1443,-13.2224,-13.1872,-13.1443,-10.9433,-11.1894,-11.2558,-11.3046,-11.3646,-11.4355,-11.4723,-11.4723,-11.4723,-11.4723,-11.4723,-11.4723,-11.5226,-11.639,-11.8831,-12.0736,-12.2523,-12.4468,-12.5549,-12.5549,-12.5718,-12.5718,-12.552,-12.5263,-12.5522,-12.604,-12.6413,-12.6848,-12.793,-12.8599,-12.8532,-12.8134,-12.8035,-12.7803,-12.7836,-12.7604,-12.7472,-12.7406,-12.7174,-12.7008,-12.6975,-12.6975,-12.6843,-12.6544,-12.7435,-12.8121,-12.9037,-12.9942,-13.1758,-13.3624,-13.4642,-13.6246,-13.7788,-13.8995,-14.0019,-14.1287,-14.1359,-14.1721,-14.2228,-14.2047,-14.1975,-14.183,-14.125,-14.0852,-14.1385,-14.2079,-14.1561,-13.8403,-14.0015,-14.0449,-14.013,-14.1259,-14.1944,-14.2418,-14.2677,-14.1831,-14.1411,-14.1067,-14.0908,-14.11,-14.1171,-14.0565,-14.0104,-14.0036,-13.9771,-13.8792,-13.8134,-13.8096,-13.798,-13.7825,-13.709,-13.6084,-13.4614,-13.3338,-13.3067,-13.2912,-13.21,-13.1365,-13.0475,-13.0107,-12.9398,-12.893,-12.8909,-12.8897,-12.8631,-12.8758,-12.9119,-12.9305,-12.967,-13.013,-13.0584,-13.1014,-13.1443,-13.2107,-13.1599,-10.836,-11.0142,-11.1402,-11.1982,-11.2472,-11.3646,-11.4242,-11.4242,-11.4581,-11.4723,-11.4723,-11.4694,-11.545,-11.6632,-11.8037,-11.9683,-12.1671,-12.3311,-12.4337,-12.4698,-12.4892,-12.4959,-12.5058,-12.5026,-12.5194,-12.575,-12.5717,-12.6104,-12.6789,-12.7493,-12.7784,-12.7836,-12.7803,-12.7604,-12.7339,-12.7373,-12.7373,-12.6743,-12.6644,-12.6611,-12.6578,-12.6578,-12.6578,-12.6511,-12.6631,-12.7059,-12.8056,-12.8451,-12.9806,-13.2399,-13.3694,-13.5302,-13.7207,-13.9051,-14.0211,-14.1359,-14.1757,-14.2228,-14.2264,-14.2083,-14.1757,-14.1794,-14.1685,-14.1395,-14.0888,-14.1938,-14.1649,-13.8535,-13.9946,-14.0771,-14.1173,-14.2137,-14.3054,-14.3496,-14.3827,-14.2677,-14.1716,-14.1487,-14.1138,-14.1005,-14.1079,-14.113,-14.0703,-14.0451,-13.9898,-13.8964,-13.856,-13.8444,-13.8366,-13.8289,-13.767,-13.6858,-13.5349,-13.4034,-13.3415,-13.3028,-13.2216,-13.1404,-13.0514,-12.9702,-12.9115,-12.8634,-12.8456,-12.8397,-12.8476,-12.8842,-12.9262,-12.8993,-12.8763,-12.9496,-13.0077,-13.0077,-13.0467,-13.1287,-13.156,-10.7332,-10.7546,-10.8838,-10.9996,-11.1141,-11.2443,-11.2931,-11.316,-11.4242,-11.4581,-11.4723,-11.4694,-11.4806,-11.5333,-11.6526,-11.8196,-12.0076,-12.1157,-12.3061,-12.4436,-12.4892,-12.4892,-12.4892,-12.4797,-12.4674,-12.443,-12.4953,-12.5518,-12.59,-12.644,-12.7342,-12.8345,-12.765,-12.8002,-12.7903,-12.7472,-12.7141,-12.6644,-12.6511,-12.6511,-12.6511,-12.6511,-12.6511,-12.6544,-12.6578,-12.6896,-12.7546,-12.7392,-12.8273,-13.1391,-13.2335,-13.426,-13.6617,-13.8923,-14.0359,-14.1369,-14.2301,-14.2735,-14.2699,-14.2699,-14.2844,-14.2916,-14.2627,-14.183,-14.0743,-14.1359,-14.0598,-13.8932,-14.0071,-14.0805,-14.1402,-14.2364,-14.3878,-14.4412,-14.4458,-14.3526,-14.2638,-14.2022,-14.1673,-14.1132,-14.0986,-14.1087,-14.0987,-14.0634,-14.0393,-13.9505,-13.9488,-13.9372,-13.9295,-13.914,-13.8637,-13.7748,-13.62,-13.4924,-13.3918,-13.3299,-13.2719,-13.1713,-13.0669,-12.9799,-12.9024,-12.8585,-12.8119,-12.8416,-12.863,-12.9047,-12.9266,-12.8893,-12.878,-12.9266,-12.9569,-12.9569,-12.9686,-13.0311,-13.0467,-10.7211,-10.7211,-10.7787,-10.86,-10.9878,-11.1197,-11.2097,-11.2817,-11.3275,-11.4015,-11.4723,-11.4723,-11.4723,-11.5027,-11.6323,-11.7917,-11.9865,-12.1383,-12.3078,-12.4337,-12.4892,-12.4892,-12.4892,-12.4765,-12.4512,-12.414,-12.4727,-12.5048,-12.4877,-12.5715,-12.6628,-12.7253,-12.731,-12.7087,-12.7108,-12.724,-12.6843,-12.6644,-12.6511,-12.6511,-12.6511,-12.6511,-12.6511,-12.6544,-12.7074,-12.6975,-12.6975,-12.7141,-12.8087,-12.9396,-13.0774,-13.3284,-13.6015,-13.8532,-14.0431,-14.1731,-14.2699,-14.2989,-14.3097,-14.3061,-14.288,-14.2409,-14.2228,-14.1721,-14.0345,-14.0743,-14.0128,-13.9537,-14.0047,-14.1065,-14.2685,-14.3852,-14.489,-14.5315,-14.5082,-14.4267,-14.3331,-14.2633,-14.1793,-14.117,-14.1043,-14.1055,-14.0925,-14.0738,-14.0468,-14.0215,-14.0284,-14.0262,-14.0107,-13.9836,-13.9256,-13.8599,-13.709,-13.5659,-13.4614,-13.3918,-13.3299,-13.2061,-13.0862,-13.0051,-12.9256,-12.8364,-12.8055,-12.8416,-12.8621,-12.8781,-12.8794,-12.8641,-12.8752,-12.8998,-12.9101,-12.9101,-12.9296,-12.9608,-12.9686,-10.7211,-10.7211,-10.7211,-10.7667,-10.8627,-10.9906,-11.0935,-11.1779,-11.2558,-11.3532,-11.4694,-11.4723,-11.4723,-11.5085,-11.6235,-11.8037,-11.9743,-12.1352,-12.3109,-12.4269,-12.4892,-12.4892,-12.4892,-12.4765,-12.4512,-12.4203,-12.4594,-12.492,-12.479,-12.5738,-12.6593,-12.7028,-12.7014,-12.6988,-12.6909,-12.6611,-12.6511,-12.6511,-12.6511,-12.6511,-12.6511,-12.6511,-12.6511,-12.6544,-12.6942,-12.7141,-12.6975,-12.7074,-12.7558,-12.8856,-13.0396,-13.2647,-13.5316,-13.7939,-14.0326,-14.1832,-14.2808,-14.3061,-14.3097,-14.3025,-14.2699,-14.2156,-14.1975,-14.1105,-14.0164,-14.0019,-13.9584,-13.8788,-14.007,-14.1728,-14.3075,-14.3767,-14.4652,-14.506,-14.5816,-14.5194,-14.3721,-14.271,-14.1869,-14.1176,-14.1126,-14.1005,-14.0979,-14.0802,-14.0462,-14.0223,-14.0007,-14.0191,-14.0455,-14.0146,-13.9682,-13.8985,-13.8057,-13.6626,-13.5311,-13.4614,-13.3841,-13.2487,-13.1346,-13.0535,-12.969,-12.8775,-12.8058,-12.8126,-12.8307,-12.8397,-12.8476,-12.8515,-12.8515,-12.8564,-12.8793,-12.914,-12.9374,-12.9686,-12.9647,-10.7211,-10.7211,-10.7211,-10.7211,-10.7546,-10.8627,-10.9223,-10.9906,-11.1779,-11.3303,-11.4242,-11.4468,-11.4468,-11.4802,-11.5808,-11.7827,-11.9713,-12.1075,-12.2766,-12.4468,-12.4892,-12.4892,-12.4829,-12.4734,-12.4291,-12.4102,-12.4333,-12.4693,-12.4985,-12.5545,-12.6377,-12.7184,-12.7332,-12.7439,-12.7472,-12.6843,-12.6544,-12.6511,-12.6511,-12.6511,-12.6511,-12.6511,-12.6511,-12.6578,-12.6776,-12.7074,-12.7074,-12.7008,-12.7439,-12.834,-13.0339,-13.226,-13.4114,-13.7986,-14.0214,-14.1079,-14.2446,-14.3025,-14.3097,-14.3097,-14.2663,-14.1975,-14.1794,-14.0997,-13.991,-13.9476,-13.9295,-13.8462,-13.9439,-14.0253,-14.1372,-14.264,-14.3789,-14.4607,-14.5273,-14.5053,-14.3403,-14.2786,-14.1946,-14.1182,-14.099,-14.0908,-14.1005,-14.0919,-14.0516,-14.016,-13.9862,-13.9977,-14.0313,-14.0339,-13.9836,-13.9217,-13.8405,-13.6974,-13.5659,-13.5233,-13.4382,-13.2951,-13.1772,-13.0902,-13.0203,-12.9497,-12.8802,-12.8241,-12.8315,-12.87,-12.8633,-12.8515,-12.8515,-12.8553,-12.9071,-12.9452,-12.9647,-12.9686,-12.9491,-10.7211,-10.7211,-10.7211,-10.7211,-10.7304,-10.7667,-10.8268,-10.9342,-11.0847,-11.1894,-11.2357,-11.3046,-11.3389,-11.4069,-11.5963,-11.7947,-11.9774,-12.1475,-12.3203,-12.473,-12.4892,-12.4892,-12.4797,-12.4449,-12.3912,-12.3375,-12.3536,-12.3726,-12.3513,-12.4599,-12.5735,-12.6593,-12.754,-12.7683,-12.7108,-12.6578,-12.6511,-12.6511,-12.6511,-12.6511,-12.6511,-12.6511,-12.6544,-12.6544,-12.6909,-12.7074,-12.6975,-12.6909,-12.73,-12.7748,-12.9601,-13.1469,-13.3497,-13.724,-13.9433,-14.0982,-14.259,-14.3061,-14.3097,-14.3025,-14.2699,-14.2011,-14.1359,-14.0707,-13.9657,-13.8969,-13.8606,-13.8679,-13.9367,-14.0131,-14.1143,-14.1868,-14.2779,-14.3168,-14.3484,-14.3004,-14.2168,-14.2322,-14.2022,-14.1296,-14.0914,-14.0914,-14.0979,-14.0878,-14.0516,-14.0131,-13.98,-13.9335,-13.9484,-13.9914,-13.9798,-13.9217,-13.8405,-13.7051,-13.5929,-13.5075,-13.4168,-13.2874,-13.1906,-13.1192,-13.057,-13.0024,-12.9543,-12.8909,-12.8948,-12.8984,-12.8672,-12.8476,-12.8515,-12.8691,-12.9022,-12.9344,-12.953,-12.9374,-12.914,-10.7211,-10.7211,-10.7211,-10.7211,-10.7211,-10.7211,-10.7908,-10.9104,-11.0024,-11.0612,-11.1169,-11.1866,-11.2472,-11.3559,-11.5941,-11.8264,-12.0001,-12.2216,-12.3499,-12.4892,-12.4892,-12.4892,-12.4702,-12.4386,-12.4196,-12.3533,-12.3438,-12.3631,-12.3475,-12.3772,-12.5,-12.6418,-12.7418,-12.7199,-12.6776,-12.6743,-12.6776,-12.6677,-12.6511,-12.6511,-12.6511,-12.6511,-12.6511,-12.6644,-12.6809,-12.6975,-12.6776,-12.6843,-12.7041,-12.7211,-12.8519,-13.0643,-13.3189,-13.5987,-13.8691,-14.0891,-14.2482,-14.2953,-14.3097,-14.2699,-14.2228,-14.1468,-14.0961,-14.02,-13.9331,-13.8643,-13.8462,-13.8679,-13.9476,-13.9708,-14.0138,-14.0825,-14.1378,-14.1779,-14.199,-14.1602,-14.2058,-14.2273,-14.2333,-14.1569,-14.1182,-14.1105,-14.087,-14.0737,-14.0505,-14.0113,-13.9762,-13.9226,-13.8667,-13.8981,-13.9097,-13.8478,-13.7761,-13.6364,-13.5243,-13.4449,-13.3564,-13.268,-13.2061,-13.152,-13.0922,-13.0355,-12.9957,-12.9467,-12.8937,-12.8549,-12.8486,-12.842,-12.8433,-12.8475,-12.8615,-12.8947,-12.9305,-12.9145,-12.8837,-10.7211,-10.7211,-10.7211,-10.7211,-10.7211,-10.7211,-10.7908,-10.8985,-10.8985,-10.9698,-11.0729,-11.0729,-11.1634,-11.3417,-11.6404,-11.8711,-12.0391,-12.3366,-12.4363,-12.4892,-12.4892,-12.486,-12.4765,-12.4607,-12.4133,-12.4386,-12.4291,-12.3564,-12.3757,-12.4314,-12.5158,-12.5973,-12.6628,-12.6715,-12.6822,-12.7008,-12.7008,-12.671,-12.6511,-12.6511,-12.6511,-12.6511,-12.6511,-12.6578,-12.6644,-12.6644,-12.6578,-12.6644,-12.6644,-12.7299,-12.899,-13.0724,-13.3074,-13.5869,-13.8298,-14.0539,-14.2228,-14.2844,-14.2808,-14.2301,-14.1685,-14.1069,-14.0707,-13.9729,-13.8932,-13.8389,-13.8353,-13.8389,-13.886,-13.8643,-13.8656,-13.9277,-13.9935,-14.0486,-14.1014,-14.1417,-14.2116,-14.2361,-14.244,-14.2147,-14.1869,-14.1525,-14.0799,-14.0552,-14.0297,-13.9433,-13.9015,-13.8719,-13.8223,-13.7833,-13.7756,-13.7038,-13.626,-13.5443,-13.4493,-13.3859,-13.3367,-13.26,-13.2487,-13.2023,-13.1366,-13.0728,-13.0306,-12.9693,-12.8567,-12.8119,-12.8167,-12.8299,-12.8389,-12.8383,-12.8353,-12.8819,-12.9235,-12.8893,-12.8616,-10.7211,-10.7211,-10.7211,-10.7211,-10.7211,-10.7211,-10.7425,-10.7667,-10.7787,-10.8028,-10.8388,-10.9314,-11.1024,-11.3529,-11.6484,-11.9108,-12.1537,-12.3599,-12.4563,-12.4892,-12.4892,-12.4544,-12.4323,-12.4133,-12.3564,-12.3217,-12.309,-12.328,-12.2874,-12.3804,-12.4397,-12.4493,-12.602,-12.6475,-12.6835,-12.7207,-12.6942,-12.671,-12.6544,-12.6611,-12.6578,-12.6578,-12.6578,-12.6611,-12.6544,-12.6544,-12.6511,-12.6511,-12.6511,-12.6993,-12.7905,-12.9327,-13.1407,-13.4145,-13.6888,-14.0395,-14.2011,-14.288,-14.2337,-14.2011,-14.1504,-14.0707,-14.0272,-13.9403,-13.8643,-13.8317,-13.8317,-13.8425,-13.8715,-13.8751,-13.8498,-13.8799,-13.8782,-13.8769,-13.9322,-13.999,-14.0721,-14.1408,-14.1594,-14.2185,-14.1907,-14.1029,-14.0379,-14.0373,-13.9959,-13.8914,-13.8227,-13.8054,-13.7736,-13.7312,-13.6701,-13.6022,-13.5205,-13.4454,-13.3955,-13.3306,-13.3015,-13.2657,-13.2425,-13.2232,-13.1884,-13.1288,-13.0746,-12.9905,-12.8821,-12.8229,-12.7957,-12.8075,-12.8129,-12.809,-12.8094,-12.8649,-12.8982,-12.8662,-12.8574,-10.7211,-10.7211,-10.7211,-10.7211,-10.7211,-10.7211,-10.7211,-10.7211,-10.7211,-10.7211,-10.7304,-10.8028,-11.0266,-11.3471,-11.6095,-11.8864,-12.2216,-12.3932,-12.4892,-12.4892,-12.4892,-12.4449,-12.407,-12.3786,-12.347,-12.2869,-12.2616,-12.2932,-12.2685,-12.3103,-12.3754,-12.3928,-12.5647,-12.6211,-12.6616,-12.6843,-12.6876,-12.6644,-12.6578,-12.6743,-12.6776,-12.671,-12.6677,-12.6809,-12.671,-12.6578,-12.6544,-12.6544,-12.6544,-12.6597,-12.7333,-12.8861,-13.1281,-13.4324,-13.6978,-14.0159,-14.1214,-14.1721,-14.1468,-14.1395,-14.0961,-14.049,-14.0055,-13.9439,-13.8788,-13.8317,-13.8317,-13.8389,-13.8896,-13.9186,-13.8751,-13.8305,-13.7613,-13.6968,-13.7519,-13.815,-13.9055,-14.0048,-14.0845,-14.1745,-14.1334,-14.0379,-13.9959,-13.9997,-13.959,-13.8442,-13.7819,-13.7745,-13.732,-13.6795,-13.6108,-13.5352,-13.4497,-13.3654,-13.3176,-13.2728,-13.2396,-13.2061,-13.1795,-13.1718,-13.1873,-13.1413,-13.0512,-12.9797,-12.9115,-12.8489,-12.7797,-12.7807,-12.7832,-12.7805,-12.7836,-12.8215,-12.8503,-12.8463,-12.8512,-10.7211,-10.7211,-10.7211,-10.7211,-10.7211,-10.7211,-10.7211,-10.7211,-10.7211,-10.7211,-10.7211,-10.7211,-10.9559,-11.2874,-11.5403,-11.8376,-12.1506,-12.3901,-12.4892,-12.4892,-12.4892,-12.4512,-12.4007,-12.3786,-12.3375,-12.3343,-12.3185,-12.2774,-12.3127,-12.3167,-12.2996,-12.3552,-12.4464,-12.5443,-12.6438,-12.6611,-12.6644,-12.6578,-12.6578,-12.6743,-12.7108,-12.7041,-12.6809,-12.7207,-12.6975,-12.6644,-12.6578,-12.6611,-12.6644,-12.6836,-12.7737,-12.9241,-13.2145,-13.5562,-13.8083,-13.9501,-14.0547,-14.0852,-14.0888,-14.078,-14.0381,-14.0164,-14.02,-13.9584,-13.8896,-13.8643,-13.8679,-13.8425,-13.8751,-13.8498,-13.8063,-13.781,-13.7289,-13.64,-13.6308,-13.712,-13.8137,-13.9426,-14.0845,-14.1376,-14.0876,-13.9959,-13.9309,-13.9271,-13.8654,-13.7739,-13.7485,-13.7469,-13.6642,-13.6063,-13.548,-13.4685,-13.3859,-13.3023,-13.2409,-13.1978,-13.1708,-13.1394,-13.127,-13.1378,-13.1717,-13.1054,-13.0103,-12.9116,-12.8135,-12.8058,-12.765,-12.7579,-12.7502,-12.7527,-12.7621,-12.779,-12.7928,-12.797,-12.8212,-10.7211,-10.7211,-10.7211,-10.7211,-10.7211,-10.7211,-10.7211,-10.7211,-10.7211,-10.7211,-10.7211,-10.7425,-10.8966,-11.2187,-11.4735,-11.7701,-12.0792,-12.3032,-12.4563,-12.4761,-12.473,-12.422,-12.388,-12.3596,-12.3217,-12.2616,-12.2427,-12.2585,-12.2271,-12.1927,-12.2237,-12.3461,-12.4063,-12.4813,-12.6425,-12.6511,-12.6511,-12.6379,-12.6544,-12.6544,-12.6677,-12.6743,-12.6644,-12.6942,-12.6876,-12.6909,-12.7074,-12.7571,-12.7207,-12.7015,-12.8357,-13.0271,-13.2819,-13.6266,-13.7761,-13.8311,-14.007,-14.051,-14.049,-14.0454,-14.0381,-14.0128,-14.0019,-13.9439,-13.9113,-13.915,-13.8969,-13.8606,-13.8244,-13.781,-13.7339,-13.7158,-13.6832,-13.5947,-13.5165,-13.6239,-13.7313,-13.9006,-14.0693,-14.0672,-14.0319,-13.9653,-13.8927,-13.8233,-13.7584,-13.7357,-13.7454,-13.713,-13.5777,-13.4983,-13.4654,-13.3923,-13.3227,-13.2455,-13.1833,-13.1433,-13.1303,-13.1317,-13.1328,-13.1471,-13.1564,-13.0677,-12.9633,-12.8054,-12.7007,-12.7175,-12.728,-12.7135,-12.7127,-12.7226,-12.7372,-12.7557,-12.733,-12.725,-12.7618,-10.7211,-10.7211,-10.7211,-10.7211,-10.7211,-10.7211,-10.7211,-10.7211,-10.7211,-10.7211,-10.7211,-10.7425,-10.8847,-11.1495,-11.3979,-11.6942,-11.9788,-12.1743,-12.3467,-12.4301,-12.3986,-12.3671,-12.3361,-12.3248,-12.2869,-12.23,-12.2458,-12.2364,-12.1415,-12.1513,-12.2052,-12.3375,-12.3734,-12.4545,-12.6198,-12.6511,-12.6346,-12.6047,-12.6312,-12.6312,-12.6213,-12.6312,-12.671,-12.7008,-12.724,-12.7273,-12.7571,-12.8035,-12.7836,-12.7829,-12.8842,-13.1112,-13.3416,-13.5881,-13.7259,-13.8249,-13.9502,-14.0648,-14.0402,-14.0464,-14.0681,-14.0392,-14.0743,-14.0428,-13.9331,-13.9258,-13.8643,-13.828,-13.8317,-13.7955,-13.6542,-13.6035,-13.5564,-13.4777,-13.4598,-13.5119,-13.6703,-13.8507,-13.9819,-14.0522,-13.9952,-13.9042,-13.8278,-13.7322,-13.6743,-13.6399,-13.6615,-13.6343,-13.504,-13.3929,-13.3611,-13.3157,-13.246,-13.212,-13.1731,-13.1358,-13.1064,-13.1154,-13.1205,-13.114,-13.0946,-13.0204,-12.9155,-12.7963,-12.7118,-12.6837,-12.6898,-12.6775,-12.6768,-12.685,-12.7086,-12.7303,-12.6953,-12.6498,-12.6666,-10.7211,-10.7211,-10.7211,-10.7211,-10.7211,-10.7211,-10.7211,-10.7211,-10.7211,-10.7211,-10.7211,-10.7211,-10.8847,-11.065,-11.276,-11.5956,-11.8484,-12.0164,-12.2052,-12.279,-12.2547,-12.2965,-12.2892,-12.249,-12.2206,-12.2111,-12.2206,-12.1668,-12.0847,-12.1196,-12.1926,-12.3223,-12.4013,-12.4676,-12.5915,-12.6392,-12.6279,-12.5882,-12.5849,-12.5816,-12.5915,-12.6081,-12.671,-12.7207,-12.7538,-12.7571,-12.7803,-12.8201,-12.83,-12.8671,-12.9455,-13.1987,-13.426,-13.6304,-13.7104,-13.8292,-13.9153,-13.9966,-14.0341,-14.0964,-14.0783,-14.0737,-14.1379,-14.0945,-13.958,-13.8856,-13.8242,-13.776,-13.7796,-13.7375,-13.5963,-13.5057,-13.455,-13.4079,-13.414,-13.453,-13.6358,-13.7932,-13.8892,-13.993,-13.9401,-13.8492,-13.7819,-13.6832,-13.61,-13.5718,-13.5283,-13.4901,-13.4339,-13.3391,-13.2731,-13.2251,-13.1589,-13.1407,-13.1295,-13.1039,-13.0602,-13.0458,-13.0443,-13.0487,-13.0316,-12.9512,-12.8915,-12.8474,-12.7718,-12.6806,-12.6567,-12.6516,-12.6528,-12.6472,-12.6629,-12.6723,-12.6064,-12.5684,-12.5592,-10.7211,-10.7211,-10.7211,-10.7211,-10.7211,-10.7211,-10.7211,-10.7211,-10.7211,-10.7211,-10.7211,-10.7183,-10.776,-10.8186,-11.0944,-11.3243,-11.4818,-11.7377,-11.9288,-12.0274,-12.1406,-12.2489,-12.2475,-12.1386,-12.138,-12.1288,-12.1032,-12.0973,-12.072,-12.0974,-12.1704,-12.3121,-12.4112,-12.4902,-12.5857,-12.6025,-12.5888,-12.5425,-12.5313,-12.5346,-12.5219,-12.5584,-12.6412,-12.6909,-12.7273,-12.7472,-12.7903,-12.893,-12.8598,-12.88,-13.0024,-13.2736,-13.5141,-13.7045,-13.7749,-13.8162,-13.9066,-13.9708,-14.0348,-14.0578,-14.0283,-13.9491,-13.9707,-13.9226,-13.8291,-13.7987,-13.7249,-13.6174,-13.6189,-13.6337,-13.5347,-13.4876,-13.4369,-13.4007,-13.3821,-13.5049,-13.6592,-13.7218,-13.7769,-13.8484,-13.8706,-13.8334,-13.8175,-13.6991,-13.5648,-13.5228,-13.4801,-13.4312,-13.3203,-13.2515,-13.1865,-13.1438,-13.0853,-13.0449,-13.0262,-13.0278,-12.9994,-12.9818,-12.9657,-12.9648,-12.9399,-12.8814,-12.8328,-12.8164,-12.7255,-12.6185,-12.6057,-12.6157,-12.6017,-12.5957,-12.6132,-12.6027,-12.5329,-12.4835,-12.4677]},{"header":{"parameterUnit":"m.s-1","parameterCategory":1,"la1":31.0,"la2":29.5877,"lo1":-88.7671,"lo2":-86.6584,"dy":0.0162,"dx":0.0185,"nx":115,"ny":88,"refTime":"2024-09-11T12:00:00:Z","depth":0,"parameterNumber":3,"parameterNumberName":"V-component_of_WINDS"},"data":[0.0,0.0,0.0,0.0,0.0,0.0,0.0,0.0,0.0,0.0,0.0,0.0,0.0,0.0,0.0,0.0,0.0,0.0,0.0,0.0,0.0,0.0,0.0,0.0,0.0,0.0,0.0,0.0,0.0,0.0,0.0,0.0,0.0,0.0,0.0,0.0,0.0,0.0,0.0,0.0,0.0,0.0,0.0,0.0,0.0,0.0,0.0,0.0,0.0,0.0,0.0,0.0,0.0,0.0,0.0,0.0,0.0,0.0,0.0,0.0,0.0,0.0,0.0,0.0,0.0,0.0,0.0,0.0,0.0,0.0,0.0,0.0,0.0,0.0,0.0,0.0,0.0,0.0,0.0,0.0,0.0,0.0,0.0,0.0,0.0,0.0,0.0,0.0,0.0,0.0,0.0,0.0,0.0,0.0,0.0,0.0,0.0,0.0,0.0,0.0,0.0,0.0,0.0,0.0,0.0,0.0,0.0,0.0,0.0,0.0,0.0,0.0,0.0,0.0,0.0,0.0,0.0,0.0,0.0,0.0,0.0,0.0,0.0,0.0,0.0,0.0,0.0,0.0,0.0,0.0,0.0,0.0,0.0,0.0,0.0,0.0,0.0,0.0,0.0,0.0,0.0,0.0,0.0,0.0,0.0,0.0,0.0,0.0,0.0,0.0,0.0,0.0,0.0,0.0,0.0,0.0,0.0,0.0,0.0,0.0,0.0,0.0,0.0,0.0,0.0,0.0,0.0,0.0,0.0,0.0,0.0,0.0,0.0,0.0,0.0,0.0,0.0,0.0,0.0,0.0,0.0,0.0,0.0,0.0,0.0,0.0,0.0,0.0,0.0,0.0,0.0,0.0,0.0,0.0,0.0,0.0,0.0,0.0,0.0,0.0,0.0,0.0,0.0,0.0,0.0,0.0,0.0,0.0,0.0,0.0,0.0,0.0,0.0,0.0,0.0,0.0,0.0,0.0,0.0,0.0,0.0,0.0,0.0,0.0,0.0,0.0,0.0,0.0,0.0,0.0,0.0,0.0,0.0,0.0,0.0,0.0,0.0,0.0,0.0,0.0,0.0,0.0,0.0,0.0,0.0,0.0,0.0,0.0,0.0,0.0,0.0,0.0,0.0,0.0,0.0,0.0,0.0,0.0,0.0,0.0,0.0,0.0,0.0,0.0,0.0,0.0,0.0,0.0,0.0,0.0,0.0,0.0,0.0,0.0,0.0,0.0,0.0,0.0,0.0,0.0,0.0,0.0,0.0,0.0,0.0,0.0,0.0,0.0,0.0,0.0,0.0,0.0,0.0,0.0,0.0,0.0,0.0,0.0,0.0,0.0,0.0,0.0,0.0,0.0,0.0,0.0,0.0,0.0,0.0,0.0,0.0,0.0,0.0,0.0,0.0,0.0,0.0,0.0,0.0,0.0,0.0,0.0,0.0,0.0,0.0,0.0,0.0,0.0,0.0,0.0,0.0,0.0,0.0,0.0,0.0,0.0,0.0,0.0,0.0,0.0,0.0,0.0,0.0,0.0,0.0,0.0,0.0,0.0,0.0,0.0,0.0,0.0,0.0,0.0,0.0,0.0,0.0,0.0,0.0,0.0,0.0,0.0,0.0,0.0,0.0,0.0,0.0,0.0,0.0,0.0,0.0,0.0,0.0,0.0,0.0,0.0,0.0,0.0,0.0,0.0,0.0,0.0,0.0,0.0,0.0,0.0,0.0,0.0,0.0,0.0,0.0,0.0,0.0,0.0,0.0,0.0,0.0,0.0,0.0,0.0,0.0,0.0,0.0,0.0,0.0,0.0,0.0,0.0,0.0,0.0,0.0,0.0,0.0,0.0,0.0,0.0,0.0,0.0,0.0,0.0,0.0,0.0,0.0,0.0,0.0,0.0,0.0,0.0,0.0,0.0,0.0,0.0,0.0,0.0,0.0,0.0,0.0,0.0,0.0,0.0,0.0,0.0,0.0,0.0,0.0,0.0,0.0,0.0,0.0,0.0,0.0,0.0,0.0,0.0,0.0,0.0,0.0,0.0,0.0,0.0,0.0,0.0,0.0,0.0,0.0,0.0,0.0,0.0,0.0,0.0,0.0,0.0,0.0,0.0,0.0,0.0,0.0,0.0,0.0,0.0,0.0,0.0,0.0,0.0,0.0,0.0,0.0,0.0,0.0,0.0,0.0,0.0,0.0,0.0,0.0,0.0,0.0,0.0,0.0,0.0,0.0,0.0,0.0,0.0,0.0,0.0,0.0,0.0,0.0,0.0,0.0,0.0,0.0,0.0,0.0,0.0,0.0,0.0,0.0,0.0,0.0,0.0,0.0,0.0,0.0,0.0,0.0,0.0,0.0,0.0,0.0,0.0,0.0,0.0,0.0,0.0,0.0,0.0,0.0,0.0,0.0,0.0,0.0,0.0,0.0,0.0,0.0,0.0,0.0,0.0,0.0,0.0,0.0,0.0,0.0,0.0,0.0,0.0,0.0,0.0,0.0,0.0,0.0,0.0,0.0,0.0,0.0,0.0,0.0,0.0,0.0,0.0,0.0,0.0,0.0,0.0,0.0,0.0,0.0,0.0,0.0,0.0,0.0,0.0,0.0,0.0,0.0,0.0,0.0,0.0,0.0,0.0,0.0,0.0,0.0,0.0,0.0,0.0,0.0,0.0,0.0,0.0,0.0,0.0,0.0,0.0,0.0,0.0,0.0,0.0,0.0,0.0,0.0,0.0,0.0,0.0,0.0,0.0,0.0,0.0,0.0,0.0,0.0,0.0,0.0,0.0,0.0,0.0,0.0,0.0,0.0,0.0,0.0,0.0,0.0,0.0,0.0,0.0,0.0,0.0,0.0,0.0,0.0,0.0,0.0,0.0,0.0,0.0,0.0,0.0,0.0,0.0,0.0,0.0,0.0,0.0,0.0,0.0,0.0,0.0,0.0,0.0,0.0,0.0,0.0,0.0,0.0,0.0,0.0,0.0,0.0,0.0,0.0,0.0,0.0,0.0,0.0,0.0,0.0,0.0,0.0,0.0,0.0,0.0,0.0,0.0,0.0,0.0,0.0,0.0,0.0,0.0,0.0,0.0,0.0,0.0,0.0,0.0,0.0,0.0,0.0,0.0,0.0,0.0,0.0,0.0,0.0,0.0,0.0,0.0,0.0,0.0,0.0,0.0,0.0,0.0,0.0,0.0,0.0,0.0,0.0,0.0,0.0,0.0,0.0,0.0,0.0,0.0,0.0,0.0,0.0,0.0,0.0,0.0,0.0,0.0,0.0,0.0,0.0,0.0,0.0,0.0,0.0,0.0,0.0,0.0,0.0,0.0,0.0,0.0,0.0,0.0,0.0,0.0,0.0,0.0,0.0,0.0,0.0,0.0,0.0,0.0,0.0,0.0,0.0,0.0,0.0,0.0,0.0,0.0,0.0,0.0,0.0,0.0,0.0,0.0,0.0,0.0,0.0,0.0,0.0,0.0,0.0,0.0,0.0,0.0,0.0,0.0,0.0,0.0,0.0,0.0,0.0,0.0,0.0,0.0,0.0,0.0,0.0,0.0,0.0,0.0,0.0,0.0,0.0,0.0,0.0,0.0,0.0,0.0,0.0,0.0,0.0,0.0,0.0,0.0,0.0,0.0,0.0,0.0,0.0,0.0,0.0,0.0,0.0,0.0,0.0,0.0,0.0,0.0,0.0,0.0,0.0,0.0,0.0,0.0,0.0,0.0,0.0,0.0,0.0,0.0,0.0,0.0,0.0,0.0,0.0,0.0,0.0,0.0,0.0,0.0,0.0,0.0,0.0,0.0,0.0,0.0,0.0,0.0,0.0,0.0,0.0,0.0,0.0,0.0,0.0,0.0,0.0,0.0,0.0,0.0,0.0,0.0,0.0,0.0,0.0,0.0,0.0,0.0,0.0,0.0,0.0,0.0,0.0,0.0,0.0,0.0,0.0,0.0,0.0,0.0,0.0,0.0,0.0,0.0,0.0,0.0,0.0,0.0,0.0,0.0,0.0,0.0,0.0,0.0,0.0,0.0,0.0,0.0,0.0,0.0,0.0,0.0,0.0,0.0,0.0,0.0,0.0,0.0,0.0,0.0,0.0,0.0,0.0,0.0,0.0,0.0,0.0,0.0,0.0,0.0,0.0,0.0,0.0,0.0,0.0,0.0,0.0,0.0,0.0,0.0,0.0,0.0,0.0,0.0,0.0,0.0,0.0,0.0,0.0,0.0,0.0,0.0,0.0,0.0,0.0,0.0,0.0,0.0,0.0,0.0,2.2212,0.0,0.0,0.0,2.2464,0.0,0.0,0.0,0.0,0.0,0.0,0.0,0.0,0.0,0.0,0.0,0.0,0.0,0.0,0.0,0.0,0.0,0.0,0.0,0.0,0.0,0.0,0.0,0.0,0.0,0.0,0.0,0.0,0.0,0.0,0.0,0.0,0.0,0.0,0.0,0.0,0.0,0.0,0.0,0.0,0.0,0.0,0.0,0.0,0.0,0.0,0.0,0.0,0.0,0.0,0.0,0.0,0.0,0.0,0.0,0.0,0.0,0.0,0.0,0.0,0.0,0.0,0.0,0.0,0.0,0.0,0.0,0.0,0.0,0.0,0.0,0.0,0.0,0.0,0.0,0.0,0.0,0.0,0.0,0.0,0.0,0.0,0.0,0.0,0.0,0.0,0.0,0.0,0.0,0.0,0.0,0.0,0.0,0.0,0.0,0.0,0.0,0.0,0.0,0.0,0.0,0.0,0.0,0.0,0.0,0.0,0.0,0.0,0.0,0.0,2.2087,2.252,2.1837,2.1657,2.2003,0.0,0.0,0.0,0.0,0.0,0.0,0.0,0.0,0.0,0.0,0.0,0.0,0.0,0.0,0.0,0.0,0.0,0.0,0.0,0.0,0.0,0.0,0.0,0.0,0.0,0.0,0.0,0.0,0.0,0.0,0.0,0.0,0.0,0.0,0.0,0.0,0.0,0.0,0.0,0.0,0.0,0.0,0.0,0.0,0.0,0.0,0.0,0.0,0.0,0.0,0.0,0.0,0.0,0.0,0.0,0.0,0.0,0.0,0.0,0.0,0.0,0.0,0.0,0.0,0.0,0.0,0.0,0.0,0.0,0.0,0.0,0.0,0.0,0.0,0.0,0.0,0.0,0.0,0.0,0.0,0.0,0.0,0.0,0.0,0.0,0.0,0.0,0.0,0.0,0.0,0.0,0.0,0.0,0.0,0.0,0.0,0.0,0.0,0.0,0.0,0.0,0.0,0.0,0.0,0.0,0.0,0.0,0.0,0.0,0.0,0.0,0.0,2.1705,2.1657,2.2003,0.0,0.0,0.0,0.0,0.0,0.0,0.0,0.0,0.0,0.0,0.0,0.0,0.0,0.0,0.0,0.0,0.0,0.0,0.0,0.0,0.0,0.0,0.0,0.0,0.0,0.0,0.0,0.0,0.0,0.0,0.0,0.0,0.0,0.0,0.0,0.0,0.0,0.0,0.0,0.0,0.0,0.0,0.0,0.0,0.0,0.0,0.0,0.0,0.0,0.0,0.0,0.0,0.0,0.0,0.0,0.0,0.0,0.0,0.0,0.0,0.0,0.0,0.0,0.0,0.0,0.0,0.0,0.0,0.0,0.0,0.0,0.0,0.0,0.0,0.0,0.0,0.0,0.0,0.0,0.0,0.0,0.0,0.0,0.0,0.0,0.0,0.0,0.0,0.0,0.0,0.0,0.0,0.0,0.0,0.0,0.0,0.0,0.0,0.0,0.0,0.0,0.0,0.0,0.0,0.0,0.0,0.0,0.0,0.0,0.0,2.1977,2.1821,2.1642,0.0,2.3147,0.0,0.0,0.0,0.0,0.0,0.0,0.0,0.0,0.0,0.0,0.0,0.0,0.0,0.0,0.0,0.0,0.0,0.0,0.0,0.0,0.0,0.0,0.0,0.0,0.0,0.0,0.0,0.0,0.0,0.0,0.0,0.0,0.0,0.0,0.0,0.0,0.0,0.0,0.0,0.0,0.0,0.0,0.0,0.0,0.0,0.0,0.0,0.0,0.0,0.0,0.0,0.0,0.0,0.0,0.0,0.0,0.0,0.0,0.0,0.0,0.0,0.0,0.0,0.0,0.0,0.0,0.0,0.0,0.0,0.0,0.0,0.0,0.0,0.0,0.0,0.0,0.0,0.0,0.0,0.0,0.0,0.0,0.0,0.0,0.0,0.0,0.0,0.0,0.0,0.0,0.0,0.0,0.0,0.0,0.0,0.0,0.0,0.0,0.0,0.0,0.0,0.0,0.0,0.0,0.0,0.0,0.0,0.0,0.0,0.0,2.2095,2.133,2.1047,2.1764,0.0,0.0,0.0,0.0,0.0,0.0,0.0,0.0,0.0,0.0,0.0,0.0,0.0,0.0,0.0,0.0,0.0,0.0,0.0,0.0,0.0,0.0,0.0,0.0,0.0,0.0,0.0,0.0,0.0,0.0,0.0,0.0,0.0,0.0,0.0,0.0,0.0,0.0,0.0,0.0,0.0,0.0,0.0,0.0,0.0,0.0,0.0,0.0,0.0,0.0,0.0,0.0,0.0,0.0,0.0,0.0,0.0,0.0,0.0,0.0,0.0,0.0,0.0,0.0,0.0,0.0,0.0,0.0,0.0,0.0,0.0,0.0,0.0,0.0,0.0,0.0,0.0,0.0,0.0,0.0,0.0,0.0,0.0,0.0,0.0,0.0,0.0,0.0,0.0,0.0,0.0,0.0,0.0,0.0,0.0,0.0,0.0,0.0,0.0,0.0,0.0,0.0,0.0,0.0,0.0,0.0,0.0,0.0,0.0,0.0,2.2729,2.2055,2.1145,2.0784,2.1418,2.3049,0.0,0.0,0.0,0.0,0.0,0.0,0.0,0.0,0.0,0.0,0.0,0.0,0.0,0.0,0.0,0.0,0.0,0.0,0.0,0.0,0.0,0.0,0.0,0.0,0.0,0.0,0.0,0.0,0.0,0.0,0.0,0.0,0.0,0.0,0.0,0.0,0.0,0.0,0.0,0.0,0.0,0.0,0.0,0.0,0.0,0.0,0.0,0.0,0.0,0.0,0.0,0.0,0.0,0.0,0.0,0.0,0.0,0.0,0.0,0.0,0.0,0.0,0.0,0.0,0.0,0.0,0.0,0.0,0.0,0.0,0.0,0.0,0.0,0.0,0.0,0.0,0.0,0.0,0.0,0.0,0.0,0.0,0.0,0.0,0.0,0.0,0.0,0.0,0.0,0.0,0.0,0.0,0.0,0.0,0.0,0.0,0.0,0.0,0.0,0.0,0.0,0.0,0.0,0.0,0.0,0.0,0.0,0.0,2.2765,2.2315,2.1891,2.1464,2.0963,2.1187,0.0,0.0,0.0,0.0,0.0,0.0,0.0,0.0,0.0,0.0,0.0,0.0,0.0,0.0,0.0,0.0,0.0,0.0,0.0,0.0,0.0,0.0,0.0,0.0,0.0,0.0,0.0,0.0,0.0,0.0,0.0,0.0,0.0,0.0,0.0,0.0,0.0,0.0,0.0,0.0,0.0,0.0,0.0,0.0,0.0,0.0,0.0,0.0,0.0,0.0,0.0,0.0,0.0,0.0,0.0,0.0,0.0,0.0,0.0,0.0,0.0,0.0,0.0,0.0,0.0,0.0,0.0,0.0,0.0,0.0,0.0,0.0,0.0,0.0,0.0,0.0,0.0,0.0,0.0,0.0,0.0,0.0,0.0,0.0,0.0,0.0,0.0,0.0,0.0,0.0,0.0,0.0,0.0,0.0,0.0,0.0,0.0,0.0,0.0,0.0,0.0,0.0,0.0,0.0,0.0,0.0,0.0,0.0,0.0,2.2205,2.1307,2.1114,2.1596,2.1115,2.1302,0.0,0.0,0.0,0.0,0.0,0.0,0.0,0.0,0.0,0.0,0.0,0.0,0.0,0.0,0.0,0.0,0.0,0.0,0.0,0.0,0.0,0.0,0.0,0.0,0.0,0.0,0.0,0.0,0.0,0.0,0.0,0.0,0.0,0.0,0.0,0.0,0.0,0.0,0.0,0.0,0.0,0.0,0.0,0.0,0.0,0.0,0.0,0.0,0.0,0.0,0.0,0.0,0.0,0.0,0.0,0.0,0.0,0.0,0.0,0.0,0.0,0.0,0.0,0.0,0.0,0.0,0.0,0.0,0.0,0.0,0.0,0.0,0.0,0.0,0.0,0.0,0.0,0.0,0.0,0.0,0.0,0.0,0.0,0.0,0.0,0.0,0.0,0.0,0.0,0.0,0.0,0.0,0.0,0.0,0.0,0.0,0.0,0.0,0.0,0.0,0.0,0.0,0.0,0.0,0.0,0.0,0.0,0.0,0.0,2.1692,2.0753,2.065,2.1363,2.1122,2.1542,0.0,0.0,0.0,0.0,0.0,0.0,0.0,0.0,0.0,0.0,0.0,0.0,0.0,0.0,0.0,0.0,0.0,0.0,0.0,0.0,0.0,0.0,0.0,0.0,0.0,0.0,0.0,0.0,0.0,0.0,0.0,0.0,0.0,0.0,0.0,0.0,0.0,0.0,0.0,0.0,0.0,0.0,0.0,0.0,0.0,0.0,0.0,0.0,0.0,0.0,0.0,0.0,0.0,0.0,0.0,0.0,0.0,0.0,0.0,0.0,0.0,0.0,0.0,0.0,0.0,0.0,0.0,0.0,0.0,0.0,0.0,0.0,0.0,0.0,0.0,0.0,0.0,0.0,0.0,0.0,0.0,0.0,0.0,0.0,0.0,0.0,0.0,0.0,0.0,0.0,0.0,0.0,0.0,0.0,0.0,0.0,0.0,0.0,0.0,0.0,0.0,0.0,0.0,0.0,0.0,0.0,0.0,0.0,2.2614,2.1101,2.0788,2.0523,2.0609,2.121,2.178,0.0,0.0,0.0,0.0,0.0,0.0,0.0,0.0,0.0,0.0,0.0,0.0,0.0,0.0,0.0,0.0,0.0,0.0,0.0,0.0,0.0,0.0,0.0,0.0,0.0,0.0,0.0,0.0,0.0,0.0,0.0,0.0,0.0,0.0,0.0,0.0,0.0,0.0,0.0,0.0,0.0,0.0,0.0,0.0,0.0,0.0,0.0,0.0,0.0,0.0,0.0,0.0,0.0,0.0,0.0,0.0,0.0,0.0,0.0,0.0,0.0,0.0,0.0,0.0,0.0,0.0,0.0,0.0,0.0,0.0,0.0,0.0,0.0,0.0,0.0,0.0,0.0,0.0,0.0,0.0,0.0,0.0,0.0,0.0,0.0,0.0,0.0,0.0,0.0,0.0,0.0,0.0,0.0,0.0,0.0,0.0,0.0,0.0,0.0,0.0,0.0,0.0,0.0,0.0,0.0,0.0,0.0,0.0,0.0,2.0668,1.9992,1.9953,2.0671,2.0897,2.1542,0.0,0.0,0.0,0.0,0.0,0.0,0.0,0.0,0.0,0.0,0.0,0.0,0.0,0.0,0.0,0.0,0.0,0.0,0.0,0.0,0.0,0.0,0.0,0.0,0.0,0.0,0.0,0.0,0.0,0.0,0.0,0.0,0.0,0.0,0.0,0.0,0.0,0.0,0.0,0.0,0.0,0.0,0.0,0.0,0.0,0.0,0.0,0.0,0.0,0.0,0.0,0.0,0.0,0.0,0.0,0.0,0.0,0.0,0.0,0.0,0.0,0.0,0.0,0.0,0.0,0.0,0.0,0.0,0.0,0.0,0.0,0.0,0.0,0.0,0.0,0.0,0.0,0.0,0.0,0.0,0.0,0.0,0.0,0.0,0.0,0.0,0.0,0.0,0.0,0.0,0.0,0.0,0.0,0.0,0.0,0.0,0.0,0.0,0.0,0.0,0.0,0.0,0.0,0.0,0.0,0.0,0.0,0.0,0.0,1.6842,1.6816,1.7281,1.8142,1.8372,1.9793,2.2365,0.0,0.0,0.0,0.0,0.0,0.0,0.0,0.0,0.0,0.0,0.0,0.0,0.0,0.0,0.0,0.0,0.0,0.0,0.0,0.0,0.0,0.0,0.0,0.0,0.0,0.0,0.0,0.0,0.0,0.0,0.0,0.0,0.0,0.0,0.0,0.0,0.0,0.0,0.0,0.0,0.0,0.0,0.0,0.0,0.0,0.0,0.0,0.0,0.0,0.0,0.0,0.0,0.0,0.0,0.0,0.0,0.0,0.0,0.0,0.0,0.0,0.0,0.0,0.0,0.0,0.0,0.0,0.0,0.0,0.0,0.0,0.0,0.0,0.0,0.0,0.0,0.0,0.0,0.0,0.0,0.0,0.0,0.0,0.0,0.0,0.0,0.0,0.0,0.0,0.0,0.0,0.0,0.0,0.0,0.0,0.0,0.0,0.0,0.0,0.0,0.0,0.0,0.0,0.0,0.0,0.0,0.0,0.0,1.0295,1.1263,1.2271,1.3206,1.4145,1.6983,0.0,0.0,0.0,0.0,0.0,0.0,0.0,0.0,0.0,0.0,0.0,0.0,0.0,0.0,0.0,0.0,0.0,0.0,0.0,0.0,0.0,0.0,0.0,0.0,0.0,0.0,0.0,0.0,0.0,0.0,0.0,0.0,0.0,0.0,0.0,0.0,0.0,0.0,0.0,0.0,0.0,0.0,0.0,0.0,0.0,0.0,0.0,0.0,0.0,0.0,0.0,0.0,0.0,0.0,0.0,0.0,0.0,0.0,0.0,0.0,0.0,0.0,0.0,0.0,0.0,0.0,0.0,0.0,0.0,0.0,0.0,0.0,0.0,0.0,0.0,0.0,0.0,0.0,0.0,0.0,0.0,0.0,0.0,0.0,0.0,0.0,0.0,0.0,0.0,0.0,0.0,0.0,0.0,0.0,0.0,0.0,0.0,0.0,0.0,0.0,0.0,0.0,0.0,0.0,0.0,0.0,0.0,0.0,0.0,0.3094,0.1162,0.2172,0.6244,1.1299,1.4531,0.0,0.0,0.0,0.0,0.0,0.0,0.0,0.0,0.0,0.0,0.0,0.0,0.0,0.0,0.0,0.0,0.0,0.0,0.0,0.0,0.0,0.0,0.0,0.0,0.0,0.0,0.0,0.0,0.0,0.0,0.0,0.0,0.0,0.0,0.0,0.0,0.0,0.0,0.0,0.0,0.0,0.0,0.0,0.0,0.0,0.0,0.0,0.0,0.0,0.0,0.0,0.0,0.0,0.0,0.0,0.0,0.0,0.0,0.0,0.0,0.0,0.0,0.0,0.0,0.0,0.0,0.0,0.0,0.0,0.0,0.0,0.0,0.0,0.0,0.0,0.0,0.0,0.0,0.0,0.0,0.0,0.0,0.0,0.0,0.0,0.0,0.0,0.0,0.0,0.0,0.0,0.0,0.0,0.0,0.0,0.0,0.0,0.0,0.0,0.0,0.0,0.0,0.0,0.0,0.0,0.0,0.0,0.0,0.4118,-0.0397,-0.5093,-0.6306,-0.3577,0.5465,1.1349,0.0,0.0,0.0,0.0,0.0,0.0,0.0,0.0,0.0,0.0,0.0,0.0,0.0,0.0,0.0,0.0,0.0,0.0,0.0,0.0,0.0,0.0,0.0,0.0,0.0,0.0,0.0,0.0,0.0,0.0,0.0,0.0,0.0,0.0,0.0,0.0,0.0,0.0,0.0,0.0,0.0,0.0,0.0,0.0,0.0,0.0,0.0,0.0,0.0,0.0,0.0,0.0,0.0,0.0,0.0,0.0,0.0,0.0,0.0,0.0,0.0,0.0,0.0,0.0,0.0,0.0,0.0,0.0,0.0,0.0,0.0,0.0,0.0,0.0,0.0,0.0,0.0,0.0,0.0,0.0,0.0,0.0,0.0,0.0,0.0,0.0,0.0,0.0,0.0,0.0,0.0,0.0,0.0,0.0,0.0,0.0,0.0,0.0,0.0,0.0,0.0,0.0,0.0,0.0,0.0,0.0,0.0,0.0,-0.0394,-0.2015,-0.879,-1.2732,-1.315,-0.1326,0.7449,0.0,0.0,0.0,0.0,0.0,0.0,0.0,0.0,0.0,0.0,0.0,0.0,0.0,0.0,0.0,0.0,0.0,0.0,0.0,0.0,0.0,0.0,0.0,0.0,0.0,0.0,0.0,0.0,0.0,0.0,0.0,0.0,0.0,0.0,0.0,0.0,0.0,0.0,0.0,0.0,0.0,0.0,0.0,0.0,0.0,0.0,0.0,0.0,0.0,0.0,0.0,0.0,0.0,0.0,0.0,0.0,0.0,0.0,0.0,0.0,0.0,0.0,0.0,0.0,0.0,0.0,0.0,0.0,0.0,0.0,0.0,0.0,0.0,0.0,0.0,0.0,0.0,0.0,0.0,0.0,0.0,0.0,0.0,0.0,0.0,0.0,0.0,0.0,0.0,0.0,0.0,0.0,0.0,0.0,0.0,0.0,0.0,0.0,0.0,0.0,0.0,0.0,0.0,0.0,0.0,0.0,0.0,0.0,-0.2689,-0.7423,-1.1375,-1.3537,-1.3776,-0.3099,0.3492,0.0,0.0,0.0,0.0,0.0,0.0,0.0,0.0,0.0,0.0,0.0,0.0,0.0,0.0,0.0,0.0,0.0,0.0,0.0,0.0,0.0,0.0,0.0,0.0,0.0,0.0,0.0,0.0,0.0,0.0,0.0,0.0,0.0,0.0,0.0,0.0,0.0,0.0,0.0,0.0,0.0,0.0,0.0,0.0,0.0,0.0,0.0,0.0,4.1161,0.0,0.0,0.0,0.0,0.0,0.0,0.0,0.0,0.0,0.0,0.0,0.0,0.0,0.0,0.0,0.0,0.0,0.0,0.0,0.0,0.0,0.0,0.0,0.0,0.0,0.0,0.0,0.0,0.0,0.0,0.0,0.0,0.0,0.0,0.0,0.0,0.0,0.0,0.0,0.0,0.0,0.0,0.0,0.0,0.0,0.0,0.0,0.0,0.0,0.0,0.0,0.0,0.0,0.0,0.0,0.0,0.0,0.0,0.0,-0.4371,-0.9127,-1.3423,-1.5578,-1.5314,-0.9795,-0.3849,0.0,0.0,0.0,0.0,0.0,0.0,0.0,0.0,0.0,0.0,0.0,0.0,0.0,0.0,0.0,0.0,0.0,0.0,0.0,0.0,0.0,0.0,0.0,0.0,0.0,0.0,0.0,0.0,0.0,0.0,0.0,0.0,0.0,0.0,0.0,0.0,0.0,0.0,0.0,0.0,0.0,0.0,0.0,0.0,0.0,0.0,0.0,0.0,0.0,0.0,0.0,0.0,0.0,0.0,0.0,0.0,0.0,0.0,0.0,0.0,0.0,0.0,0.0,0.0,0.0,0.0,0.0,0.0,0.0,0.0,0.0,0.0,0.0,0.0,0.0,0.0,0.0,0.0,0.0,0.0,0.0,0.0,0.0,0.0,0.0,0.0,0.0,0.0,0.0,0.0,0.0,0.0,0.0,0.0,0.0,0.0,0.0,0.0,0.0,0.0,0.0,0.0,0.0,0.0,0.0,0.0,0.0,-0.121,-0.6083,-1.0561,-1.5183,-1.7757,-1.7892,-1.6968,-1.1149,0.013,0.0,0.0,0.0,0.0,0.0,0.0,0.0,0.0,0.0,0.0,0.0,0.0,0.0,0.0,0.0,0.0,0.0,0.0,0.0,0.0,0.0,0.0,0.0,0.0,0.0,0.0,0.0,0.0,0.0,0.0,0.0,0.0,0.0,0.0,0.0,0.0,0.0,0.0,3.5664,3.7081,0.0,0.0,0.0,0.0,0.0,0.0,0.0,0.0,4.1049,0.0,0.0,0.0,0.0,0.0,0.0,0.0,0.0,0.0,0.0,0.0,0.0,0.0,0.0,0.0,0.0,0.0,0.0,0.0,0.0,0.0,0.0,0.0,0.0,0.0,0.0,0.0,0.0,0.0,0.0,0.0,0.0,0.0,0.0,0.0,0.0,0.0,0.0,0.0,0.0,0.0,0.0,0.0,0.0,0.0,0.0,0.0,0.0,0.0,0.0,0.0,0.0,0.0,0.0,0.0,0.0,0.1833,-0.1898,-0.7827,-1.58,-1.7174,-1.8594,-2.0471,-1.7825,-1.2355,-0.4051,0.0,0.0,0.0,0.0,0.0,0.0,0.0,0.0,0.0,0.0,0.0,0.0,0.0,0.0,0.0,0.0,0.0,0.0,0.0,0.0,0.0,0.0,0.0,0.0,0.0,0.0,0.0,0.0,0.0,0.0,0.0,0.0,0.0,0.0,0.0,0.0,0.0,0.0,0.0,3.5274,3.6647,0.0,0.0,0.0,0.0,0.0,0.0,0.0,0.0,3.9636,0.0,0.0,0.0,0.0,0.0,0.0,0.0,0.0,0.0,0.0,0.0,0.0,0.0,0.0,0.0,0.0,0.0,0.0,0.0,0.0,0.0,0.0,0.0,0.0,0.0,0.0,0.0,0.0,0.0,0.0,0.0,0.0,0.0,0.0,0.0,0.0,0.0,0.0,0.0,0.0,0.0,0.0,0.0,0.0,0.0,0.0,0.0,0.0,0.0,0.0,0.0,0.0,0.0,0.0,0.0,-0.1045,-0.6164,-1.2076,-1.9076,-2.0754,-2.1972,-2.2836,-2.0673,-1.5267,0.0,0.0,0.0,0.0,0.0,0.0,0.0,0.0,0.0,0.0,0.0,0.0,0.0,0.0,0.0,0.0,0.0,0.0,0.0,0.0,0.0,0.0,0.0,0.0,0.0,0.0,0.0,0.0,0.0,0.0,0.0,0.0,0.0,0.0,0.0,0.0,0.0,0.0,0.0,0.0,3.3252,3.3794,3.0258,0.0,0.0,0.0,0.0,0.0,0.0,3.8264,3.8349,0.0,0.0,0.0,0.0,0.0,0.0,0.0,0.0,0.0,0.0,0.0,0.0,0.0,0.0,0.0,0.0,0.0,0.0,0.0,0.0,0.0,0.0,0.0,0.0,0.0,0.0,0.0,0.0,0.0,0.0,0.0,0.0,0.0,0.0,0.0,0.0,0.0,0.0,0.0,0.0,0.0,0.0,0.0,0.0,0.0,0.0,0.0,0.0,0.0,0.0,0.0,0.0,0.0,0.0,0.0,-0.3518,-1.0503,-1.686,-2.2271,-2.4377,-2.5523,-2.5834,-2.2737,-1.7134,0.0,0.0,0.0,0.0,0.0,0.0,0.0,0.0,0.0,0.0,0.0,0.0,0.0,0.0,0.0,0.0,0.0,0.0,0.0,0.0,0.0,0.0,0.0,0.0,0.0,0.0,0.0,0.0,0.0,0.0,0.0,0.0,0.0,0.0,0.0,0.0,0.0,0.0,0.0,0.0,0.0,3.0799,2.7699,3.0525,0.0,0.0,0.0,0.0,3.8177,3.6753,0.0,0.0,0.0,0.0,0.0,0.0,0.0,0.0,0.0,0.0,0.0,0.0,0.0,0.0,0.0,0.0,0.0,0.0,0.0,0.0,0.0,0.0,0.0,0.0,0.0,0.0,0.0,0.0,0.0,0.0,0.0,0.0,0.0,0.0,0.0,0.0,0.0,0.0,0.0,0.0,0.0,0.0,0.0,0.0,0.0,0.0,0.0,0.0,0.0,0.0,0.0,0.0,0.0,0.0,0.0,0.0,-0.4039,-1.2747,-2.0281,-2.6425,-2.6353,-2.7536,-2.9993,-2.1823,-1.5122,0.0,0.0,0.0,0.0,0.0,0.0,0.0,0.0,0.0,0.0,0.0,0.0,0.0,0.0,0.0,0.0,0.0,0.0,0.0,0.0,0.0,0.0,0.0,0.0,0.0,0.0,0.0,0.0,0.0,0.0,0.0,0.0,0.0,0.0,0.0,0.0,0.0,0.0,0.0,0.0,0.0,3.0196,2.6574,3.0004,3.3333,0.0,0.0,3.3554,3.4532,3.2101,0.0,0.0,0.0,0.0,0.0,0.0,0.0,0.0,0.0,0.0,0.0,0.0,0.0,0.0,0.0,0.0,0.0,0.0,0.0,0.0,0.0,0.0,0.0,0.0,0.0,0.0,0.0,0.0,0.0,0.0,0.0,0.0,0.0,0.0,0.0,0.0,0.0,0.0,0.0,0.0,0.0,0.0,0.0,0.0,0.0,0.0,0.0,0.0,0.0,0.0,0.0,0.0,0.0,0.0,0.0,-0.3155,-0.7233,-1.757,-2.5116,-2.929,-2.9176,-2.9681,-3.079,-2.1682,-1.4899,0.0,0.0,0.0,0.0,0.0,0.0,0.0,0.0,0.0,0.0,0.0,0.0,0.0,0.0,0.0,0.0,0.0,0.0,0.0,0.0,0.0,0.0,0.0,0.0,0.0,0.0,0.0,0.0,0.0,0.0,0.0,0.0,0.0,0.0,0.0,0.0,0.0,0.0,0.0,0.0,0.0,0.0,2.7085,2.8185,0.0,0.0,0.0,3.2419,3.515,0.0,0.0,0.0,0.0,0.0,0.0,0.0,0.0,0.0,0.0,0.0,0.0,0.0,0.0,0.0,0.0,0.0,0.0,0.0,0.0,0.0,0.0,0.0,0.0,0.0,0.0,0.0,0.0,0.0,0.0,0.0,0.0,0.0,0.0,0.0,0.0,0.0,0.0,0.0,0.0,0.0,0.0,0.0,0.0,0.0,0.0,0.0,0.0,0.0,0.0,0.0,0.0,0.0,0.0,0.0,0.0,0.0,-1.006,-2.2442,-2.9942,-3.2087,-3.1967,-3.1805,-3.1445,-2.329,0.0,0.0,0.0,0.0,0.0,0.0,0.0,0.0,0.0,0.0,0.0,0.0,0.0,0.0,0.0,0.0,0.0,0.0,0.0,0.0,0.0,0.0,0.0,0.0,0.0,0.0,0.0,3.3033,0.0,0.0,0.0,0.0,0.0,0.0,0.0,0.0,0.0,0.0,0.0,0.0,0.0,0.0,2.5709,2.7111,2.6718,2.6358,0.0,0.0,3.1217,3.32,2.8718,2.7525,0.0,0.0,0.0,0.0,0.0,0.0,0.0,0.0,0.0,0.0,0.0,0.0,0.0,0.0,0.0,0.0,0.0,0.0,0.0,0.0,0.0,0.0,0.0,0.0,0.0,0.0,0.0,1.3902,1.4774,1.7097,0.0,0.0,0.0,0.0,0.0,0.0,0.0,0.0,0.0,0.0,0.0,0.0,0.0,0.0,0.0,0.0,0.0,0.0,0.0,0.0,0.0,0.0,0.0,0.0,-0.9902,-1.2199,-2.6229,-3.4175,-3.5462,-3.4173,-3.3628,-3.4127,-2.8039,-2.137,0.0,0.0,0.0,0.0,0.0,0.0,0.0,0.0,0.0,0.0,0.0,0.0,0.0,0.0,0.0,0.0,0.0,0.0,0.0,0.0,0.0,0.0,0.0,0.0,0.0,0.0,0.0,0.0,0.0,0.0,0.0,0.0,0.0,0.0,0.0,0.0,0.0,0.0,0.0,0.0,0.0,2.5095,2.5489,2.6103,2.5197,0.0,2.6529,2.9496,2.5546,2.3317,2.434,3.1153,0.0,0.0,0.0,0.0,0.0,0.0,0.0,0.0,0.0,0.0,0.0,0.0,0.0,0.0,0.0,0.0,0.0,0.0,0.0,0.0,0.0,0.0,0.0,0.0,0.0,1.186,1.3208,1.4351,1.66,0.0,0.0,0.0,0.0,0.0,0.0,0.0,0.0,0.0,0.0,0.0,0.0,0.0,0.0,0.0,0.0,0.0,0.0,0.0,0.0,0.0,0.0,0.0,0.0,-1.1069,-1.3222,-2.7483,-3.5197,-3.5881,-3.4906,-3.4321,-3.4271,-2.8638,-2.2259,0.0,0.0,0.0,0.0,0.0,0.0,0.0,0.0,0.0,0.0,0.0,0.0,0.0,0.0,0.0,0.0,0.0,0.0,0.0,0.0,0.0,0.0,0.0,0.0,0.0,0.0,0.0,0.0,2.2449,2.2989,2.7043,0.0,0.0,0.0,0.0,0.0,0.0,0.0,0.0,0.0,0.0,2.4214,2.2114,2.2191,0.0,0.0,2.3083,2.5817,2.7012,2.4911,2.6018,3.4277,3.5297,0.0,0.0,0.0,0.0,0.0,0.0,0.0,0.0,0.0,0.0,0.0,0.0,0.0,0.0,0.0,0.0,0.0,0.0,0.0,0.0,0.0,0.0,0.0,0.0,0.0,0.0,1.4032,1.5829,0.0,0.0,0.0,0.0,0.0,0.0,0.0,0.0,0.0,0.0,0.0,0.0,0.0,0.0,0.0,0.0,0.0,0.0,0.0,0.0,0.0,0.0,0.0,0.0,-1.1991,-1.4433,-2.8697,-3.628,-3.6621,-3.5931,-3.5303,-3.4709,-3.0576,-2.5019,-1.8139,0.0,0.0,0.0,0.0,0.0,0.0,0.0,0.0,0.0,0.0,0.0,0.0,0.0,0.0,0.0,0.0,0.0,0.0,0.0,0.0,0.0,0.0,0.0,0.0,0.0,0.0,0.0,2.0566,2.1669,2.6547,0.0,0.0,0.0,0.0,0.0,0.0,0.0,0.0,0.0,0.0,2.2701,2.1406,2.1486,2.1544,2.1443,2.4057,2.6611,2.8422,2.7311,2.8234,3.4249,0.0,0.0,0.0,0.0,0.0,0.0,0.0,0.0,0.0,0.0,0.0,0.0,0.0,0.0,0.0,0.0,0.0,0.0,0.0,0.0,0.0,0.0,0.0,0.0,0.0,0.0,1.1753,1.3244,0.0,1.4084,1.3487,0.0,0.0,0.0,0.0,0.0,0.0,0.0,0.0,0.0,0.0,0.0,0.0,0.0,0.0,0.0,0.0,0.0,0.0,0.0,0.0,0.0,0.0,-1.3189,-1.6115,-3.0398,-3.804,-3.8277,-3.7402,-3.6746,-3.6299,-3.4613,-3.0727,-2.4578,0.0,0.0,0.0,0.0,0.0,0.0,0.0,0.0,0.0,0.0,0.0,0.0,0.0,0.0,0.0,0.0,0.0,0.0,0.0,0.0,0.0,0.0,0.0,0.0,0.0,0.0,3.0469,2.749,2.5175,0.0,0.0,0.0,0.0,0.0,0.0,0.0,0.0,0.0,3.0791,2.4244,2.0725,2.4322,2.5347,2.5493,2.5484,3.0505,3.293,2.8687,2.9828,3.0567,0.0,0.0,0.0,0.0,0.0,0.0,0.0,0.0,0.0,0.0,0.0,0.0,0.0,0.0,0.0,0.0,0.0,0.0,0.0,0.0,0.0,0.0,0.0,0.0,0.0,0.0,0.0,-0.0252,0.0127,0.0,0.0,0.0,0.0,0.0,0.0,0.0,0.0,0.0,0.0,0.0,-1.4233,-1.5323,0.0,0.0,0.0,0.0,0.0,0.0,0.0,0.0,0.0,0.0,0.0,0.0,-1.4611,-1.7539,-3.1548,-3.9015,-3.9235,-3.7914,-3.7027,-3.6881,-3.5207,-3.0691,-2.3356,0.0,0.0,0.0,0.2696,0.0,0.0,0.0,0.0,0.0,0.0,0.0,0.0,0.0,0.0,0.0,0.0,0.0,0.0,0.0,0.0,0.0,0.0,0.0,0.0,0.0,2.1612,0.0,0.0,0.0,0.0,0.0,0.0,0.0,0.0,0.0,0.0,3.1534,2.981,2.7206,2.6875,2.6485,2.5109,2.5131,2.4347,0.0,0.0,0.0,0.0,0.0,0.0,0.0,0.0,0.0,0.0,0.0,0.0,0.0,4.1856,4.3435,4.282,4.1493,4.0518,4.0838,0.0,0.0,0.0,0.0,0.0,0.0,0.0,0.0,0.0,0.0,0.0,0.0,0.0,0.0,-1.2868,-0.9328,-1.2945,0.0,0.0,0.0,0.0,0.0,0.0,0.0,0.0,-1.8207,-2.4506,-2.9062,-2.9757,-3.0724,-3.1382,-2.8047,-1.8175,0.0,0.0,0.0,0.0,0.0,0.0,0.0,0.0,-1.6443,-1.8943,-3.3202,-4.064,-4.0493,-3.9013,-3.8263,-3.8114,-3.6332,-3.2783,-2.7354,-2.2454,-1.6706,0.0,0.0,0.0,0.0,0.0,0.0,0.0,0.0,0.0,0.0,0.0,0.0,0.0,0.0,0.0,0.0,0.0,0.0,0.0,0.0,0.0,0.0,0.0,1.8152,0.0,0.0,0.0,0.0,0.0,0.0,0.0,0.0,0.0,2.9382,2.7943,2.6063,2.4028,2.5554,2.6836,2.698,0.0,0.0,0.0,0.0,0.0,0.0,0.0,3.3652,3.5329,3.442,3.291,3.0791,3.2406,3.4541,3.5957,0.0,0.0,4.1726,4.0825,3.9837,4.0119,3.9973,3.9907,4.0281,4.0281,4.0267,0.0,0.0,0.0,0.0,-1.8795,0.0,0.0,0.0,-3.2457,-2.5647,0.0,-2.7,0.0,0.0,0.0,0.0,-1.2797,-2.1578,0.0,0.0,-4.6604,-5.2114,-4.4367,-4.3853,-4.3962,-4.4022,-3.5168,-3.0785,-3.0664,-2.6184,-1.8488,0.0,0.0,0.0,0.0,0.0,-1.8855,-2.1489,-3.581,-4.2921,-4.2018,-4.1113,-4.0443,-3.9818,-3.818,-3.6942,-3.622,-3.1896,-2.8092,-2.442,-1.4037,0.0,0.0,0.0,0.0,0.0,0.0,0.0,0.0,0.0,0.0,0.0,0.0,0.0,0.0,0.0,0.0,0.0,0.0,0.0,0.0,1.615,0.0,0.0,0.0,0.0,0.0,0.0,0.0,0.0,0.0,2.7549,2.6811,2.3,2.0274,2.1902,0.0,0.0,0.0,0.0,2.8147,3.5892,3.7432,3.7277,3.7159,3.4903,3.1336,2.6265,0.0,0.0,2.3108,2.7782,3.1591,3.1881,3.3276,3.5846,4.0986,4.1414,4.1226,4.1017,4.0319,4.0074,4.0048,3.9837,3.9717,-4.9134,0.0,0.0,0.0,0.0,-3.1667,-3.6945,-4.7185,-4.6481,-4.4326,-4.136,-4.4826,0.0,0.0,0.0,0.0,0.0,0.0,-3.2596,-4.0013,-4.7017,-5.3023,-5.8408,-5.8866,-5.9218,-5.9571,-5.6756,-5.5421,-5.5529,-5.3207,-3.8487,-1.2137,0.0,0.0,0.0,0.0,-2.6481,-3.5431,-4.5096,-4.8471,-4.5253,-4.4355,-4.2721,-4.022,-3.9472,-3.8598,-3.7309,-3.5349,-3.2031,-2.7208,-2.2372,0.0,0.0,0.0,0.0,0.0,0.0,0.0,0.0,0.0,0.0,0.0,0.0,0.0,0.0,0.0,0.0,0.0,0.0,0.0,1.1597,0.9347,1.0554,0.0,0.0,0.0,0.0,0.0,0.0,0.0,0.0,0.0,1.6788,2.3132,2.7591,0.0,0.0,3.2316,3.4469,3.1639,2.9175,2.8718,2.8901,0.0,2.6066,2.7351,2.8202,2.6872,2.3671,2.148,2.2091,2.326,2.4865,2.785,3.0002,3.232,3.5326,3.5496,3.5489,3.6387,3.6634,3.692,3.7884,3.8055,3.7873,-6.7011,-5.9731,-4.7582,-4.469,-4.7884,-4.6035,-5.1879,-6.2869,-6.2598,-5.982,-5.5575,-6.0322,-5.3028,-3.6996,-3.7376,0.0,0.0,0.0,-4.5143,-5.4431,-5.5886,-6.0025,-6.6165,-6.7124,-6.7659,-6.7875,-6.7713,-6.7731,-6.7714,-6.213,-4.916,-2.9279,0.0,-1.7087,-2.1658,-2.8976,-3.6014,-4.269,-5.03,-5.2027,-4.767,-4.5513,-4.3515,-4.1355,-4.1002,-4.0368,-3.9567,-3.8788,-3.6607,-3.3002,-2.9033,-2.2636,0.0,0.0,0.0,0.0,0.0,0.0,0.0,0.0,0.0,0.0,0.0,1.3354,1.6621,0.0,0.0,0.0,0.4813,0.3844,0.3432,0.3332,0.0,0.0,0.0,0.0,0.0,0.0,0.0,1.9213,1.3909,1.0644,1.2822,2.0104,2.4371,2.205,2.5918,2.9422,3.0825,0.0,2.6147,2.5289,2.5344,2.4771,2.3119,2.35,2.3812,2.2525,2.0162,1.8555,1.901,1.9349,2.1025,2.4264,2.69,2.9173,3.1519,3.1458,3.1942,3.4739,3.5284,3.5643,3.7088,3.7211,3.6985,-8.1679,-7.9152,-5.5557,-5.1769,-6.1056,-6.0344,-6.6825,-7.7737,-7.8329,-7.1893,-6.1921,-7.287,-6.4761,-4.2763,-4.3217,0.0,-5.6395,-5.7059,-6.1251,-6.8544,-7.005,-7.0344,-6.9522,-7.0237,-7.0604,-7.0586,-7.0201,-7.0219,-6.9987,-5.9441,-5.3386,-5.2496,-4.9089,-4.3038,-3.502,-4.1934,-4.5796,-4.543,-5.272,-5.4219,-4.9584,-4.5497,-4.3329,-4.3022,-4.2381,-4.2298,-4.2478,-4.1922,-4.1162,-4.0013,-3.4184,-2.9264,-2.5332,0.0,0.0,0.0,0.0,0.0,0.0,0.0,0.0,0.0,0.0,0.0,0.0,0.0,0.0,-0.0123,-0.338,0.0,-0.789,-0.2045,0.0,0.0,0.0,0.6082,0.3178,0.2907,0.4329,0.7528,0.0,0.0,1.1819,1.4533,1.4024,0.784,1.3247,1.9013,2.2498,2.1259,2.085,2.4543,2.4849,2.4522,2.3605,2.1644,1.9025,1.6134,1.4805,1.5138,1.5355,1.6712,1.8994,2.1547,2.376,2.5899,2.8313,2.8833,3.0268,3.4466,3.5163,3.5458,3.683,3.7112,3.6974,-8.272,-8.1149,-7.4613,-7.3293,-7.5437,-7.5239,-7.697,-7.9757,-7.9881,-7.8011,-7.508,-7.7962,-7.5471,-6.9115,-6.8167,-6.8972,-7.0921,-7.0476,-7.0503,-7.1303,-7.1678,-7.1201,-6.9907,-7.0072,-7.0164,-7.0164,-7.0072,-7.0072,-6.9983,-6.7267,-6.1433,-5.3233,-5.2357,-4.8417,-4.1553,-4.2446,-4.6973,-5.4396,-5.6446,-5.603,-5.3052,-4.7314,-4.3991,-4.3511,-4.2996,-4.2384,-4.1934,-4.121,-4.0607,-4.0124,-3.7868,-3.3722,-2.7068,-1.5135,0.0,0.0,0.0,0.0,0.0,0.0,0.0,0.0,0.0,0.8528,1.2583,0.0,0.332,0.0,-0.5491,-1.0006,-0.9898,-0.8181,0.0,0.0,-0.164,-0.0686,-0.1512,-0.3915,-0.3083,0.301,0.1381,0.028,0.1839,0.6066,0.673,0.1198,1.1627,2.0675,2.2495,2.0054,1.8751,2.0436,1.8878,1.7153,1.7505,1.6688,1.5906,1.5017,1.4948,1.5006,1.5026,1.5536,1.6813,1.9167,2.0017,2.1903,2.5897,2.6447,2.7873,3.1412,3.3207,3.435,3.5479,3.6603,3.7297,-8.4438,-8.3711,-8.3457,-8.278,-8.1986,-8.1094,-8.073,-8.073,-8.0937,-8.0771,-8.0336,-8.0129,-7.9757,-7.9281,-7.8428,-7.7732,-7.7014,-7.6233,-7.5107,-7.3548,-7.2855,-7.2047,-7.1021,-7.0507,-7.0292,-7.0292,-7.0109,-7.0109,-7.0292,-7.0109,-6.6749,-6.0741,-6.0867,-5.777,-5.1433,-4.66,-4.7893,-5.5619,-5.4825,-5.4766,-5.5137,-4.8791,-4.4626,-4.3492,-4.1846,-4.0051,-3.7987,-3.7449,-3.6448,-3.4865,-3.3804,-3.0718,-2.4741,-1.3887,-0.5026,0.0,0.0,0.0,0.0,0.0,0.0,0.0,0.0,0.0,0.0,0.0,-0.3322,-0.4243,-1.0836,-1.4347,-1.2198,-1.1713,-1.07,-0.9183,-0.8653,-0.8973,-1.0324,-1.2301,-1.1767,-0.702,-0.7685,-0.8083,-0.6659,-0.2261,-0.0303,-0.3734,0.5263,1.294,1.53,1.4567,1.4465,1.5847,1.4584,1.3712,1.4522,1.483,1.494,1.4981,1.503,1.5075,1.5112,1.5124,1.5926,1.8299,1.8855,1.9829,2.3551,2.5093,2.6417,2.814,3.0682,3.2995,3.4923,3.5909,3.6456,-8.6377,-8.626,-8.626,-8.5421,-8.3852,-8.2201,-8.1327,-8.1226,-8.162,-8.1558,-8.1164,-8.0771,-8.0585,-8.0585,-8.0585,-7.9839,-7.8627,-7.8101,-7.7135,-7.5479,-7.4056,-7.3131,-7.2305,-7.1249,-7.0712,-7.0549,-7.0201,-7.0219,-7.0549,-7.0201,-6.9278,-6.7966,-6.7912,-6.5044,-5.9077,-5.0583,-4.8671,-5.3345,-5.1581,-5.2587,-5.616,-4.9396,-4.4844,-4.2875,-4.0381,-3.7418,-3.4273,-3.3795,-3.2073,-2.8875,-2.78,-2.5944,-2.2636,-1.2664,-0.5735,0.0,0.5399,0.0,0.0,0.0,0.0,0.0,0.0,0.0,0.0,-0.9259,-1.098,-1.3179,-1.7055,-1.8276,-1.5557,-1.4557,-1.4555,-1.5786,-1.5839,-1.6853,-1.9439,-1.9963,-1.9416,-1.7752,-1.6108,-1.4469,-1.245,-0.8971,-0.6277,-0.5805,-0.1857,0.3052,0.5967,0.8301,1.0149,1.1315,1.1808,1.2832,1.4398,1.4826,1.4916,1.501,1.5034,1.5079,1.5169,1.512,1.5866,1.7794,1.8205,1.9038,2.1394,2.3493,2.4907,2.5549,2.8218,3.1106,3.4116,3.502,3.5418,-8.7372,-8.626,-8.626,-8.5421,-8.4015,-8.3647,-8.2778,-8.1682,-8.1765,-8.1744,-8.1661,-8.1578,-8.1537,-8.1537,-8.1537,-8.1188,-8.0554,-8.0451,-7.9152,-7.7034,-7.6752,-7.5102,-7.2447,-7.2095,-7.1275,-7.0145,-7.0054,-7.0054,-7.0127,-7.0054,-6.5535,-5.6977,-5.6681,-5.4023,-4.8994,0.0,0.0,0.0,-5.378,-5.4023,-5.4674,-4.7625,-4.3123,-4.1959,-4.1584,0.0,-3.8049,-3.6403,-3.4654,-3.2539,-3.0804,0.0,0.0,0.0,0.0,0.0,0.0,0.0,0.0,0.0,0.0,0.0,-1.7773,-1.5601,-1.0995,-1.1807,-1.42,-1.7708,-1.9461,-2.104,-2.304,-2.1957,-2.1127,-2.138,-2.0153,-1.9564,-2.0267,-2.0311,-1.9659,-1.7818,-1.6244,-1.4504,-1.274,-0.8947,-0.6448,-0.6313,-0.3754,-0.0779,0.2041,0.5377,0.8159,0.9802,1.1169,1.2721,1.4506,1.4555,1.4502,1.4899,1.4952,1.5014,1.4987,1.5112,1.5063,1.5861,1.5628,1.633,1.8764,1.9533,2.0914,2.4625,2.5989,2.7888,3.2527,3.4346,3.5633,-8.9189,-8.8478,-8.8478,-8.7511,0.0,-8.5421,-8.4297,-8.2761,-8.2071,-8.1785,-8.1785,-8.1785,-8.1785,-8.1785,-8.1785,-8.1661,-8.1433,-8.1226,-8.0306,-7.8926,-7.8,-7.6091,-7.3402,-7.257,-7.1431,-7.0017,-7.0017,-7.0017,-7.0017,-7.0017,-6.7213,-6.1759,-6.1702,-6.0243,-5.7548,-5.7025,-5.7062,-5.7514,-5.6597,-5.6587,-5.734,-5.1661,-4.7356,-4.4831,-4.2448,0.0,0.0,0.0,0.0,0.0,0.0,0.0,0.0,0.0,0.0,-2.192,-1.7893,-1.7757,-2.2792,-2.4015,-2.5511,-2.7985,-2.6893,-2.3663,-1.7991,-2.0279,-2.2825,-2.4733,-2.5473,-2.5971,-2.6773,-2.5401,-2.397,-2.3178,-2.1603,-2.0452,-2.0359,-2.0474,-2.0161,-1.9018,-1.6841,-1.4974,-1.3984,-1.0591,-0.8378,-0.8095,-0.5965,-0.3429,-0.0939,0.2169,0.5213,0.8098,0.9924,1.132,1.2157,1.2392,1.274,1.3422,1.374,1.377,1.3845,1.3763,1.3551,1.2834,1.2616,1.2996,1.406,1.5828,1.7874,2.0234,2.2291,2.5037,2.9471,3.2372,3.4704,-9.0988,-9.0739,-9.0739,-8.9897,-8.8363,-8.6795,-8.5281,-8.347,-8.2356,0.0,0.0,-8.1785,-8.1785,-8.1785,-8.1703,-8.1682,-8.164,-8.1185,-8.073,-8.0134,-7.8622,-7.6794,-7.4813,-7.3402,-7.1896,-7.0558,-7.0197,-7.0054,-7.0127,-7.0054,-7.0017,-7.0017,-7.0017,-6.9815,-6.9412,-6.8623,-6.6277,-6.2489,-5.9596,-5.8764,-5.9931,-5.5868,-5.1777,-4.7801,-4.3836,-4.0115,-3.6756,-3.5079,-3.287,-3.002,-2.9262,-2.8329,-2.6736,-2.4703,-2.2994,-2.2,-2.0889,-2.3718,-3.1105,-3.1455,-3.3021,-3.7124,-3.3784,-2.9682,-2.5552,-2.8791,-3.0805,-3.0797,-3.0927,-3.0371,-2.9096,-2.7224,-2.5549,-2.3797,-2.2031,-2.0819,-2.0338,-2.0517,-2.0555,-1.9995,-1.7684,-1.5713,-1.5193,-1.2547,-1.0455,-1.0005,-0.8178,-0.5767,-0.296,0.0311,0.3708,0.6933,0.8606,0.9395,0.9927,1.0151,1.0528,1.1871,1.2037,1.2053,1.2024,1.1942,1.1452,1.0586,1.0054,1.0152,1.03,1.2732,1.5,1.5393,1.8243,2.1972,2.5427,2.9299,3.2737,-9.2431,-9.0739,-9.0739,-8.9897,-8.8363,-8.6817,-8.4578,-8.2071,-8.1928,-8.1785,-8.1785,-8.1785,-8.1785,-8.1785,-8.1371,-8.1206,-8.1164,-8.073,-8.0254,-7.9819,-7.9478,-7.8354,-7.6374,-7.4953,-7.3613,-7.2367,-7.0757,-7.0201,-7.0494,-7.0201,-7.0017,-7.0017,-7.0017,-6.9834,-6.9394,-6.8623,-6.7849,-6.7053,-6.2421,-5.9149,-5.7318,-5.3771,-5.039,-4.7518,-4.7144,-4.5392,-4.242,-4.0603,-3.8321,-3.5392,-3.3798,-3.4077,-3.6404,-3.5466,-3.6611,-3.9563,-3.9629,-4.0402,-4.2373,-4.2406,-4.1049,-3.8303,-3.5697,-3.3102,-3.0323,-3.0577,-3.0976,-3.0976,-3.1,-3.0849,-3.053,-2.9073,-2.7296,-2.5684,-2.3829,-2.2155,-2.0836,-2.0484,-2.0403,-2.024,-1.8515,-1.6774,-1.5302,-1.3371,-1.1635,-1.0388,-0.9268,-0.769,-0.3138,0.1397,0.492,0.6925,0.7519,0.8281,0.9099,0.9729,0.9761,1.0197,1.0242,1.0256,1.0363,1.0328,0.9998,0.9823,0.9466,0.944,0.9622,1.0048,1.1551,1.3078,1.5316,1.751,2.0324,2.4903,2.9946,-9.3347,-9.2296,-9.126,-9.0307,-8.9486,-8.7234,-8.5,-8.2903,-8.2071,-8.1785,-8.1765,-8.1537,-8.1433,-8.1392,-8.0937,-8.073,-8.073,-8.0502,-8.0171,-7.9757,-7.9985,-7.8879,-7.6873,-7.5707,-7.436,-7.293,-7.116,-7.0457,-7.0604,-7.0219,-7.0017,-7.0017,-7.0017,-6.9834,-6.9412,-6.8843,-6.844,-6.8202,-6.5649,-6.256,-5.9061,-5.7353,-5.476,-5.098,-5.009,-4.9001,-4.7546,-4.4964,-4.3009,-4.1685,-4.0246,-4.0075,-4.1673,-4.1663,-4.2429,-4.4176,-4.424,-4.4445,-4.5073,-4.3778,-4.1968,-3.9862,-3.6513,-3.3991,-3.2744,-3.1687,-3.1008,-3.1016,-3.1016,-3.1016,-3.1016,-2.9574,-2.8138,-2.7331,-2.4799,-2.278,-2.192,-2.0917,-2.0332,-2.0013,-1.8613,-1.7371,-1.654,-1.4923,-1.3193,-1.1654,-0.9754,-0.6593,-0.3136,0.0465,0.3693,0.557,0.6031,0.6326,0.7096,0.7136,0.7605,0.8334,0.8495,0.8488,0.8597,0.8568,0.8094,0.7331,0.7146,0.7126,0.7146,0.7888,0.8787,0.97,1.1361,1.3442,1.6881,2.2655,2.8857,-9.4633,-9.3725,-9.2161,-9.0988,-9.0034,-8.781,-8.5701,-8.3873,-8.2761,-8.2071,-8.1723,-8.1309,-8.1102,-8.104,-8.0523,-8.0316,-8.0378,-8.0192,-7.9964,-7.9778,-8.0109,-7.9162,-7.7494,-7.6322,-7.4987,-7.3502,-7.1694,-7.0824,-7.0842,-7.0402,-7.0109,-7.0035,-7.0017,-6.987,-6.9559,-6.9174,-6.8807,-6.8477,-6.8,-6.5438,-6.0959,-6.0949,-5.8866,-5.4331,-5.2629,-5.1661,-5.1212,-4.8669,-4.7093,-4.6655,-4.555,-4.5015,-4.4771,-4.4976,-4.5037,-4.4928,-4.4904,-4.4964,-4.4958,-4.3334,-4.1895,-4.1097,-3.73,-3.4643,-3.405,-3.2133,-3.0919,-3.0943,-3.0984,-3.1016,-3.0857,-2.9893,-2.8936,-2.845,-2.5562,-2.3513,-2.294,-2.1459,-2.0262,-1.9926,-1.887,-1.8137,-1.7495,-1.6348,-1.4754,-1.2419,-0.9723,-0.6551,-0.326,-0.0773,0.1391,0.4025,0.4962,0.5109,0.4942,0.5127,0.5598,0.6781,0.6781,0.6762,0.6724,0.6687,0.6378,0.5333,0.5016,0.5153,0.4999,0.5755,0.6661,0.7116,0.8312,1.0552,1.4559,2.033,2.6655,-9.737,-9.4125,-9.3749,-9.1733,-8.8914,-8.8363,-8.67,-8.4297,-8.3873,-8.3045,-8.1887,-8.1309,-8.1102,-8.0978,-8.0192,-8.0026,-8.0316,-7.9571,-7.9405,-7.9715,-7.9757,-7.9597,-7.9117,-7.7029,-7.5852,-7.5673,-7.2778,-7.1593,-7.1869,-7.1043,-7.0384,-7.0054,-7.0017,-6.9999,-6.9925,-6.9559,-6.9339,-6.9302,-6.855,-6.5704,-6.1151,-6.1445,-5.9456,-5.4538,-5.4463,-5.384,-5.261,-5.2178,-5.0796,-4.8375,-4.7793,-4.7082,-4.5886,-4.5616,-4.5423,-4.4952,-4.4904,-4.4819,-4.4638,-4.4657,-4.3557,-4.1249,-3.8815,-3.6473,-3.4315,-3.1895,-3.0602,-3.074,-3.0911,-3.0984,-3.1008,-3.0674,-3.0029,-2.8762,-2.6591,-2.4669,-2.3212,-2.1299,-2.006,-2.005,-1.9749,-1.9276,-1.7883,-1.7235,-1.5948,-1.3089,-1.1797,-0.8811,-0.3703,-0.2158,0.0,0.3527,0.4901,0.4912,0.4925,0.4939,0.5085,0.5211,0.5226,0.5211,0.5327,0.5323,0.5034,0.5002,0.4848,0.4844,0.4846,0.4998,0.5148,0.5599,0.6785,0.8689,1.2644,1.6938,2.1694,-9.9183,-9.737,-9.4898,-9.2273,-8.9874,-8.8914,-8.781,-8.6538,-8.4719,-8.3612,-8.2982,-8.1735,-8.0957,-8.0668,-8.0005,-7.984,-7.9985,-7.9633,-7.955,-7.9778,-8.0274,-8.0254,-7.9561,-7.8605,-7.8004,-7.7578,-7.5152,-7.4046,-7.392,-7.2536,-7.1026,-7.0179,-7.0017,-7.0017,-6.998,-6.9632,-6.943,-6.943,-6.91,-6.6431,-6.2069,-6.1527,-5.939,-5.557,-5.5123,-5.5,-5.456,-5.3672,-5.2507,-5.1265,-4.9449,-4.8007,-4.7245,-4.6173,-4.5544,-4.5169,-4.5133,-4.4952,-4.4542,-4.4759,-4.3765,-4.1189,-3.8808,-3.6419,-3.3985,-3.1538,-3.0204,-3.0293,-3.0537,-3.0699,-3.0699,-3.0699,-3.0457,-2.9784,-2.8077,-2.6132,-2.4643,-2.2683,-2.1127,-2.0194,-2.0039,-1.9728,-1.8939,-1.8111,-1.6481,-1.4234,-1.3107,-0.9845,-0.3836,-0.2453,-0.0306,0.35,0.4852,0.4853,0.4878,0.4885,0.4878,0.4872,0.4875,0.4864,0.484,0.4845,0.4855,0.4826,0.4822,0.4829,0.4845,0.4831,0.4823,0.5129,0.6027,0.7782,0.9359,1.3464,1.7839,-10.0642,-9.9465,-9.5691,-9.27,-9.058,-8.9623,-8.8914,-8.8225,-8.612,-8.486,-8.3852,-8.2547,-8.1443,-8.0585,-8.0109,-7.9902,-7.9902,-7.9778,-7.9798,-7.9964,-8.0502,-8.0357,-7.9762,-7.9397,-7.9106,-7.8518,-7.7008,-7.6055,-7.5638,-7.3825,-7.2143,-7.0859,-7.0591,-7.0448,-6.998,-6.9724,-6.9595,-6.9577,-6.9504,-6.7375,-6.3597,-6.2208,-5.958,-5.5939,-5.5488,-5.5635,-5.5854,-5.4797,-5.3888,-5.3433,-5.1135,-4.9488,-4.8771,-4.7232,-4.6039,-4.5326,-4.5218,-4.5025,-4.4638,-4.4795,-4.3718,-4.1067,-3.8587,-3.6134,-3.3664,-3.1232,-2.9822,-2.9749,-3.0009,-3.0204,-3.0326,-3.0423,-3.0578,-3.059,-2.8883,-2.7355,-2.6139,-2.4055,-2.2059,-2.0971,-2.035,-2.0022,-1.9829,-1.8805,-1.7458,-1.5679,-1.3956,-1.056,-0.4725,-0.2741,-0.076,0.3939,0.4829,0.4827,0.4842,0.4841,0.4838,0.4846,0.485,0.4842,0.481,0.4825,0.4825,0.4797,0.4792,0.4792,0.4804,0.4797,0.4789,0.4951,0.5701,0.6571,0.6801,1.0739,1.4075,-10.1962,-9.9594,-9.5691,-9.2834,-9.0739,-9.058,-8.976,-8.8639,-8.8225,-8.6678,-8.4459,-8.3852,-8.2892,-8.1182,-8.0606,-8.0378,-8.0336,-7.9985,-8.0005,-8.0295,-8.0047,-7.9798,-7.9659,-7.9093,-7.8805,-7.8948,-7.7855,-7.6773,-7.5866,-7.4839,-7.3704,-7.2286,-7.2125,-7.1431,-7.0323,-6.998,-6.998,-6.9962,-6.965,-6.8234,-6.6119,-6.3517,-6.0188,-5.6028,-5.5693,-5.5854,-5.5884,-5.5884,-5.5114,-5.3433,-5.3129,-5.2231,-5.0608,-4.8923,-4.7297,-4.5618,-4.5073,-4.4928,-4.4868,-4.488,-4.3718,-4.1067,-3.8436,-3.6085,-3.3233,-3.1079,-2.9739,-2.9238,-2.9424,-2.9644,-2.9928,-3.0212,-3.0375,-3.017,-2.8978,-2.8002,-2.7586,-2.4645,-2.2685,-2.2053,-2.096,-1.9979,-1.9892,-1.9772,-1.8579,-1.71,-1.5493,-1.1955,-0.6054,-0.333,-0.0606,0.318,0.4842,0.4844,0.4844,0.4834,0.4829,0.4834,0.4841,0.4833,0.4816,0.48,0.4785,0.477,0.4763,0.4759,0.476,0.4756,0.475,0.4908,0.4929,0.5204,0.5441,0.8218,1.1267,-10.2088,-9.985,-9.711,-9.4657,-9.27,-9.126,-9.0444,-8.9897,-8.8914,-8.7949,-8.6678,-8.486,-8.3478,-8.2492,-8.1651,-8.1123,-8.0854,-8.0688,-8.0543,-8.0461,-8.0543,-8.0295,-7.97,-8.0083,-8.0231,-8.021,-7.9519,-7.8283,-7.6613,-7.6094,-7.5254,-7.3627,-7.2445,-7.1869,-7.1655,-7.0319,-6.9889,-7.0329,-7.0017,-6.8037,-6.4634,-6.3335,-6.0555,-5.5994,-5.581,-5.5884,-5.5884,-5.5884,-5.5567,-5.4963,-5.404,-5.3171,-5.2492,-5.0209,-4.8224,-4.692,-4.5984,-4.5206,-4.4759,-4.4807,-4.2952,-3.9072,-3.7821,-3.5365,-3.1961,-3.0191,-2.957,-2.9367,-2.9246,-2.9327,-2.9449,-2.9749,-3.0042,-3.0033,-2.9552,-2.8777,-2.7519,-2.5556,-2.3758,-2.2512,-2.107,-1.9886,-1.9772,-1.9647,-1.8921,-1.7302,-1.634,-1.2685,-0.6946,-0.423,-0.1965,0.3025,0.4831,0.4825,0.4846,0.4841,0.4834,0.4834,0.4831,0.4805,0.4785,0.4778,0.4765,0.4739,0.4731,0.4735,0.4739,0.4748,0.4737,0.4725,0.4746,0.4729,0.468,0.7012,0.9041,-10.2088,-9.9978,-9.7915,-9.5847,-9.3725,-9.1644,-9.0739,-9.0603,-8.9623,-8.8936,-8.8087,-8.5841,-8.4266,-8.3351,-8.2352,-8.164,-8.1309,-8.104,-8.0709,-8.0419,-8.044,-8.0109,-7.9757,-8.044,-8.0813,-8.0606,-8.0192,-7.9179,-7.8055,-7.7489,-7.6513,-7.5195,-7.3957,-7.3126,-7.2532,-7.1157,-7.048,-7.0455,-7.0164,-6.798,-6.4483,-6.3422,-6.1191,-5.7659,-5.6321,-5.5927,-5.603,-5.6045,-5.603,-5.5893,-5.5055,-5.4394,-5.3728,-5.1804,-4.9618,-4.8122,-4.7033,-4.577,-4.4771,-4.4807,-4.265,-3.7852,-3.7054,-3.5061,-3.0401,-2.966,-2.9489,-2.9286,-2.9148,-2.9067,-2.9181,-2.9424,-2.9717,-2.9993,-3.0033,-2.9587,-2.8405,-2.6303,-2.4061,-2.1987,-2.0692,-1.9964,-1.9664,-1.9566,-1.9009,-1.7835,-1.737,-1.3885,-0.8132,-0.5722,-0.3314,0.2564,0.3904,0.4203,0.4517,0.4822,0.4669,0.4669,0.4829,0.4797,0.476,0.4754,0.4739,0.4713,0.4705,0.4711,0.4722,0.4735,0.4726,0.4706,0.4702,0.4695,0.4962,0.5386,0.7266,-10.2088,-10.0106,-9.7915,-9.6086,-9.4258,-9.2026,-9.0852,-9.1124,-9.0852,-9.0148,-8.9029,-8.7234,-8.5797,-8.3993,-8.2741,-8.1907,-8.1599,-8.0916,-8.0543,-8.044,-7.9653,-7.9301,-7.9301,-8.0109,-8.0336,-8.0005,-7.9426,-7.9612,-8.001,-7.888,-7.7778,-7.7031,-7.6394,-7.4995,-7.2466,-7.2371,-7.1517,-7.0808,-7.0503,-6.8901,-6.6522,-6.4207,-6.1635,-5.8991,-5.6938,-5.6059,-5.6352,-5.6352,-5.6337,-5.6396,-5.6644,-5.5893,-5.4382,-5.3519,-5.1941,-4.9037,-4.8033,-4.6859,-4.523,-4.4868,-4.2604,-3.8175,-3.7215,-3.4956,-3.0657,-2.9514,-2.9359,-2.9083,-2.8994,-2.8994,-2.9164,-2.9335,-2.9522,-2.9684,-2.9968,-2.9944,-2.9231,-2.6856,-2.3713,-2.0829,-1.9854,-1.9761,-1.9587,-1.9495,-1.9284,-1.8903,-1.7971,-1.5371,-1.0498,-0.824,-0.4494,0.0299,0.2391,0.2688,0.3743,0.4651,0.465,0.465,0.4665,0.4805,0.4751,0.4728,0.4714,0.4692,0.4684,0.469,0.4692,0.4702,0.4695,0.468,0.4675,0.4664,0.4936,0.5211,0.5505,-10.2895,-10.2088,-9.9978,-9.8822,-9.7761,-9.4391,-9.3615,-9.479,-9.3615,-9.2677,-9.198,-9.0578,-8.8389,-8.5679,-8.4015,-8.2761,-8.1744,-8.1164,-8.0895,-8.073,-7.9943,-7.9674,-7.9985,-8.0274,-8.0523,-8.0626,-8.0543,-8.0233,-7.9902,-7.9488,-7.8962,-7.83,-7.6762,-7.5994,-7.5589,-7.4039,-7.3061,-7.3463,-7.2295,-6.9675,-6.5894,-6.3993,-6.1191,-5.7389,-5.6542,-5.6366,-5.6674,-5.6484,-5.6484,-5.6674,-5.6791,-5.655,-5.5648,-5.4422,-5.3061,-5.1504,-4.908,-4.7602,-4.6571,-4.5335,-4.2651,-3.8447,-3.7215,-3.4748,-3.0562,-2.9765,-2.9603,-2.9302,-2.9254,-2.9286,-2.9327,-2.9376,-2.9497,-2.9652,-2.9887,-2.9871,-2.9337,-2.6923,-2.3603,-2.063,-1.9723,-1.9593,-1.9517,-1.9452,-1.9375,-1.9337,-1.8721,-1.6717,-1.2876,-1.0313,-0.7166,-0.2531,-0.104,0.0594,0.1339,0.1936,0.2232,0.3127,0.3884,0.4634,0.4588,0.4711,0.4695,0.4681,0.4673,0.4669,0.4672,0.4671,0.4669,0.4654,0.4643,0.4628,0.4611,0.4893,0.5182,-10.3297,-10.302,-10.1024,-10.0106,-9.9722,-9.648,-9.5823,-9.6742,-9.5691,-9.5055,-9.4766,-9.3496,-9.1323,-8.8504,-8.6312,-8.4288,-8.2751,-8.1631,-8.1102,-8.0999,-8.0357,-8.0171,-8.0399,-8.0419,-8.0771,-8.1185,-8.1019,-8.0564,-8.0005,-7.9798,-7.9508,-7.8853,-7.7492,-7.6924,-7.7115,-7.5616,-7.4919,-7.4702,-7.313,-7.0448,-6.7326,-6.5335,-6.2339,-5.8489,-5.7778,-5.7546,-5.6973,-5.6644,-5.6644,-5.6805,-5.6849,-5.6791,-5.6718,-5.5682,-5.4561,-5.2962,-5.1298,-4.9343,-4.7673,-4.6359,-4.3612,-3.9547,-3.767,-3.5507,-3.1987,-3.0604,-2.97,-2.9481,-2.9408,-2.9441,-2.9497,-2.9514,-2.9595,-2.9757,-2.9879,-2.9329,-2.8229,-2.6307,-2.3571,-2.088,-1.9674,-1.9549,-1.9446,-1.9386,-1.9321,-1.9321,-1.9321,-1.8199,-1.4799,-1.2818,-0.965,-0.6803,-0.5154,-0.339,-0.1479,-0.0887,-0.0295,0.1182,0.2813,0.3844,0.4411,0.4705,0.4696,0.468,0.4669,0.4669,0.4671,0.4669,0.4666,0.4642,0.4616,0.4602,0.4589,0.4571,0.4855,-10.3297,-10.302,-10.1151,-10.0489,-10.0234,-9.8045,-9.7395,-9.7525,-9.7265,-9.7134,-9.6848,-9.5857,-9.4248,-9.2244,-8.91,-8.6582,-8.445,-8.2597,-8.1427,-8.1182,-8.0709,-8.0585,-8.0543,-8.0606,-8.1061,-8.1516,-8.0978,-8.0523,-8.0336,-8.0067,-7.955,-7.9177,-7.8956,-7.8403,-7.7573,-7.6993,-7.6394,-7.5372,-7.364,-7.178,-6.9425,-6.7895,-6.5125,-6.0962,-6.0299,-5.9418,-5.7739,-5.7127,-5.682,-5.6849,-5.6849,-5.6937,-5.7113,-5.6981,-5.5691,-5.3846,-5.3529,-5.1368,-4.8754,-4.7535,-4.5531,-4.1413,-3.89,-3.6236,-3.3403,-3.1418,-3.0133,-2.9489,-2.9481,-2.953,-2.9635,-2.9684,-2.9765,-2.9903,-2.9936,-2.8714,-2.5776,-2.5123,-2.343,-2.0965,-1.9827,-1.9587,-1.9365,-1.9332,-1.9327,-1.9316,-1.931,-1.7993,-1.6528,-1.482,-1.329,-1.1316,-0.8924,-0.7321,-0.5433,-0.5286,-0.4692,-0.2933,-0.0734,0.1614,0.3663,0.4399,0.4694,0.4677,0.4669,0.4669,0.4669,0.4668,0.4651,0.4621,0.46,0.4585,0.4563,0.4541,0.4537,-10.3297,-10.3297,-10.2644,-10.2492,-10.2214,-10.0106,-10.0259,-10.1303,-9.985,-9.9337,-9.9183,-9.89,-9.7036,-9.4248,-9.2244,-8.9396,-8.6367,-8.457,-8.2766,-8.1327,-8.1371,-8.1206,-8.1082,-8.1268,-8.1516,-8.1723,-8.1475,-8.1082,-8.0481,-8.0585,-8.0295,-7.9571,-7.955,-7.9576,-7.9384,-7.8977,-7.8834,-7.8276,-7.6854,-7.4271,-7.1323,-6.9661,-6.7061,-6.3587,-6.19,-6.0532,-5.9433,-5.7754,-5.6849,-5.6849,-5.6849,-5.6762,-5.6674,-5.6571,-5.6083,-5.4897,-5.353,-5.2555,-5.1055,-4.8805,-4.5922,-4.3369,-4.1111,-3.8123,-3.3978,-3.2903,-3.1596,-3.0277,-2.9717,-2.9757,-2.9725,-2.979,-2.9887,-2.9928,-2.9952,-2.9021,-2.7128,-2.5566,-2.3867,-2.1816,-2.0308,-1.9592,-1.9381,-1.9337,-1.9332,-1.9321,-1.9261,-1.9009,-1.7682,-1.6396,-1.4878,-1.3904,-1.2093,-1.093,-0.9918,-0.9629,-0.8896,-0.7433,-0.4814,-0.1607,0.1168,0.3946,0.4384,0.4671,0.4669,0.4669,0.4669,0.4668,0.4636,0.4604,0.459,0.4575,0.453,0.4501,0.4506,-10.3297,-10.3297,-10.3297,-10.3297,-10.3145,-10.1962,-10.2214,-10.2895,-10.2088,-10.143,-10.143,-10.143,-9.9953,-9.7451,-9.5702,-9.2584,-8.8987,-8.6637,-8.4322,-8.2337,-8.1842,-8.1599,-8.1496,-8.1703,-8.1785,-8.1785,-8.1785,-8.1371,-8.0854,-8.0978,-8.0668,-8.015,-8.0026,-8.0171,-8.0316,-8.0192,-8.0005,-7.9684,-7.8421,-7.6148,-7.4102,-7.2142,-6.9713,-6.6955,-6.4951,-6.3451,-6.0868,-5.8288,-5.6849,-5.6849,-5.6849,-5.6762,-5.6586,-5.6425,-5.6074,-5.5459,-5.4416,-5.3688,-5.2248,-5.0376,-4.8181,-4.5473,-4.3252,-3.9957,-3.6129,-3.4413,-3.2472,-3.0388,-2.9944,-2.9887,-2.9839,-2.9887,-2.9977,-3.0042,-2.9993,-2.9175,-2.762,-2.5782,-2.4112,-2.2341,-2.0708,-1.9528,-1.9484,-1.943,-1.9408,-1.9381,-1.9316,-1.9169,-1.8716,-1.7434,-1.6603,-1.5776,-1.5281,-1.4117,-1.2957,-1.2667,-1.1508,-1.0185,-0.7276,-0.4223,-0.0437,0.3063,0.4229,0.4668,0.4668,0.4668,0.4665,0.4654,0.4626,0.46,0.4586,0.4559,0.4518,0.4506,0.4504,-10.3297,-10.3297,-10.3297,-10.3297,-10.3297,-10.3271,-10.3145,-10.3271,-10.3145,-10.3145,-10.3145,-10.3271,-10.224,-10.1329,-9.8334,-9.5648,-9.1894,-8.8422,-8.5386,-8.3355,-8.2327,-8.1723,-8.1599,-8.1723,-8.1785,-8.1785,-8.1785,-8.1496,-8.1185,-8.1144,-8.0937,-8.0626,-8.0543,-8.0585,-8.0709,-8.0606,-8.0543,-8.0299,-7.9048,-7.7839,-7.685,-7.5091,-7.2848,-7.0293,-6.7535,-6.4848,-6.1266,-5.8471,-5.682,-5.6908,-5.6908,-5.6864,-5.6791,-5.6498,-5.6045,-5.5532,-5.5339,-5.458,-5.2964,-5.2551,-5.1232,-4.7707,-4.5409,-4.2277,-3.8597,-3.5873,-3.3496,-3.1212,-3.0228,-3.005,-3.0025,-3.0009,-3.0025,-3.0098,-3.0017,-2.9183,-2.7928,-2.6225,-2.4613,-2.2796,-2.124,-2.0249,-1.9702,-1.9604,-1.9517,-1.9446,-1.9359,-1.9218,-1.906,-1.8342,-1.7939,-1.7825,-1.7628,-1.7458,-1.6295,-1.5422,-1.3968,-1.2369,-0.8875,-0.5386,-0.1165,0.1895,0.3644,0.4518,0.4662,0.466,0.4656,0.4636,0.4612,0.4596,0.4581,0.4551,0.4521,0.4531,0.4536,-10.3297,-10.3297,-10.3297,-10.3297,-10.3297,-10.3297,-10.3297,-10.3297,-10.3297,-10.3297,-10.3297,-10.3297,-10.3145,-10.2618,-9.9568,-9.6399,-9.3422,-8.9798,-8.6399,-8.2866,-8.2143,-8.1537,-8.1433,-8.1599,-8.1785,-8.1785,-8.1785,-8.1558,-8.1289,-8.1413,-8.1413,-8.104,-8.1226,-8.1475,-8.1413,-8.133,-8.1289,-8.1019,-8.0389,-7.9395,-7.8344,-7.763,-7.5837,-7.262,-6.8124,-6.3983,-6.0832,-5.7988,-5.6871,-5.7083,-5.7186,-5.6996,-5.6659,-5.6644,-5.6162,-5.543,-5.5342,-5.5149,-5.4353,-5.3325,-5.1928,-4.992,-4.7625,-4.494,-4.1154,-3.7895,-3.5529,-3.3406,-3.1527,-3.0465,-3.0318,-3.0228,-3.0131,-3.005,-2.9993,-2.979,-2.9152,-2.783,-2.6068,-2.4325,-2.2709,-2.1253,-1.9855,-1.9691,-1.9609,-1.9517,-1.9403,-1.9272,-1.9131,-1.8984,-1.8854,-1.8745,-1.854,-1.8218,-1.7747,-1.6874,-1.6001,-1.4548,-1.1346,-0.7261,-0.3051,0.0582,0.2181,0.349,0.4656,0.465,0.4641,0.4626,0.4601,0.4589,0.4578,0.4563,0.4552,0.4561,0.4553,-10.3868,-10.3271,-10.3297,-10.3297,-10.3297,-10.3297,-10.3297,-10.3297,-10.3297,-10.3297,-10.3297,-10.3297,-10.3297,-10.302,-10.0387,-9.7692,-9.4597,-8.9894,-8.6019,-8.3282,-8.1997,-8.1433,-8.1433,-8.1454,-8.1558,-8.1744,-8.1785,-8.162,-8.1578,-8.162,-8.164,-8.1454,-8.1682,-8.1558,-8.1558,-8.1661,-8.1496,-8.1164,-8.1082,-8.0451,-7.9416,-7.8828,-7.657,-7.2751,-6.794,-6.4068,-6.0602,-5.8063,-5.6944,-5.7054,-5.723,-5.7113,-5.6674,-5.6601,-5.6103,-5.5415,-5.543,-5.5445,-5.4941,-5.4522,-5.3437,-5.1765,-4.9827,-4.6708,-4.3113,-3.9447,-3.635,-3.4086,-3.2044,-3.0383,-3.0448,-3.022,-3.0082,-3.0082,-2.9993,-2.9952,-2.9621,-2.8474,-2.6733,-2.5028,-2.3295,-2.1571,-2.0464,-2.009,-1.9745,-1.9674,-1.9506,-1.9375,-1.9261,-1.9109,-1.8941,-1.8826,-1.875,-1.8545,-1.8497,-1.8186,-1.7892,-1.6435,-1.4399,-1.0146,-0.5786,-0.2461,0.058,0.2465,0.4641,0.4631,0.462,0.4605,0.4594,0.4586,0.4579,0.4579,0.4583,0.4589,0.457,-10.4463,-10.3297,-10.3297,-10.3297,-10.3297,-10.3297,-10.3297,-10.3297,-10.3297,-10.3297,-10.3297,-10.3297,-10.3297,-10.2743,-10.0515,-9.828,-9.4465,-8.9829,-8.5332,-8.37,-8.1908,-8.1735,-8.186,-8.1897,-8.196,-8.2029,-8.1928,-8.1765,-8.1765,-8.1785,-8.1682,-8.1661,-8.1661,-8.1475,-8.1289,-8.1351,-8.1433,-8.1268,-8.1164,-8.0978,-8.0386,-7.962,-7.6924,-7.2998,-6.8246,-6.5283,-6.1654,-5.8733,-5.6718,-5.6864,-5.7069,-5.701,-5.6805,-5.6571,-5.6147,-5.5547,-5.5766,-5.5825,-5.5723,-5.5674,-5.5143,-5.329,-5.1792,-4.9244,-4.5491,-4.1631,-3.867,-3.6048,-3.3858,-3.1267,-3.1023,-3.0375,-3.0107,-3.0107,-3.0025,-2.996,-2.9637,-2.8552,-2.7297,-2.5755,-2.4317,-2.2748,-2.1167,-2.0338,-2.0013,-1.98,-1.962,-1.9468,-1.9348,-1.9218,-1.9038,-1.8892,-1.881,-1.8707,-1.8647,-1.862,-1.8331,-1.7592,-1.6136,-1.2452,-0.8219,-0.4463,-0.0865,0.2889,0.4621,0.4609,0.46,0.4587,0.4581,0.4579,0.459,0.46,0.4608,0.4616,0.4587,-10.4489,-10.3297,-10.3297,-10.3297,-10.3297,-10.3297,-10.3297,-10.3297,-10.3297,-10.3297,-10.3297,-10.3297,-10.3297,-10.2366,-9.9105,-9.5341,-9.1764,-8.7979,-8.5845,-8.4447,-8.2604,-8.2055,-8.2963,-8.3019,-8.3167,-8.3202,-8.2598,-8.1887,-8.1785,-8.1785,-8.162,-8.133,-8.1268,-8.1164,-8.0957,-8.0895,-8.1082,-8.1268,-8.1185,-8.1019,-8.0775,-8.033,-7.8809,-7.5118,-6.9914,-6.629,-6.3789,-5.9315,-5.6279,-5.6762,-5.663,-5.6527,-5.6498,-5.6601,-5.6381,-5.603,-5.6059,-5.6176,-5.6205,-5.644,-5.5691,-5.4227,-5.3101,-5.2189,-4.9449,-4.5704,-4.2465,-4.0814,-3.7085,-3.364,-3.3341,-3.1701,-3.0253,-3.0042,-2.9985,-2.9944,-2.979,-2.9483,-2.8706,-2.7165,-2.5607,-2.3719,-2.2105,-2.0652,-1.9981,-1.974,-1.9598,-1.9479,-1.9381,-1.9256,-1.9104,-1.8973,-1.8854,-1.8745,-1.8642,-1.8625,-1.847,-1.801,-1.6541,-1.3887,-0.979,-0.6016,-0.2291,0.1864,0.416,0.4581,0.4571,0.4566,0.4578,0.4586,0.4604,0.462,0.4628,0.4631,0.4612,-10.508,-10.3422,-10.3297,-10.3297,-10.3297,-10.3297,-10.3297,-10.3297,-10.3297,-10.3297,-10.3297,-10.3297,-10.3297,-10.224,-9.8847,-9.4489,-9.0848,-8.8344,-8.7223,-8.6179,-8.4611,-8.3903,-8.4688,-8.4558,-8.4193,-8.3823,-8.2977,-8.2289,-8.1907,-8.1785,-8.1496,-8.1206,-8.1102,-8.0875,-8.0606,-8.0709,-8.0668,-8.0875,-8.0937,-8.0957,-8.0771,-8.075,-7.903,-7.5273,-7.2148,-6.8574,-6.4438,-6.1551,-5.8515,-5.778,-5.6823,-5.6416,-5.6264,-5.6366,-5.6469,-5.6235,-5.6293,-5.6469,-5.6542,-5.6659,-5.6084,-5.5486,-5.4351,-5.3463,-5.1796,-4.8645,-4.5568,-4.3444,-4.1153,-3.6966,-3.5289,-3.3198,-3.1564,-3.013,-2.9952,-2.9952,-2.9944,-2.9944,-2.9329,-2.8398,-2.6232,-2.417,-2.2359,-2.1063,-2.0074,-1.9674,-1.9549,-1.9473,-1.9397,-1.9299,-1.9163,-1.8984,-1.8848,-1.8723,-1.8636,-1.8631,-1.8587,-1.8122,-1.7371,-1.4721,-1.1477,-0.7557,-0.3129,0.128,0.2844,0.4404,0.4544,0.4537,0.4564,0.459,0.4596,0.4606,0.4634,0.4641,0.4616,-10.6062,-10.3645,-10.3645,-10.3521,-10.3271,-10.3297,-10.3297,-10.3297,-10.3297,-10.3297,-10.3297,-10.3297,-10.3297,-10.224,-9.8976,-9.4898,-9.1237,-8.9463,-8.8456,-8.7908,-8.6311,-8.5801,-8.6436,-8.6166,-8.5779,-8.5431,-8.415,-8.2963,-8.178,-8.1454,-8.1247,-8.0999,-8.0937,-8.0647,-8.0212,-8.044,-8.0274,-8.0336,-8.0378,-8.0585,-8.0378,-8.0113,-7.8724,-7.5122,-7.4213,-7.0989,-6.715,-6.4185,-6.1586,-5.9681,-5.8156,-5.7177,-5.6137,-5.6191,-5.6396,-5.6454,-5.6469,-5.6674,-5.6908,-5.6893,-5.6908,-5.6615,-5.5175,-5.466,-5.3812,-5.151,-4.8056,-4.5027,-4.2464,-4.0069,-3.7356,-3.4927,-3.2587,-3.0567,-2.9977,-2.9993,-2.996,-2.9944,-2.9944,-2.8552,-2.6548,-2.4908,-2.3225,-2.0994,-1.986,-1.956,-1.9446,-1.9441,-1.9375,-1.9348,-1.9218,-1.8989,-1.8826,-1.869,-1.8625,-1.8625,-1.8565,-1.8346,-1.7884,-1.6401,-1.2707,-0.8927,-0.4529,-0.0283,0.3104,0.451,0.4508,0.4382,0.4129,0.4149,0.4436,0.4594,0.4626,0.4624,0.4601,-10.7398,-10.4957,-10.4957,-10.4365,-10.3396,-10.3297,-10.3297,-10.3297,-10.3297,-10.3297,-10.3297,-10.3271,-10.3271,-10.2114,-9.8847,-9.5691,-9.3056,-9.0261,-8.8776,-8.8571,-8.709,-8.6974,-8.7953,-8.7711,-8.7548,-8.694,-8.5735,-8.3796,-8.195,-8.0974,-8.0606,-8.0502,-8.0481,-8.0378,-8.0109,-8.0088,-8.0047,-8.0192,-8.0047,-7.9881,-7.9819,-7.9819,-7.9112,-7.7712,-7.5554,-7.3222,-7.112,-6.8343,-6.5319,-6.1866,-6.1158,-5.9274,-5.6817,-5.6191,-5.6498,-5.6703,-5.6864,-5.7054,-5.7479,-5.742,-5.7303,-5.7171,-5.6542,-5.663,-5.5859,-5.4975,-5.2301,-4.9645,-4.6588,-4.2896,-3.9554,-3.6256,-3.3144,-3.1162,-3.0123,-3.0066,-3.0001,-2.9944,-2.9944,-2.9175,-2.7165,-2.5754,-2.4212,-2.1688,-1.9631,-1.9479,-1.9365,-1.937,-1.9365,-1.9348,-1.9272,-1.9055,-1.8848,-1.8707,-1.8647,-1.8647,-1.856,-1.8457,-1.8106,-1.7345,-1.365,-0.989,-0.6634,-0.2537,0.1264,0.4213,0.4507,0.4246,0.3702,0.3854,0.4427,0.459,0.4617,0.4605,0.459,-10.8719,-10.6184,-10.5423,-10.4957,-10.4365,-10.3645,-10.3297,-10.3297,-10.3297,-10.3297,-10.3297,-10.3297,-10.2618,-10.1176,-9.8175,-9.5823,-9.3591,-9.1055,-8.976,-8.976,-8.8849,-8.8849,-8.9532,-8.9556,-8.9327,-8.805,-8.6273,-8.4158,-8.2287,-8.0944,-8.0316,-8.0067,-8.0005,-7.986,-7.9881,-7.9736,-7.9653,-7.9612,-7.9467,-7.9364,-7.9343,-7.9343,-7.926,-7.9074,-7.7329,-7.6035,-7.4312,-7.2399,-6.8955,-6.5353,-6.3322,-6.0661,-5.8487,-5.7219,-5.6571,-5.7083,-5.7113,-5.7259,-5.7464,-5.7391,-5.7361,-5.7303,-5.7069,-5.6908,-5.6944,-5.6684,-5.5762,-5.3648,-5.1481,-4.7676,-4.2675,-3.9507,-3.5226,-3.2389,-3.049,-3.0147,-3.0058,-2.9985,-2.979,-2.8868,-2.7921,-2.6528,-2.4704,-2.2023,-2.011,-1.9506,-1.9414,-1.9408,-1.9392,-1.937,-1.9267,-1.9125,-1.8919,-1.8739,-1.8701,-1.868,-1.8565,-1.8462,-1.8337,-1.6985,-1.4029,-1.0713,-0.7038,-0.3516,0.0561,0.281,0.3945,0.4233,0.382,0.4118,0.456,0.4575,0.459,0.4613,0.4596,-10.9788,-10.8,-10.6644,-10.6035,-10.5572,-10.4365,-10.377,-10.377,-10.3396,-10.3297,-10.3297,-10.3271,-10.2366,-10.0718,-9.8825,-9.6701,-9.4633,-9.229,-9.1168,-9.0806,-9.0739,-9.058,-9.0444,-9.0421,-8.992,-8.8871,-8.701,-8.5058,-8.3325,-8.181,-8.0626,-7.9881,-7.986,-7.9736,-7.9571,-7.9591,-7.9591,-7.9198,-7.9136,-7.9115,-7.9094,-7.9094,-7.9094,-7.9053,-7.8936,-7.8244,-7.6754,-7.5475,-7.2881,-6.8739,-6.5388,-6.2554,-5.9837,-5.7597,-5.6827,-5.7113,-5.7274,-5.7464,-5.7479,-5.7405,-5.7274,-5.7288,-5.7244,-5.7127,-5.6923,-5.7347,-5.723,-5.5445,-5.4422,-5.0196,-4.536,-4.2103,-3.7663,-3.3624,-3.09,-3.049,-3.0123,-3.0074,-2.9839,-2.9329,-2.8383,-2.7113,-2.5126,-2.2402,-2.0596,-1.9685,-1.9473,-1.9457,-1.9446,-1.9435,-1.9348,-1.9234,-1.9022,-1.8837,-1.875,-1.8696,-1.8582,-1.8468,-1.8343,-1.7652,-1.5139,-1.0971,-0.6732,-0.3222,0.0,0.253,0.4373,0.4223,0.4075,0.4381,0.4542,0.4542,0.4556,0.4585,0.4594,-11.0903,-11.064,-10.9314,-10.8093,-10.686,-10.5545,-10.508,-10.4834,-10.377,-10.3396,-10.3297,-10.3271,-10.3145,-10.2262,-10.0184,-9.8085,-9.6587,-9.4021,-9.2103,-9.1032,-9.0739,-9.0739,-9.0739,-9.067,-9.0374,-8.9577,-8.79,-8.6266,-8.4522,-8.2504,-8.1321,-8.0394,-7.9958,-7.9985,-7.9922,-7.9653,-7.9446,-7.9136,-7.9053,-7.9053,-7.9053,-7.9053,-7.9053,-7.9074,-7.9094,-7.9101,-7.9313,-7.8449,-7.6314,-7.1711,-6.8523,-6.4759,-6.1362,-5.8612,-5.7601,-5.7296,-5.7493,-5.7669,-5.7654,-5.7654,-5.7713,-5.7742,-5.7625,-5.7303,-5.6864,-5.7113,-5.6805,-5.6132,-5.5175,-5.1597,-4.6798,-4.2847,-3.9563,-3.4837,-3.186,-3.0999,-3.0481,-3.0188,-2.9952,-2.9677,-2.8844,-2.7744,-2.6608,-2.4165,-2.1765,-2.0849,-1.9604,-1.9587,-1.9577,-1.9555,-1.9484,-1.9359,-1.9142,-1.8962,-1.8821,-1.8734,-1.8652,-1.8511,-1.8364,-1.8098,-1.713,-1.2381,-0.6434,-0.3923,-0.0842,0.1971,0.4232,0.3657,0.3513,0.4232,0.4525,0.4525,0.4529,0.4551,0.4556,-11.102,-11.102,-11.0405,-10.9551,-10.8213,-10.6914,-10.5913,-10.5203,-10.471,-10.4019,-10.3297,-10.3297,-10.3297,-10.2665,-10.0896,-9.8725,-9.6848,-9.4622,-9.2536,-9.1168,-9.0739,-9.0739,-9.0739,-9.0647,-9.0464,-8.978,-8.8557,-8.7356,-8.6026,-8.3604,-8.243,-8.146,-8.0132,-7.9606,-7.9426,-7.9508,-7.926,-7.9136,-7.9053,-7.9053,-7.9053,-7.9053,-7.9053,-7.9074,-7.9405,-7.9343,-7.9343,-7.9446,-7.7534,-7.4707,-7.1375,-6.7181,-6.3244,-6.0415,-5.8348,-5.7443,-5.7654,-5.7771,-5.7815,-5.78,-5.7727,-5.7537,-5.7464,-5.7259,-5.6703,-5.6864,-5.6615,-5.62,-5.5873,-5.2917,-4.7396,-4.5184,-4.2575,-3.6399,-3.2829,-3.1818,-3.0793,-3.0318,-3.0139,-2.9685,-2.9337,-2.8698,-2.7553,-2.6243,-2.3979,-2.1894,-2.0653,-1.9713,-1.9691,-1.9653,-1.9571,-1.9479,-1.9267,-1.9066,-1.8919,-1.8821,-1.8734,-1.856,-1.8391,-1.7988,-1.716,-1.1372,-0.6151,-0.3923,-0.1684,0.1405,0.2951,0.2807,0.309,0.4082,0.4508,0.4508,0.4515,0.4526,0.4529,-11.102,-11.102,-11.102,-11.0523,-10.9579,-10.824,-10.7129,-10.6306,-10.5423,-10.4489,-10.3271,-10.3297,-10.3297,-10.2717,-10.0819,-9.8825,-9.675,-9.4598,-9.2559,-9.1326,-9.0739,-9.0739,-9.0739,-9.0647,-9.0464,-8.9825,-8.9283,-8.8285,-8.6974,-8.4413,-8.3196,-8.21,-8.0528,-7.9543,-7.9301,-7.9115,-7.9053,-7.9053,-7.9053,-7.9053,-7.9053,-7.9053,-7.9053,-7.9074,-7.9322,-7.9446,-7.9343,-7.9405,-7.8551,-7.5713,-7.2466,-6.8684,-6.5268,-6.2137,-5.9204,-5.8025,-5.7698,-5.78,-5.7815,-5.7786,-5.7654,-5.7435,-5.7361,-5.701,-5.663,-5.6571,-5.6396,-5.6074,-5.6237,-5.4582,-4.8567,-4.7234,-4.4052,-3.8022,-3.4167,-3.2688,-3.1205,-3.0334,-3.0155,-2.9847,-2.9515,-2.9329,-2.8682,-2.7369,-2.4925,-2.2837,-2.1705,-2.0483,-1.974,-1.9696,-1.9631,-1.9533,-1.9403,-1.9201,-1.9017,-1.8919,-1.881,-1.862,-1.8313,-1.791,-1.5924,-1.07,-0.7552,-0.6294,-0.364,0.042,0.0,0.0,0.0,0.4209,0.4357,0.451,0.4518,0.4529,0.4527,-11.102,-11.102,-11.102,-11.102,-11.064,-10.9579,-10.8985,-10.824,-10.6306,-10.4737,-10.377,-10.3521,-10.3521,-10.2916,-10.0893,-9.865,-9.6726,-9.4381,-9.2301,-9.1055,-9.0739,-9.0739,-9.0693,-9.0624,-9.0303,-9.0165,-8.9713,-8.8943,-8.7719,-8.5882,-8.4442,-8.2792,-8.1119,-7.9633,-7.9653,-7.926,-7.9074,-7.9053,-7.9053,-7.9053,-7.9053,-7.9053,-7.9053,-7.9094,-7.9219,-7.9405,-7.9405,-7.9364,-7.867,-7.7115,-7.2248,-6.8667,-6.5774,-6.1075,-5.8258,-5.7179,-5.7552,-5.7786,-5.7815,-5.7815,-5.764,-5.7361,-5.7288,-5.6966,-5.6527,-5.6352,-5.6279,-5.5942,-5.6337,-5.5247,-5.198,-4.9115,-4.4992,-4.0443,-3.6726,-3.3655,-3.2284,-3.035,-3.0171,-3.0009,-2.9968,-2.979,-2.9329,-2.819,-2.5726,-2.3926,-2.2621,-2.1388,-2.0188,-1.9723,-1.9653,-1.9566,-1.9452,-1.925,-1.9066,-1.9006,-1.8886,-1.8685,-1.8373,-1.8106,-1.6853,-1.3468,-1.0844,-0.8968,-0.5602,-0.1685,0.0,0.0,0.0,0.3226,0.4225,0.4521,0.4527,0.4529,0.4522,-11.102,-11.102,-11.102,-11.102,-11.0875,-11.0523,-10.9934,-10.8866,-10.7277,-10.6184,-10.5695,-10.4957,-10.4586,-10.3613,-10.125,-9.875,-9.6775,-9.4694,-9.263,-9.0829,-9.0739,-9.0739,-9.067,-9.0418,-9.0027,-8.9637,-8.9548,-8.9686,-8.8712,-8.7043,-8.5811,-8.4188,-8.1448,-7.9979,-7.9426,-7.9094,-7.9053,-7.9053,-7.9053,-7.9053,-7.9053,-7.9053,-7.9074,-7.9074,-7.9301,-7.9405,-7.9343,-7.9301,-7.8968,-7.8092,-7.3325,-7.0087,-6.7105,-6.2544,-5.9905,-5.8037,-5.761,-5.78,-5.7815,-5.7786,-5.7654,-5.7376,-5.7113,-5.6849,-5.6425,-5.6147,-5.6001,-5.603,-5.6308,-5.5023,-5.2596,-5.1987,-4.8467,-4.2748,-3.8782,-3.5821,-3.364,-3.1389,-3.0188,-3.0033,-2.9952,-2.9952,-2.9645,-2.8982,-2.6996,-2.4551,-2.3238,-2.1446,-1.9914,-1.9664,-1.9647,-1.9566,-1.9452,-1.9261,-1.9104,-1.9284,-1.9005,-1.8674,-1.8538,-1.8292,-1.6755,-1.5102,-1.2616,-1.0004,-0.704,0.0,0.0,0.0,0.0,0.2246,0.3238,0.4234,0.4523,0.4518,0.451,-11.102,-11.102,-11.102,-11.102,-11.102,-11.102,-11.0288,-10.9104,-10.812,-10.7519,-10.6887,-10.6157,-10.5572,-10.4286,-10.1454,-9.8797,-9.6742,-9.3992,-9.2431,-9.0739,-9.0739,-9.0739,-9.0601,-9.0372,-9.0234,-8.9752,-8.9683,-8.9617,-8.9299,-8.7676,-8.5709,-8.3674,-8.1566,-7.9869,-7.9219,-7.9198,-7.9219,-7.9157,-7.9053,-7.9053,-7.9053,-7.9053,-7.9053,-7.9136,-7.9239,-7.9343,-7.9219,-7.926,-7.9384,-7.8146,-7.5515,-7.1859,-6.823,-6.4317,-6.1025,-5.8359,-5.7566,-5.7757,-5.7815,-5.7654,-5.7464,-5.7157,-5.6952,-5.6644,-5.6293,-5.6015,-5.5942,-5.603,-5.6352,-5.5561,-5.4145,-5.3881,-5.0586,-4.4873,-4.1218,-3.8108,-3.509,-3.2846,-3.0416,-3.0253,-3.0009,-2.9993,-2.9782,-2.9273,-2.8267,-2.5969,-2.3702,-2.1896,-2.0106,-1.9842,-1.9858,-1.977,-1.9821,-1.9924,-1.976,-1.9794,-1.9366,-1.8647,-1.856,-1.8484,-1.7963,-1.6583,-1.3946,-1.1754,-1.0148,-0.7862,-0.4206,-0.2101,-0.0981,0.0561,0.2105,0.3095,0.4233,0.4369,0.4218,-11.102,-11.102,-11.102,-11.102,-11.102,-11.102,-11.0288,-10.9223,-10.9223,-10.8507,-10.7398,-10.7398,-10.6401,-10.4383,-10.0743,-9.8075,-9.6193,-9.2542,-9.1396,-9.0739,-9.0739,-9.0716,-9.0647,-9.0532,-9.0188,-9.0372,-9.0303,-8.9775,-8.9709,-8.806,-8.5617,-8.2788,-8.106,-7.9758,-7.944,-7.9364,-7.9364,-7.9177,-7.9053,-7.9053,-7.9053,-7.9053,-7.9053,-7.9094,-7.9136,-7.9136,-7.9094,-7.9136,-7.9136,-7.7628,-7.4472,-7.0977,-6.7075,-6.2816,-5.9775,-5.7675,-5.7464,-5.7713,-5.7698,-5.7493,-5.7244,-5.6996,-5.6849,-5.6454,-5.6132,-5.5913,-5.5898,-5.5913,-5.6103,-5.6015,-5.5669,-5.3987,-5.2146,-4.7688,-4.3786,-4.0384,-3.7085,-3.4342,-3.1578,-3.0539,-3.0155,-3.0082,-2.9928,-2.9395,-2.8703,-2.663,-2.4356,-2.2592,-2.0966,-2.0138,-2.0127,-2.0175,-2.0364,-2.0544,-2.055,-2.0304,-1.9634,-1.8931,-1.862,-1.8555,-1.817,-1.7937,-1.5711,-1.4204,-1.408,-1.1913,-0.7699,-0.5041,-0.3502,-0.1961,-0.126,0.1546,0.2397,0.3657,0.3789,-11.102,-11.102,-11.102,-11.102,-11.102,-11.102,-11.0758,-11.0523,-11.0405,-11.017,-10.9816,-10.8838,-10.6981,-10.403,-10.0591,-9.7532,-9.4742,-9.2296,-9.1124,-9.0739,-9.0739,-9.0487,-9.0326,-9.0188,-8.9775,-8.9522,-8.943,-8.9568,-8.8864,-8.7699,-8.5896,-8.3183,-8.1643,-8.0574,-7.964,-7.9488,-7.9322,-7.9177,-7.9074,-7.9115,-7.9094,-7.9094,-7.9094,-7.9115,-7.9074,-7.9074,-7.9053,-7.9053,-7.9053,-7.8203,-7.6474,-7.3729,-6.987,-6.6153,-6.2564,-5.7616,-5.7376,-5.7727,-5.7508,-5.7376,-5.7171,-5.6849,-5.6674,-5.6323,-5.6015,-5.5884,-5.5884,-5.5927,-5.6045,-5.6059,-5.5957,-5.4674,-5.31,-5.0337,-4.6616,-4.3133,-3.9687,-3.6077,-3.3178,-3.0547,-3.0163,-2.9977,-2.9839,-2.9677,-2.8793,-2.6845,-2.4995,-2.3257,-2.1815,-2.0981,-2.0583,-2.0632,-2.1566,-2.2048,-2.1216,-2.0816,-1.9879,-1.9087,-1.9053,-1.9025,-1.8975,-1.8451,-1.7213,-1.6094,-1.4962,-1.3195,-1.0632,-0.8535,-0.6995,-0.6993,-0.6153,-0.2386,0.0703,0.1544,0.2244,-11.102,-11.102,-11.102,-11.102,-11.102,-11.102,-11.102,-11.102,-11.102,-11.102,-11.0875,-11.017,-10.7651,-10.3977,-10.092,-9.7767,-9.3992,-9.1914,-9.0739,-9.0739,-9.0739,-9.0418,-9.0142,-8.9936,-8.9706,-8.927,-8.9086,-8.9316,-8.8524,-8.7202,-8.5452,-8.3394,-8.2574,-8.0987,-7.9695,-7.926,-7.9281,-7.9136,-7.9094,-7.9198,-7.9219,-7.9177,-7.9157,-7.9239,-7.9177,-7.9094,-7.9074,-7.9074,-7.9074,-7.8915,-7.7648,-7.4773,-7.0355,-6.5877,-6.1704,-5.7162,-5.7054,-5.7259,-5.7157,-5.7127,-5.6952,-5.6762,-5.6586,-5.6337,-5.6074,-5.5884,-5.5884,-5.5913,-5.6118,-5.6235,-5.6059,-5.5703,-5.4381,-5.292,-4.9544,-4.6057,-4.2182,-3.8018,-3.4627,-3.11,-3.0042,-2.9839,-2.9749,-2.9757,-2.9035,-2.7224,-2.5699,-2.4133,-2.2672,-2.1513,-2.1101,-2.1135,-2.2507,-2.3717,-2.2585,-2.1468,-2.0821,-2.0179,-1.9844,-1.9832,-1.9856,-1.9493,-1.8633,-1.6944,-1.5139,-1.4072,-1.3573,-1.2306,-1.1184,-1.1041,-1.0201,-0.686,-0.3646,-0.1822,-0.0981,-11.102,-11.102,-11.102,-11.102,-11.102,-11.102,-11.102,-11.102,-11.102,-11.102,-11.102,-11.102,-10.837,-10.4568,-10.1652,-9.8234,-9.4718,-9.1891,-9.0739,-9.0739,-9.0739,-9.0464,-9.0096,-8.9936,-8.9637,-8.9614,-8.9499,-8.9201,-8.9047,-8.7651,-8.5723,-8.3533,-8.2381,-8.0881,-7.9391,-7.9115,-7.9136,-7.9094,-7.9094,-7.9198,-7.9426,-7.9384,-7.9239,-7.9488,-7.9343,-7.9136,-7.9094,-7.9115,-7.9136,-7.868,-7.7132,-7.4429,-6.8973,-6.3935,-5.9682,-5.7427,-5.7141,-5.6908,-5.6923,-5.6879,-5.6718,-5.663,-5.6644,-5.6396,-5.6118,-5.6015,-5.603,-5.5927,-5.6059,-5.5957,-5.5781,-5.5679,-5.4773,-5.373,-5.1473,-4.822,-4.4717,-3.9815,-3.4627,-3.1504,-2.9944,-2.9749,-2.9611,-2.9603,-2.9314,-2.7554,-2.6413,-2.5013,-2.4094,-2.2617,-2.2064,-2.2086,-2.3452,-2.4354,-2.2901,-2.1938,-2.1893,-2.1399,-2.0938,-2.1249,-2.1599,-2.105,-2.0315,-1.9009,-1.7866,-1.757,-1.7089,-1.5806,-1.4809,-1.4248,-1.2991,-1.0759,-0.8385,-0.6287,-0.4197,-11.102,-11.102,-11.102,-11.102,-11.102,-11.102,-11.102,-11.102,-11.102,-11.102,-11.102,-11.0758,-10.8966,-10.5305,-10.2405,-9.8982,-9.5438,-9.2922,-9.1124,-9.0852,-9.0829,-9.0666,-9.0004,-8.9798,-8.9522,-8.9086,-8.8948,-8.9063,-8.8631,-8.7573,-8.5989,-8.3668,-8.2701,-8.1637,-7.9191,-7.9053,-7.9053,-7.897,-7.9074,-7.9074,-7.9157,-7.9198,-7.9136,-7.9322,-7.9281,-7.9301,-7.9405,-7.9715,-7.9488,-7.8983,-7.7315,-7.3329,-6.7492,-6.3723,-6.0616,-5.8354,-5.7482,-5.7127,-5.6762,-5.6747,-5.6718,-5.6615,-5.6571,-5.6337,-5.6205,-5.622,-5.6147,-5.6001,-5.5854,-5.5679,-5.5488,-5.5415,-5.5284,-5.4237,-5.3243,-5.0092,-4.6946,-4.0846,-3.4916,-3.2315,-3.0306,-2.9684,-2.953,-2.9225,-2.9087,-2.8258,-2.7186,-2.619,-2.5778,-2.4713,-2.3895,-2.3765,-2.4542,-2.4848,-2.3246,-2.2584,-2.2415,-2.2564,-2.2271,-2.2591,-2.3198,-2.2601,-2.1984,-2.1716,-2.1111,-2.0569,-2.0159,-1.9568,-1.8574,-1.7597,-1.6204,-1.397,-1.3523,-1.1973,-0.8924,-11.102,-11.102,-11.102,-11.102,-11.102,-11.102,-11.102,-11.102,-11.102,-11.102,-11.102,-11.0758,-10.9085,-10.6037,-10.3304,-9.9878,-9.657,-9.4476,-9.2407,-9.135,-9.1118,-9.0887,-9.0452,-8.9545,-8.927,-8.8856,-8.8971,-8.8902,-8.8214,-8.788,-8.6658,-8.4003,-8.3263,-8.2045,-7.9625,-7.9053,-7.895,-7.8763,-7.8929,-7.8929,-7.8867,-7.8929,-7.9177,-7.9364,-7.9508,-7.9529,-7.9715,-8.0005,-7.9881,-7.8334,-7.6273,-7.2303,-6.7612,-6.4448,-6.1651,-5.9396,-5.814,-5.772,-5.7083,-5.6929,-5.7017,-5.69,-5.6864,-5.6915,-5.6293,-5.6264,-5.6015,-5.5869,-5.5884,-5.5737,-5.5167,-5.4962,-5.4771,-5.4112,-5.3189,-5.1192,-4.6072,-4.0043,-3.5509,-3.2442,-3.0706,-2.9554,-2.9392,-2.9189,-2.891,-2.8837,-2.7795,-2.6966,-2.6708,-2.6488,-2.5669,-2.513,-2.5448,-2.4935,-2.3376,-2.3014,-2.311,-2.3274,-2.343,-2.401,-2.4417,-2.4132,-2.3792,-2.314,-2.2987,-2.3222,-2.2661,-2.1784,-2.1356,-2.0375,-1.8851,-1.7325,-1.6996,-1.5952,-1.2336,-11.102,-11.102,-11.102,-11.102,-11.102,-11.102,-11.102,-11.102,-11.102,-11.102,-11.102,-11.102,-10.9085,-10.7087,-10.4691,-10.1021,-9.8105,-9.6227,-9.4077,-9.2529,-9.2137,-9.0989,-8.9902,-8.8994,-8.8788,-8.8719,-8.8788,-8.8397,-8.78,-8.7651,-8.6768,-8.4294,-8.3058,-8.213,-8.0217,-7.917,-7.8908,-7.866,-7.8639,-7.8618,-7.868,-7.8784,-7.9177,-7.9488,-7.9695,-7.9715,-7.986,-8.0109,-8.0171,-7.8079,-7.5307,-7.1105,-6.7673,-6.4831,-6.2843,-6.067,-5.9965,-5.9052,-5.7952,-5.767,-5.7596,-5.7398,-5.748,-5.7303,-5.6926,-5.6631,-5.638,-5.6009,-5.6023,-5.5503,-5.4932,-5.4567,-5.4362,-5.4171,-5.3178,-5.1641,-4.5625,-4.0203,-3.7054,-3.3594,-3.1383,-3.0069,-2.9294,-2.9241,-2.8929,-2.8848,-2.8447,-2.7599,-2.7027,-2.6987,-2.6703,-2.5707,-2.5429,-2.4503,-2.3594,-2.3696,-2.3911,-2.4474,-2.4765,-2.5364,-2.5626,-2.5468,-2.5059,-2.4246,-2.4248,-2.4649,-2.4029,-2.302,-2.2737,-2.2158,-1.9773,-1.781,-1.7157,-1.585,-1.3616,-11.102,-11.102,-11.102,-11.102,-11.102,-11.102,-11.102,-11.102,-11.102,-11.102,-11.102,-11.0992,-11.0377,-10.9851,-10.667,-10.3995,-10.2254,-9.9367,-9.6382,-9.4391,-9.2738,-9.0844,-9.0008,-9.0232,-8.8593,-8.8323,-8.8541,-8.7892,-8.7708,-8.7691,-8.7212,-8.5611,-8.4307,-8.3063,-8.1537,-8.048,-7.9238,-7.8946,-7.8685,-7.8706,-7.8246,-7.8473,-7.8991,-7.9301,-7.9529,-7.9653,-7.9922,-8.0564,-8.0357,-7.8543,-7.5259,-7.0949,-6.7747,-6.5367,-6.3868,-6.2782,-6.1916,-6.0747,-5.9755,-5.931,-5.9005,-5.8672,-5.8763,-5.9098,-5.8701,-5.8217,-5.7553,-5.6579,-5.6237,-5.5257,-5.4684,-5.4493,-5.4289,-5.4142,-5.3558,-5.0493,-4.6034,-4.31,-4.0482,-3.646,-3.2661,-3.1143,-2.9685,-2.9431,-2.8988,-2.8898,-2.8653,-2.7937,-2.7706,-2.7563,-2.7428,-2.6592,-2.5732,-2.5357,-2.4878,-2.4587,-2.4827,-2.5528,-2.5938,-2.6377,-2.6621,-2.694,-2.64,-2.5639,-2.5601,-2.5959,-2.5217,-2.4094,-2.2929,-2.1926,-1.9414,-1.7712,-1.7056,-1.6019,-1.4067]}]]